[[{"header":{"parameterUnit":"m.s-1","parameterCategory":1,"la1":31.0,"la2":29.5877,"lo1":-88.7671,"lo2":-86.6584,"dy":0.0162,"dx":0.0185,"nx":115,"ny":88,"refTime":"2024-08-14T12:00:00:Z","depth":0,"parameterNumber":2,"parameterNumberName":"U-component_of_WINDS"},"data":[0.0,0.0,0.0,0.0,0.0,0.0,0.0,0.0,0.0,0.0,0.0,0.0,0.0,0.0,0.0,0.0,0.0,0.0,0.0,0.0,0.0,0.0,0.0,0.0,0.0,0.0,0.0,0.0,0.0,0.0,0.0,0.0,0.0,0.0,0.0,0.0,0.0,0.0,0.0,0.0,0.0,0.0,0.0,0.0,0.0,0.0,0.0,0.0,0.0,0.0,0.0,0.0,0.0,0.0,0.0,0.0,0.0,0.0,0.0,0.0,0.0,0.0,0.0,0.0,0.0,0.0,0.0,0.0,0.0,0.0,0.0,0.0,0.0,0.0,0.0,0.0,0.0,0.0,0.0,0.0,0.0,0.0,0.0,0.0,0.0,0.0,0.0,0.0,0.0,0.0,0.0,0.0,0.0,0.0,0.0,0.0,0.0,0.0,0.0,0.0,0.0,0.0,0.0,0.0,0.0,0.0,0.0,0.0,0.0,0.0,0.0,0.0,0.0,0.0,0.0,0.0,0.0,0.0,0.0,0.0,0.0,0.0,0.0,0.0,0.0,0.0,0.0,0.0,0.0,0.0,0.0,0.0,0.0,0.0,0.0,0.0,0.0,0.0,0.0,0.0,0.0,0.0,0.0,0.0,0.0,0.0,0.0,0.0,0.0,0.0,0.0,0.0,0.0,0.0,0.0,0.0,0.0,0.0,0.0,0.0,0.0,0.0,0.0,0.0,0.0,0.0,0.0,0.0,0.0,0.0,0.0,0.0,0.0,0.0,0.0,0.0,0.0,0.0,0.0,0.0,0.0,0.0,0.0,0.0,0.0,0.0,0.0,0.0,0.0,0.0,0.0,0.0,0.0,0.0,0.0,0.0,0.0,0.0,0.0,0.0,0.0,0.0,0.0,0.0,0.0,0.0,0.0,0.0,0.0,0.0,0.0,0.0,0.0,0.0,0.0,0.0,0.0,0.0,0.0,0.0,0.0,0.0,0.0,0.0,0.0,0.0,0.0,0.0,0.0,0.0,0.0,0.0,0.0,0.0,0.0,0.0,0.0,0.0,0.0,0.0,0.0,0.0,0.0,0.0,0.0,0.0,0.0,0.0,0.0,0.0,0.0,0.0,0.0,0.0,0.0,0.0,0.0,0.0,0.0,0.0,0.0,0.0,0.0,0.0,0.0,0.0,0.0,0.0,0.0,0.0,0.0,0.0,0.0,0.0,0.0,0.0,0.0,0.0,0.0,0.0,0.0,0.0,0.0,0.0,0.0,0.0,0.0,0.0,0.0,0.0,0.0,0.0,0.0,0.0,0.0,0.0,0.0,0.0,0.0,0.0,0.0,0.0,0.0,0.0,0.0,0.0,0.0,0.0,0.0,0.0,0.0,0.0,0.0,0.0,0.0,0.0,0.0,0.0,0.0,0.0,0.0,0.0,0.0,0.0,0.0,0.0,0.0,0.0,0.0,0.0,0.0,0.0,0.0,0.0,0.0,0.0,0.0,0.0,0.0,0.0,0.0,0.0,0.0,0.0,0.0,0.0,0.0,0.0,0.0,0.0,0.0,0.0,0.0,0.0,0.0,0.0,0.0,0.0,0.0,0.0,0.0,0.0,0.0,0.0,0.0,0.0,0.0,0.0,0.0,0.0,0.0,0.0,0.0,0.0,0.0,0.0,0.0,0.0,0.0,0.0,0.0,0.0,0.0,0.0,0.0,0.0,0.0,0.0,0.0,0.0,0.0,0.0,0.0,0.0,0.0,0.0,0.0,0.0,0.0,0.0,0.0,0.0,0.0,0.0,0.0,0.0,0.0,0.0,0.0,0.0,0.0,0.0,0.0,0.0,0.0,0.0,0.0,0.0,0.0,0.0,0.0,0.0,0.0,0.0,0.0,0.0,0.0,0.0,0.0,0.0,0.0,0.0,0.0,0.0,0.0,0.0,0.0,0.0,0.0,0.0,0.0,0.0,0.0,0.0,0.0,0.0,0.0,0.0,0.0,0.0,0.0,0.0,0.0,0.0,0.0,0.0,0.0,0.0,0.0,0.0,0.0,0.0,0.0,0.0,0.0,0.0,0.0,0.0,0.0,0.0,0.0,0.0,0.0,0.0,0.0,0.0,0.0,0.0,0.0,0.0,0.0,0.0,0.0,0.0,0.0,0.0,0.0,0.0,0.0,0.0,0.0,0.0,0.0,0.0,0.0,0.0,0.0,0.0,0.0,0.0,0.0,0.0,0.0,0.0,0.0,0.0,0.0,0.0,0.0,0.0,0.0,0.0,0.0,0.0,0.0,0.0,0.0,0.0,0.0,0.0,0.0,0.0,0.0,0.0,0.0,0.0,0.0,0.0,0.0,0.0,0.0,0.0,0.0,0.0,0.0,0.0,0.0,0.0,0.0,0.0,0.0,0.0,0.0,0.0,0.0,0.0,0.0,0.0,0.0,0.0,0.0,0.0,0.0,0.0,0.0,0.0,0.0,0.0,0.0,0.0,0.0,0.0,0.0,0.0,0.0,0.0,0.0,0.0,0.0,0.0,0.0,0.0,0.0,0.0,0.0,0.0,0.0,0.0,0.0,0.0,0.0,0.0,0.0,0.0,0.0,0.0,0.0,0.0,0.0,0.0,0.0,0.0,0.0,0.0,0.0,0.0,0.0,0.0,0.0,0.0,0.0,0.0,0.0,0.0,0.0,0.0,0.0,0.0,0.0,0.0,0.0,0.0,0.0,0.0,0.0,0.0,0.0,0.0,0.0,0.0,0.0,0.0,0.0,0.0,0.0,0.0,0.0,0.0,0.0,0.0,0.0,0.0,0.0,0.0,0.0,0.0,0.0,0.0,0.0,0.0,0.0,0.0,0.0,0.0,0.0,0.0,0.0,0.0,0.0,0.0,0.0,0.0,0.0,0.0,0.0,0.0,0.0,0.0,0.0,0.0,0.0,0.0,0.0,0.0,0.0,0.0,0.0,0.0,0.0,0.0,0.0,0.0,0.0,0.0,0.0,0.0,0.0,0.0,0.0,0.0,0.0,0.0,0.0,0.0,0.0,0.0,0.0,0.0,0.0,0.0,0.0,0.0,0.0,0.0,0.0,0.0,0.0,0.0,0.0,0.0,0.0,0.0,0.0,0.0,0.0,0.0,0.0,0.0,0.0,0.0,0.0,0.0,0.0,0.0,0.0,0.0,0.0,0.0,0.0,0.0,0.0,0.0,0.0,0.0,0.0,0.0,0.0,0.0,0.0,0.0,0.0,0.0,0.0,0.0,0.0,0.0,0.0,0.0,0.0,0.0,0.0,0.0,0.0,0.0,0.0,0.0,0.0,0.0,0.0,0.0,0.0,0.0,0.0,0.0,0.0,0.0,0.0,0.0,0.0,0.0,0.0,0.0,0.0,0.0,0.0,0.0,0.0,0.0,0.0,0.0,0.0,0.0,0.0,0.0,0.0,0.0,0.0,0.0,0.0,0.0,0.0,0.0,0.0,0.0,0.0,0.0,0.0,0.0,0.0,0.0,0.0,0.0,0.0,0.0,0.0,0.0,0.0,0.0,0.0,0.0,0.0,0.0,0.0,0.0,0.0,0.0,0.0,0.0,0.0,0.0,0.0,0.0,0.0,0.0,0.0,0.0,0.0,0.0,0.0,0.0,0.0,0.0,0.0,0.0,0.0,0.0,0.0,0.0,0.0,0.0,0.0,0.0,0.0,0.0,0.0,0.0,0.0,0.0,0.0,0.0,0.0,0.0,0.0,0.0,0.0,0.0,0.0,0.0,0.0,0.0,0.0,0.0,0.0,0.0,0.0,0.0,0.0,0.0,0.0,0.0,0.0,0.0,0.0,0.0,0.0,0.0,0.0,0.0,0.0,0.0,0.0,0.0,0.0,0.0,0.0,0.0,0.0,0.0,0.0,0.0,0.0,0.0,0.0,0.0,0.0,0.0,0.0,0.0,0.0,0.0,0.0,0.0,0.0,0.0,0.0,0.0,0.0,0.0,0.0,0.0,0.0,0.0,0.0,0.0,0.0,0.0,0.0,0.0,0.0,0.0,0.0,0.0,0.0,0.0,0.0,0.0,0.0,0.0,0.0,0.0,0.0,0.0,0.0,0.0,0.0,0.0,0.0,0.0,0.0,0.0,0.0,0.0,0.0,0.0,0.0,0.0,0.0,0.0,0.0,0.0,0.0,0.0,0.0,0.0,0.0,0.0,0.0,0.0,0.0,0.0,0.0,0.0,0.0,0.0,0.0,0.0,0.0,0.0,0.0,0.0,0.0,0.0,0.0,0.0,0.0,0.0,-0.4099,0.0,0.0,0.0,0.0,0.0,0.0,0.0,0.0,0.0,0.0,0.0,0.0,0.0,0.0,0.0,0.0,0.0,0.0,0.0,0.0,0.0,0.0,0.0,0.0,0.0,0.0,0.0,0.0,0.0,0.0,0.0,0.0,0.0,0.0,0.0,0.0,0.0,0.0,0.0,0.0,0.0,0.0,0.0,0.0,0.0,0.0,0.0,0.0,0.0,0.0,0.0,0.0,0.0,0.0,0.0,0.0,0.0,0.0,0.0,0.0,0.0,0.0,0.0,0.0,0.0,0.0,0.0,0.0,0.0,0.0,0.0,0.0,0.0,0.0,0.0,0.0,0.0,0.0,0.0,0.0,0.0,0.0,0.0,0.0,0.0,0.0,0.0,0.0,0.0,0.0,0.0,0.0,0.0,0.0,0.0,0.0,0.0,0.0,0.0,0.0,0.0,0.0,0.0,0.0,0.0,0.0,0.0,0.0,0.0,0.0,-0.3506,-0.3506,-0.3692,-0.3884,-0.4035,0.0,0.0,0.0,0.0,0.0,0.0,0.0,0.0,0.0,0.0,0.0,0.0,0.0,0.0,0.0,0.0,0.0,0.0,0.0,0.0,0.0,0.0,0.0,0.0,0.0,0.0,0.0,0.0,0.0,0.0,0.0,0.0,0.0,0.0,0.0,0.0,0.0,0.0,0.0,0.0,0.0,0.0,0.0,0.0,0.0,0.0,0.0,0.0,0.0,0.0,0.0,0.0,0.0,0.0,0.0,0.0,0.0,0.0,0.0,0.0,0.0,0.0,0.0,0.0,0.0,0.0,0.0,0.0,0.0,0.0,0.0,0.0,0.0,0.0,0.0,0.0,0.0,0.0,0.0,0.0,0.0,0.0,0.0,0.0,0.0,0.0,0.0,0.0,0.0,0.0,0.0,0.0,0.0,0.0,0.0,0.0,0.0,0.0,0.0,0.0,0.0,0.0,0.0,0.0,0.0,0.0,0.0,0.0,0.0,0.0,0.0,0.0,-0.395,-0.4171,-0.4368,0.0,0.0,0.0,0.0,0.0,0.0,0.0,0.0,0.0,0.0,0.0,0.0,0.0,0.0,0.0,0.0,0.0,0.0,0.0,0.0,0.0,0.0,0.0,0.0,0.0,0.0,0.0,0.0,0.0,0.0,0.0,0.0,0.0,0.0,0.0,0.0,0.0,0.0,0.0,0.0,0.0,0.0,0.0,0.0,0.0,0.0,0.0,0.0,0.0,0.0,0.0,0.0,0.0,0.0,0.0,0.0,0.0,0.0,0.0,0.0,0.0,0.0,0.0,0.0,0.0,0.0,0.0,0.0,0.0,0.0,0.0,0.0,0.0,0.0,0.0,0.0,0.0,0.0,0.0,0.0,0.0,0.0,0.0,0.0,0.0,0.0,0.0,0.0,0.0,0.0,0.0,0.0,0.0,0.0,0.0,0.0,0.0,0.0,0.0,0.0,0.0,0.0,0.0,0.0,0.0,0.0,0.0,0.0,0.0,0.0,-0.3684,-0.4218,-0.4706,0.0,-0.5436,0.0,0.0,0.0,0.0,0.0,0.0,0.0,0.0,0.0,0.0,0.0,0.0,0.0,0.0,0.0,0.0,0.0,0.0,0.0,0.0,0.0,0.0,0.0,0.0,0.0,0.0,0.0,0.0,0.0,0.0,0.0,0.0,0.0,0.0,0.0,0.0,0.0,0.0,0.0,0.0,0.0,0.0,0.0,0.0,0.0,0.0,0.0,0.0,0.0,0.0,0.0,0.0,0.0,0.0,0.0,0.0,0.0,0.0,0.0,0.0,0.0,0.0,0.0,0.0,0.0,0.0,0.0,0.0,0.0,0.0,0.0,0.0,0.0,0.0,0.0,0.0,0.0,0.0,0.0,0.0,0.0,0.0,0.0,0.0,0.0,0.0,0.0,0.0,0.0,0.0,0.0,0.0,0.0,0.0,0.0,0.0,0.0,0.0,0.0,0.0,0.0,0.0,0.0,0.0,0.0,0.0,0.0,0.0,0.0,0.0,0.0,-0.4171,-0.4625,-0.5104,0.0,0.0,0.0,0.0,0.0,0.0,0.0,0.0,0.0,0.0,0.0,0.0,0.0,0.0,0.0,0.0,0.0,0.0,0.0,0.0,0.0,0.0,0.0,0.0,0.0,0.0,0.0,0.0,0.0,0.0,0.0,0.0,0.0,0.0,0.0,0.0,0.0,0.0,0.0,0.0,0.0,0.0,0.0,0.0,0.0,0.0,0.0,0.0,0.0,0.0,0.0,0.0,0.0,0.0,0.0,0.0,0.0,0.0,0.0,0.0,0.0,0.0,0.0,0.0,0.0,0.0,0.0,0.0,0.0,0.0,0.0,0.0,0.0,0.0,0.0,0.0,0.0,0.0,0.0,0.0,0.0,0.0,0.0,0.0,0.0,0.0,0.0,0.0,0.0,0.0,0.0,0.0,0.0,0.0,0.0,0.0,0.0,0.0,0.0,0.0,0.0,0.0,0.0,0.0,0.0,0.0,0.0,0.0,0.0,0.0,-0.3955,0.0,-0.4448,-0.4778,-0.5158,-0.5604,0.0,0.0,0.0,0.0,0.0,0.0,0.0,0.0,0.0,0.0,0.0,0.0,0.0,0.0,0.0,0.0,0.0,0.0,0.0,0.0,0.0,0.0,0.0,0.0,0.0,0.0,0.0,0.0,0.0,0.0,0.0,0.0,0.0,0.0,0.0,0.0,0.0,0.0,0.0,0.0,0.0,0.0,0.0,0.0,0.0,0.0,0.0,0.0,0.0,0.0,0.0,0.0,0.0,0.0,0.0,0.0,0.0,0.0,0.0,0.0,0.0,0.0,0.0,0.0,0.0,0.0,0.0,0.0,0.0,0.0,0.0,0.0,0.0,0.0,0.0,0.0,0.0,0.0,0.0,0.0,0.0,0.0,0.0,0.0,0.0,0.0,0.0,0.0,0.0,0.0,0.0,0.0,0.0,0.0,0.0,0.0,0.0,0.0,0.0,0.0,0.0,0.0,0.0,0.0,0.0,0.0,0.0,0.0,0.0,-0.4031,-0.4248,-0.5295,-0.5495,-0.5604,0.0,0.0,0.0,0.0,0.0,0.0,0.0,0.0,0.0,0.0,0.0,0.0,0.0,0.0,0.0,0.0,0.0,0.0,0.0,0.0,0.0,0.0,0.0,0.0,0.0,0.0,0.0,0.0,0.0,0.0,0.0,0.0,0.0,0.0,0.0,0.0,0.0,0.0,0.0,0.0,0.0,0.0,0.0,0.0,0.0,0.0,0.0,0.0,0.0,0.0,0.0,0.0,0.0,0.0,0.0,0.0,0.0,0.0,0.0,0.0,0.0,0.0,0.0,0.0,0.0,0.0,0.0,0.0,0.0,0.0,0.0,0.0,0.0,0.0,0.0,0.0,0.0,0.0,0.0,0.0,0.0,0.0,0.0,0.0,0.0,0.0,0.0,0.0,0.0,0.0,0.0,0.0,0.0,0.0,0.0,0.0,0.0,0.0,0.0,0.0,0.0,0.0,0.0,0.0,0.0,0.0,0.0,0.0,0.0,-0.3789,-0.3849,-0.4486,-0.5649,-0.511,-0.5013,0.0,0.0,0.0,0.0,0.0,0.0,0.0,0.0,0.0,0.0,0.0,0.0,0.0,0.0,0.0,0.0,0.0,0.0,0.0,0.0,0.0,0.0,0.0,0.0,0.0,0.0,0.0,0.0,0.0,0.0,0.0,0.0,0.0,0.0,0.0,0.0,0.0,0.0,0.0,0.0,0.0,0.0,0.0,0.0,0.0,0.0,0.0,0.0,0.0,0.0,0.0,0.0,0.0,0.0,0.0,0.0,0.0,0.0,0.0,0.0,0.0,0.0,0.0,0.0,0.0,0.0,0.0,0.0,0.0,0.0,0.0,0.0,0.0,0.0,0.0,0.0,0.0,0.0,0.0,0.0,0.0,0.0,0.0,0.0,0.0,0.0,0.0,0.0,0.0,0.0,0.0,0.0,0.0,0.0,0.0,0.0,0.0,0.0,0.0,0.0,0.0,0.0,0.0,0.0,0.0,0.0,0.0,0.0,0.0,-0.3561,0.0,-0.459,0.0,-0.4766,-0.4606,0.0,0.0,0.0,0.0,0.0,0.0,0.0,0.0,0.0,0.0,0.0,0.0,0.0,0.0,0.0,0.0,0.0,0.0,0.0,0.0,0.0,0.0,0.0,0.0,0.0,0.0,0.0,0.0,0.0,0.0,0.0,0.0,0.0,0.0,0.0,0.0,0.0,0.0,0.0,0.0,0.0,0.0,0.0,0.0,0.0,0.0,0.0,0.0,0.0,0.0,0.0,0.0,0.0,0.0,0.0,0.0,0.0,0.0,0.0,0.0,0.0,0.0,0.0,0.0,0.0,0.0,0.0,0.0,0.0,0.0,0.0,0.0,0.0,0.0,0.0,0.0,0.0,0.0,0.0,0.0,0.0,0.0,0.0,0.0,0.0,0.0,0.0,0.0,0.0,0.0,0.0,0.0,0.0,0.0,0.0,0.0,0.0,0.0,0.0,0.0,0.0,0.0,0.0,0.0,0.0,0.0,0.0,0.0,-0.3711,-0.4086,-0.4445,-0.4617,-0.4456,-0.4554,-0.4514,0.0,0.0,0.0,0.0,0.0,0.0,0.0,0.0,0.0,0.0,0.0,0.0,0.0,0.0,0.0,0.0,0.0,0.0,0.0,0.0,0.0,0.0,0.0,0.0,0.0,0.0,0.0,0.0,0.0,0.0,0.0,0.0,0.0,0.0,0.0,0.0,0.0,0.0,0.0,0.0,0.0,0.0,0.0,0.0,0.0,0.0,0.0,0.0,0.0,0.0,0.0,0.0,0.0,0.0,0.0,0.0,0.0,0.0,0.0,0.0,0.0,0.0,0.0,0.0,0.0,0.0,0.0,0.0,0.0,0.0,0.0,0.0,0.0,0.0,0.0,0.0,0.0,0.0,0.0,0.0,0.0,0.0,0.0,0.0,0.0,0.0,0.0,0.0,0.0,0.0,0.0,0.0,0.0,0.0,0.0,0.0,0.0,0.0,0.0,0.0,0.0,0.0,0.0,0.0,0.0,0.0,0.0,0.0,0.0,-0.4586,-0.5132,-0.5463,-0.5546,-0.4892,-0.4706,0.0,0.0,0.0,0.0,0.0,0.0,0.0,0.0,0.0,0.0,0.0,0.0,0.0,0.0,0.0,0.0,0.0,0.0,0.0,0.0,0.0,0.0,0.0,0.0,0.0,0.0,0.0,0.0,0.0,0.0,0.0,0.0,0.0,0.0,0.0,0.0,0.0,0.0,0.0,0.0,0.0,0.0,0.0,0.0,0.0,0.0,0.0,0.0,0.0,0.0,0.0,0.0,0.0,0.0,0.0,0.0,0.0,0.0,0.0,0.0,0.0,0.0,0.0,0.0,0.0,0.0,0.0,0.0,0.0,0.0,0.0,0.0,0.0,0.0,0.0,0.0,0.0,0.0,0.0,0.0,0.0,0.0,0.0,0.0,0.0,0.0,0.0,0.0,0.0,0.0,0.0,0.0,0.0,0.0,0.0,0.0,0.0,0.0,0.0,0.0,0.0,0.0,0.0,0.0,0.0,0.0,0.0,0.0,0.0,-0.6379,-0.6174,-0.599,-0.5836,-0.5198,-0.4897,-0.4949,0.0,0.0,0.0,0.0,0.0,0.0,0.0,0.0,0.0,0.0,0.0,0.0,0.0,0.0,0.0,0.0,0.0,0.0,0.0,0.0,0.0,0.0,0.0,0.0,0.0,0.0,0.0,0.0,0.0,0.0,0.0,0.0,0.0,0.0,0.0,0.0,0.0,0.0,0.0,0.0,0.0,0.0,0.0,0.0,0.0,0.0,0.0,0.0,0.0,0.0,0.0,0.0,0.0,0.0,0.0,0.0,0.0,0.0,0.0,0.0,0.0,0.0,0.0,0.0,0.0,0.0,0.0,0.0,0.0,0.0,0.0,0.0,0.0,0.0,0.0,0.0,0.0,0.0,0.0,0.0,0.0,0.0,0.0,0.0,0.0,0.0,0.0,0.0,0.0,0.0,0.0,0.0,0.0,0.0,0.0,0.0,0.0,0.0,0.0,0.0,0.0,0.0,0.0,0.0,0.0,0.0,0.0,0.0,-0.9069,-0.7561,-0.6446,-0.573,-0.5636,-0.5177,0.0,0.0,0.0,0.0,0.0,0.0,0.0,0.0,0.0,0.0,0.0,0.0,0.0,0.0,0.0,0.0,0.0,0.0,0.0,0.0,0.0,0.0,0.0,0.0,0.0,0.0,0.0,0.0,0.0,0.0,0.0,0.0,0.0,0.0,0.0,0.0,0.0,0.0,0.0,0.0,0.0,0.0,0.0,0.0,0.0,0.0,0.0,0.0,0.0,0.0,0.0,0.0,0.0,0.0,0.0,0.0,0.0,0.0,0.0,0.0,0.0,0.0,0.0,0.0,0.0,0.0,0.0,0.0,0.0,0.0,0.0,0.0,0.0,0.0,0.0,0.0,0.0,0.0,0.0,0.0,0.0,0.0,0.0,0.0,0.0,0.0,0.0,0.0,0.0,0.0,0.0,0.0,0.0,0.0,0.0,0.0,0.0,0.0,0.0,0.0,0.0,0.0,0.0,0.0,0.0,0.0,0.0,0.0,0.0,-0.887,-0.9533,-0.9581,-0.8866,-0.7366,-0.6323,0.0,0.0,0.0,0.0,0.0,0.0,0.0,0.0,0.0,0.0,0.0,0.0,0.0,0.0,0.0,0.0,0.0,0.0,0.0,0.0,0.0,0.0,0.0,0.0,0.0,0.0,0.0,0.0,0.0,0.0,0.0,0.0,0.0,0.0,0.0,0.0,0.0,0.0,0.0,0.0,0.0,0.0,0.0,0.0,0.0,0.0,0.0,0.0,0.0,0.0,0.0,0.0,0.0,0.0,0.0,0.0,0.0,0.0,0.0,0.0,0.0,0.0,0.0,0.0,0.0,0.0,0.0,0.0,0.0,0.0,0.0,0.0,0.0,0.0,0.0,0.0,0.0,0.0,0.0,0.0,0.0,0.0,0.0,0.0,0.0,0.0,0.0,0.0,0.0,0.0,0.0,0.0,0.0,0.0,0.0,0.0,0.0,0.0,0.0,0.0,0.0,0.0,0.0,0.0,0.0,0.0,0.0,0.0,-0.9558,-1.0522,-1.1603,-1.1828,-1.1158,-0.913,-0.7391,0.0,0.0,0.0,0.0,0.0,0.0,0.0,0.0,0.0,0.0,0.0,0.0,0.0,0.0,0.0,0.0,0.0,0.0,0.0,0.0,0.0,0.0,0.0,0.0,0.0,0.0,0.0,0.0,0.0,0.0,0.0,0.0,0.0,0.0,0.0,0.0,0.0,0.0,0.0,0.0,0.0,0.0,0.0,0.0,0.0,0.0,0.0,0.0,0.0,0.0,0.0,0.0,0.0,0.0,0.0,0.0,0.0,0.0,0.0,0.0,0.0,0.0,0.0,0.0,0.0,0.0,0.0,0.0,0.0,0.0,0.0,0.0,0.0,0.0,0.0,0.0,0.0,0.0,0.0,0.0,0.0,0.0,0.0,0.0,0.0,0.0,0.0,0.0,0.0,0.0,0.0,0.0,0.0,0.0,0.0,0.0,0.0,0.0,0.0,0.0,0.0,0.0,0.0,0.0,0.0,0.0,0.0,0.0,-1.1248,-1.2857,-1.3468,-1.3441,-1.2697,-1.0706,-0.8338,0.0,0.0,0.0,0.0,0.0,0.0,0.0,0.0,0.0,0.0,0.0,0.0,0.0,0.0,0.0,0.0,0.0,0.0,0.0,0.0,0.0,0.0,0.0,0.0,0.0,0.0,0.0,0.0,0.0,0.0,0.0,0.0,0.0,0.0,0.0,0.0,0.0,0.0,0.0,0.0,0.0,0.0,0.0,0.0,0.0,0.0,0.0,0.0,0.0,0.0,0.0,0.0,0.0,0.0,0.0,0.0,0.0,0.0,0.0,0.0,0.0,0.0,0.0,0.0,0.0,0.0,0.0,0.0,0.0,0.0,0.0,0.0,0.0,0.0,0.0,0.0,0.0,0.0,0.0,0.0,0.0,0.0,0.0,0.0,0.0,0.0,0.0,0.0,0.0,0.0,0.0,0.0,0.0,0.0,0.0,0.0,0.0,0.0,0.0,0.0,0.0,0.0,0.0,0.0,0.0,0.0,0.0,0.0,-1.2086,-1.2961,-1.4141,-1.4373,-1.3476,-1.0996,-0.8768,0.0,0.0,0.0,0.0,0.0,0.0,0.0,0.0,0.0,0.0,0.0,0.0,0.0,0.0,0.0,0.0,0.0,0.0,0.0,0.0,0.0,0.0,0.0,0.0,0.0,0.0,0.0,0.0,0.0,0.0,0.0,0.0,0.0,0.0,0.0,0.0,0.0,0.0,0.0,0.0,0.0,0.0,0.0,0.0,0.0,0.0,0.0,0.0,-0.467,0.0,0.0,0.0,0.0,0.0,0.0,0.0,0.0,0.0,0.0,0.0,0.0,0.0,0.0,0.0,0.0,0.0,0.0,0.0,0.0,0.0,0.0,0.0,0.0,0.0,0.0,0.0,0.0,0.0,0.0,0.0,0.0,0.0,0.0,0.0,0.0,0.0,0.0,0.0,0.0,0.0,0.0,0.0,0.0,0.0,0.0,0.0,0.0,0.0,0.0,0.0,0.0,0.0,0.0,0.0,0.0,0.0,0.0,0.0,-1.3582,-1.4356,-1.5372,-1.5303,-1.3982,-1.1939,-0.9747,0.0,0.0,0.0,0.0,0.0,0.0,0.0,0.0,0.0,0.0,0.0,0.0,0.0,0.0,0.0,0.0,0.0,0.0,0.0,0.0,0.0,0.0,0.0,0.0,0.0,0.0,0.0,0.0,0.0,0.0,0.0,0.0,0.0,0.0,0.0,0.0,0.0,0.0,0.0,0.0,0.0,0.0,0.0,0.0,0.0,0.0,0.0,0.0,0.0,0.0,0.0,0.0,0.0,0.0,0.0,0.0,0.0,0.0,0.0,0.0,0.0,0.0,0.0,0.0,0.0,0.0,0.0,0.0,0.0,0.0,0.0,0.0,0.0,0.0,0.0,0.0,0.0,0.0,0.0,0.0,0.0,0.0,0.0,0.0,0.0,0.0,0.0,0.0,0.0,0.0,0.0,0.0,0.0,0.0,0.0,0.0,0.0,0.0,0.0,0.0,0.0,0.0,0.0,0.0,0.0,0.0,0.0,-1.3517,-1.4972,-1.6028,-1.6574,-1.6065,-1.4516,-1.2976,-1.0805,-0.7946,0.0,0.0,0.0,0.0,0.0,0.0,0.0,0.0,0.0,0.0,0.0,0.0,0.0,0.0,0.0,0.0,0.0,0.0,0.0,0.0,0.0,0.0,0.0,0.0,0.0,0.0,0.0,0.0,0.0,0.0,0.0,0.0,0.0,0.0,0.0,0.0,0.0,0.0,-0.4604,-0.5538,0.0,0.0,0.0,0.0,0.0,0.0,0.0,0.0,-0.538,0.0,0.0,0.0,0.0,0.0,0.0,0.0,0.0,0.0,0.0,0.0,0.0,0.0,0.0,0.0,0.0,0.0,0.0,0.0,0.0,0.0,0.0,0.0,0.0,0.0,0.0,0.0,0.0,0.0,0.0,0.0,0.0,0.0,0.0,0.0,0.0,0.0,0.0,0.0,0.0,0.0,0.0,0.0,0.0,0.0,0.0,0.0,0.0,0.0,0.0,0.0,0.0,0.0,0.0,0.0,0.0,-1.3331,-1.3648,-1.4744,-1.675,-1.6975,-1.6455,-1.5241,-1.3476,-1.1361,-0.8958,0.0,0.0,0.0,0.0,0.0,0.0,0.0,0.0,0.0,0.0,0.0,0.0,0.0,0.0,0.0,0.0,0.0,0.0,0.0,0.0,0.0,0.0,0.0,0.0,0.0,0.0,0.0,0.0,0.0,0.0,0.0,0.0,0.0,0.0,0.0,0.0,0.0,0.0,0.0,-0.703,-0.7682,0.0,0.0,0.0,0.0,0.0,0.0,0.0,0.0,-0.5436,0.0,0.0,0.0,0.0,0.0,0.0,0.0,0.0,0.0,0.0,0.0,0.0,0.0,0.0,0.0,0.0,0.0,0.0,0.0,0.0,0.0,0.0,0.0,0.0,0.0,0.0,0.0,0.0,0.0,0.0,0.0,0.0,0.0,0.0,0.0,0.0,0.0,0.0,0.0,0.0,0.0,0.0,0.0,0.0,0.0,0.0,0.0,0.0,0.0,0.0,0.0,0.0,0.0,0.0,0.0,-1.3759,-1.505,-1.6324,-1.7631,-1.7725,-1.6995,-1.542,-1.3415,-1.1308,0.0,0.0,0.0,0.0,0.0,0.0,0.0,0.0,0.0,0.0,0.0,0.0,0.0,0.0,0.0,0.0,0.0,0.0,0.0,0.0,0.0,0.0,0.0,0.0,0.0,0.0,0.0,0.0,0.0,0.0,0.0,0.0,0.0,0.0,0.0,0.0,0.0,0.0,0.0,0.0,-0.8035,-0.8643,-0.8873,0.0,0.0,0.0,0.0,0.0,0.0,-0.6356,-0.5939,0.0,0.0,0.0,0.0,0.0,0.0,0.0,0.0,0.0,0.0,0.0,0.0,0.0,0.0,0.0,0.0,0.0,0.0,0.0,0.0,0.0,0.0,0.0,0.0,0.0,0.0,0.0,0.0,0.0,0.0,0.0,0.0,0.0,0.0,0.0,0.0,0.0,0.0,0.0,0.0,0.0,0.0,0.0,0.0,0.0,0.0,0.0,0.0,0.0,0.0,0.0,0.0,0.0,0.0,0.0,-1.389,-1.6084,-1.7617,-1.8313,-1.8344,-1.7422,-1.5531,-1.3521,-1.1447,0.0,0.0,0.0,0.0,0.0,0.0,0.0,0.0,0.0,0.0,0.0,0.0,0.0,0.0,0.0,0.0,0.0,0.0,0.0,0.0,0.0,0.0,0.0,0.0,0.0,0.0,0.0,0.0,0.0,0.0,0.0,0.0,0.0,0.0,0.0,0.0,0.0,0.0,0.0,0.0,0.0,-0.9761,-0.9998,-0.9512,0.0,0.0,0.0,0.0,-0.7518,-0.7169,0.0,0.0,0.0,0.0,0.0,0.0,0.0,0.0,0.0,0.0,0.0,0.0,0.0,0.0,0.0,0.0,0.0,0.0,0.0,0.0,0.0,0.0,0.0,0.0,0.0,0.0,0.0,0.0,0.0,0.0,0.0,0.0,0.0,0.0,0.0,0.0,0.0,0.0,0.0,0.0,0.0,0.0,0.0,0.0,0.0,0.0,0.0,0.0,0.0,0.0,0.0,0.0,0.0,0.0,0.0,0.0,-1.3765,-1.5246,-1.6809,-1.8359,-1.8461,-1.7605,-1.5808,-1.4405,-1.2313,0.0,0.0,0.0,0.0,0.0,0.0,0.0,0.0,0.0,0.0,0.0,0.0,0.0,0.0,0.0,0.0,0.0,0.0,0.0,0.0,0.0,0.0,0.0,0.0,0.0,0.0,0.0,0.0,0.0,0.0,0.0,0.0,0.0,0.0,0.0,0.0,0.0,0.0,0.0,0.0,0.0,-1.1719,-1.0971,-1.072,-1.0489,0.0,0.0,-0.9218,-0.8831,-0.8529,0.0,0.0,0.0,0.0,0.0,0.0,0.0,0.0,0.0,0.0,0.0,0.0,0.0,0.0,0.0,0.0,0.0,0.0,0.0,0.0,0.0,0.0,0.0,0.0,0.0,0.0,0.0,0.0,0.0,0.0,0.0,0.0,0.0,0.0,0.0,0.0,0.0,0.0,0.0,0.0,0.0,0.0,0.0,0.0,0.0,0.0,0.0,0.0,0.0,0.0,0.0,0.0,0.0,0.0,0.0,-1.1994,-1.3908,-1.5873,-1.7512,-1.8774,-1.8616,-1.7684,-1.6015,-1.4288,-1.2119,0.0,0.0,0.0,0.0,0.0,0.0,0.0,0.0,0.0,0.0,0.0,0.0,0.0,0.0,0.0,0.0,0.0,0.0,0.0,0.0,0.0,0.0,0.0,0.0,0.0,0.0,0.0,0.0,0.0,0.0,0.0,0.0,0.0,0.0,0.0,0.0,0.0,0.0,0.0,0.0,0.0,0.0,-1.2377,-1.2088,0.0,0.0,0.0,-1.0523,-1.0392,0.0,0.0,0.0,0.0,0.0,0.0,0.0,0.0,0.0,0.0,0.0,0.0,0.0,0.0,0.0,0.0,0.0,0.0,0.0,0.0,0.0,0.0,0.0,0.0,0.0,0.0,0.0,0.0,0.0,0.0,0.0,0.0,0.0,0.0,0.0,0.0,0.0,0.0,0.0,0.0,0.0,0.0,0.0,0.0,0.0,0.0,0.0,0.0,0.0,0.0,0.0,0.0,0.0,0.0,0.0,0.0,0.0,-1.4007,-1.6488,-1.8221,-1.908,-1.8731,-1.7791,-1.6251,-1.446,0.0,0.0,0.0,0.0,0.0,0.0,0.0,0.0,0.0,0.0,0.0,0.0,0.0,0.0,0.0,0.0,0.0,0.0,0.0,0.0,0.0,0.0,0.0,0.0,0.0,0.0,0.0,-0.428,0.0,0.0,0.0,0.0,0.0,0.0,0.0,0.0,0.0,0.0,0.0,0.0,0.0,0.0,-1.3455,-1.3684,-1.346,-1.313,0.0,0.0,-1.1917,-1.1591,-1.0889,-1.005,0.0,0.0,0.0,0.0,0.0,0.0,0.0,0.0,0.0,0.0,0.0,0.0,0.0,0.0,0.0,0.0,0.0,0.0,0.0,0.0,0.0,0.0,0.0,0.0,0.0,0.0,0.0,0.0,0.0,0.0,0.0,0.0,0.0,0.0,0.0,0.0,0.0,0.0,0.0,0.0,0.0,0.0,0.0,0.0,0.0,0.0,0.0,0.0,0.0,0.0,0.0,0.0,0.0,0.0,0.0,-1.4022,-1.6621,-1.8375,-1.9148,-1.8784,-1.7913,-1.6493,-1.5492,-1.3353,0.0,0.0,0.0,0.0,0.0,0.0,0.0,0.0,0.0,0.0,0.0,0.0,0.0,0.0,0.0,0.0,0.0,0.0,0.0,0.0,0.0,0.0,0.0,0.0,0.0,0.0,0.0,0.0,0.0,0.0,0.0,0.0,0.0,0.0,0.0,0.0,0.0,0.0,0.0,0.0,0.0,-1.4585,-1.4629,-1.4792,-1.4733,0.0,0.0,-1.3518,-1.207,-1.2018,-1.1499,-0.9627,0.0,0.0,0.0,0.0,0.0,0.0,0.0,0.0,0.0,0.0,0.0,0.0,0.0,0.0,0.0,0.0,0.0,0.0,0.0,0.0,0.0,0.0,0.0,0.0,0.0,0.0,0.0,0.0,0.0,0.0,0.0,0.0,0.0,0.0,0.0,0.0,0.0,0.0,0.0,0.0,0.0,0.0,0.0,0.0,0.0,0.0,0.0,0.0,0.0,0.0,0.0,0.0,0.0,-1.2227,-1.2758,-1.6203,-1.8522,-1.9573,-1.9188,-1.8204,-1.6669,-1.5875,-1.39,0.0,0.0,0.0,0.0,0.0,0.0,0.0,0.0,0.0,0.0,0.0,0.0,0.0,0.0,0.0,0.0,0.0,0.0,0.0,0.0,0.0,0.0,0.0,0.0,0.0,0.0,0.0,0.0,-0.5395,-0.5395,-0.5395,0.0,0.0,0.0,0.0,0.0,0.0,0.0,0.0,0.0,0.0,-1.5441,-1.5599,-1.5753,0.0,0.0,-1.4676,-1.4348,-1.3726,-1.2942,-1.2098,-1.1158,-1.0311,0.0,0.0,0.0,0.0,0.0,0.0,0.0,0.0,0.0,0.0,0.0,0.0,0.0,0.0,0.0,0.0,0.0,0.0,0.0,0.0,0.0,0.0,0.0,0.0,0.0,0.0,0.0,0.0,0.0,0.0,0.0,0.0,0.0,0.0,0.0,0.0,0.0,0.0,0.0,0.0,0.0,0.0,0.0,0.0,0.0,0.0,0.0,0.0,0.0,0.0,0.0,0.0,-1.2022,-1.2015,-1.5994,-1.8703,-1.9985,-1.9512,-1.8535,-1.7075,-1.6227,-1.443,0.0,0.0,0.0,0.0,0.0,0.0,0.0,0.0,0.0,0.0,0.0,0.0,0.0,0.0,0.0,0.0,0.0,0.0,0.0,0.0,0.0,0.0,0.0,0.0,0.0,0.0,0.0,0.0,-0.5583,-0.5555,-0.5508,0.0,0.0,0.0,0.0,0.0,0.0,0.0,0.0,0.0,0.0,-1.6303,-1.6704,-1.6866,-1.6744,-1.6031,-1.5586,-1.5148,-1.4754,-1.3689,-1.2731,-1.2183,0.0,0.0,0.0,0.0,0.0,0.0,0.0,0.0,0.0,0.0,0.0,0.0,0.0,0.0,0.0,0.0,0.0,0.0,0.0,0.0,0.0,0.0,0.0,0.0,0.0,0.0,0.0,-0.5366,0.0,0.0,-0.5598,0.0,0.0,0.0,0.0,0.0,0.0,0.0,0.0,0.0,0.0,0.0,0.0,0.0,0.0,0.0,0.0,0.0,0.0,0.0,0.0,0.0,0.0,-1.2214,-1.2258,-1.6169,-1.8866,-2.0196,-1.9705,-1.8848,-1.7693,-1.6642,-1.5006,-1.2688,0.0,0.0,0.0,0.0,0.0,0.0,0.0,0.0,0.0,0.0,0.0,0.0,0.0,0.0,0.0,0.0,0.0,0.0,0.0,0.0,0.0,0.0,0.0,0.0,0.0,0.0,-0.5961,-0.5988,-0.5918,0.0,0.0,0.0,0.0,0.0,0.0,0.0,0.0,0.0,0.0,-1.6148,-1.7209,-1.7853,-1.8286,-1.8263,-1.7688,-1.6968,-1.6029,-1.4807,-1.419,-1.3516,0.0,0.0,0.0,0.0,0.0,0.0,0.0,0.0,0.0,0.0,0.0,0.0,0.0,0.0,0.0,0.0,0.0,0.0,0.0,0.0,0.0,0.0,0.0,0.0,0.0,0.0,0.0,-0.7136,-0.6824,0.0,0.0,0.0,0.0,0.0,0.0,0.0,0.0,0.0,0.0,0.0,-1.3103,-1.4171,0.0,0.0,0.0,0.0,0.0,0.0,0.0,0.0,0.0,0.0,0.0,0.0,-1.2792,-1.405,-1.6751,-1.8803,-1.9997,-1.9884,-1.9236,-1.8046,-1.7022,-1.511,-1.2198,0.0,0.0,0.0,0.0,0.0,0.0,0.0,0.0,0.0,0.0,0.0,0.0,0.0,0.0,0.0,0.0,0.0,0.0,0.0,0.0,0.0,0.0,0.0,0.0,0.0,-0.6122,0.0,0.0,0.0,0.0,0.0,0.0,0.0,0.0,0.0,0.0,0.0,-1.4683,-1.6033,-1.7046,-1.784,-1.8322,-1.8599,-1.8479,0.0,0.0,0.0,0.0,0.0,0.0,0.0,0.0,0.0,0.0,0.0,0.0,0.0,0.0,-1.3007,-1.0612,-0.977,-0.9499,-0.9665,0.0,0.0,0.0,0.0,0.0,0.0,0.0,0.0,0.0,0.0,0.0,0.0,0.0,0.0,-0.8775,-0.8669,-0.8791,0.0,0.0,0.0,0.0,0.0,0.0,0.0,0.0,-1.4252,-1.5196,-1.5625,-1.6637,-1.6921,0.0,-1.6399,-1.4999,0.0,0.0,0.0,0.0,0.0,0.0,0.0,0.0,-1.354,-1.4864,-1.7257,-1.8968,-1.9849,-1.9922,-1.948,-1.856,-1.7206,-1.5174,-1.2346,-1.0906,-0.9562,0.0,0.0,0.0,0.0,0.0,0.0,0.0,0.0,0.0,0.0,0.0,0.0,0.0,0.0,0.0,0.0,0.0,0.0,0.0,0.0,0.0,0.0,0.0,-0.6286,0.0,0.0,0.0,0.0,0.0,0.0,0.0,0.0,0.0,-1.4758,-1.5241,-1.6009,-1.7322,-1.7894,-1.8386,-1.8868,0.0,0.0,0.0,0.0,0.0,0.0,0.0,-1.5304,-1.4849,-1.4402,-1.4157,-1.4298,-1.4854,-1.5258,-1.512,0.0,0.0,-1.2602,-1.1764,-1.1481,-1.1639,-1.1903,-1.1849,-1.1239,-1.1964,-1.2539,0.0,0.0,0.0,0.0,0.0,0.0,0.0,0.0,-1.0134,-1.0451,0.0,-1.092,0.0,0.0,0.0,0.0,-1.2358,-1.4753,0.0,0.0,-1.8047,-1.8849,-1.8306,-1.8933,-1.9258,-1.9307,-1.9881,-1.9006,-1.6709,-1.3858,0.0,0.0,0.0,0.0,0.0,0.0,-1.445,-1.4943,-1.7666,-1.9345,-1.9879,-1.9833,-1.9606,-1.9119,-1.7202,-1.5236,-1.3251,-1.218,-1.0883,-0.9263,-0.7599,0.0,0.0,0.0,0.0,0.0,0.0,0.0,0.0,0.0,0.0,0.0,0.0,0.0,0.0,0.0,0.0,0.0,0.0,0.0,0.0,-0.6435,0.0,0.0,0.0,0.0,0.0,0.0,0.0,0.0,0.0,0.0,-1.6289,-1.6782,-1.7468,-1.8617,0.0,0.0,0.0,0.0,-1.9036,-1.9495,-1.8953,-1.8514,-1.8714,-1.8216,-1.7471,-1.6578,0.0,0.0,-1.5327,-1.5469,-1.5625,-1.5239,-1.5515,-1.5716,-1.5689,-1.4831,-1.4266,-1.4244,-1.3813,-1.3444,-1.3397,-1.3749,-1.4143,-1.3486,0.0,0.0,0.0,0.0,-1.2912,-1.3386,-1.4039,-1.393,-1.3736,-1.3506,-1.3506,0.0,0.0,0.0,0.0,0.0,0.0,-1.6616,-1.7529,-1.8659,-1.9372,-1.9713,-2.0382,-2.0707,-2.0675,-2.0431,-1.9949,-1.9214,-1.7634,-1.5161,-1.1969,0.0,0.0,0.0,0.0,-1.6194,-1.7332,-1.8496,-1.9326,-1.9833,-1.9797,-1.9379,-1.8516,-1.7438,-1.6194,-1.4697,-1.329,-1.2045,-1.0995,-0.9466,0.0,0.0,0.0,0.0,0.0,0.0,0.0,0.0,0.0,0.0,0.0,0.0,0.0,0.0,0.0,0.0,0.0,0.0,0.0,-0.7202,-0.7071,-0.7407,0.0,0.0,0.0,0.0,0.0,0.0,0.0,0.0,0.0,-1.7525,-1.783,-1.8151,0.0,0.0,-1.9481,-1.9411,-1.9592,-1.9735,-1.9802,-1.9611,0.0,-1.8803,-1.8331,-1.7881,-1.748,-1.7309,-1.6925,-1.6113,-1.6294,-1.6523,-1.6395,-1.6468,-1.656,-1.6514,-1.5884,-1.5336,-1.5318,-1.5569,-1.553,-1.4862,-1.5554,-1.6212,-1.7379,-1.6237,-1.512,-1.4818,-1.5125,-1.5448,-1.5804,-1.6182,-1.627,-1.6118,-1.5836,-1.5903,-1.5655,-1.5302,-1.5539,0.0,0.0,0.0,-1.8713,-1.9646,-2.0188,-2.0662,-2.111,-2.1493,-2.1691,-2.169,-2.1294,-2.1021,-2.0903,-2.0236,-1.8205,-1.489,0.0,0.0,-1.5034,-1.6323,-1.7546,-1.8592,-1.9168,-1.9563,-1.9747,-1.9762,-1.934,-1.8411,-1.761,-1.6702,-1.5688,-1.4173,-1.2988,-1.2195,-1.0965,-0.9292,0.0,0.0,0.0,0.0,0.0,0.0,0.0,0.0,0.0,0.0,0.0,-0.5624,0.0,0.0,0.0,0.0,-0.7917,-0.8807,-0.8566,-0.8709,0.0,0.0,0.0,0.0,0.0,0.0,0.0,-1.4614,-1.6514,-1.799,-1.8472,-1.8992,-1.933,-1.9415,-1.9738,-1.996,-1.9941,0.0,-2.0252,-2.0405,-2.0352,-2.0201,-1.9908,-1.9572,-1.9108,-1.8386,-1.7926,-1.7388,-1.6696,-1.6762,-1.6899,-1.6908,-1.6908,-1.6954,-1.711,-1.6734,-1.6404,-1.6413,-1.6857,-1.6956,-1.628,-1.6974,-1.74,-2.0813,-2.0878,-1.8177,-1.7014,-1.7029,-1.7868,-1.7839,-1.727,-1.7598,-1.7838,-1.7946,-1.8068,-1.8189,-1.8269,-1.8654,0.0,-1.946,-2.0726,-2.1463,-2.184,-2.2166,-2.2313,-2.2313,-2.2296,-2.2313,-2.2313,-2.2313,-2.2152,-2.184,-2.1796,-2.0837,-1.8969,-1.8015,-1.7437,-1.7331,-1.7992,-1.8587,-1.9063,-1.9669,-1.9902,-1.9708,-1.9723,-1.9408,-1.879,-1.7789,-1.693,-1.6268,-1.4927,-1.3829,-1.3019,-1.2167,-1.1047,-0.9709,0.0,0.0,0.0,0.0,0.0,0.0,0.0,0.0,0.0,0.0,0.0,0.0,0.0,0.0,0.0,-0.9942,0.0,-1.0431,-1.1005,0.0,0.0,0.0,-1.2986,-1.4317,-1.506,-1.5441,-1.5406,0.0,0.0,-1.9212,-2.0072,-2.0672,-2.0726,-2.0427,-2.0334,-2.0786,-2.0612,-2.0623,-2.108,-2.1007,-2.1092,-2.1342,-2.1212,-2.0565,-1.9313,-1.8566,-1.7983,-1.7276,-1.7028,-1.7003,-1.7038,-1.6996,-1.7055,-1.7422,-1.7495,-1.7596,-1.7542,-1.7724,-1.7839,-1.7689,-1.7782,-1.7839,-2.1182,-2.1196,-2.0494,-2.0099,-1.9972,-2.0146,-2.0112,-1.9949,-1.9998,-2.0041,-2.0064,-2.0148,-2.027,-2.0384,-2.0744,-2.0997,-2.1209,-2.1785,-2.2099,-2.2194,-2.2268,-2.2313,-2.2313,-2.2313,-2.2313,-2.2313,-2.2313,-2.2268,-2.2166,-2.1932,-2.1554,-2.1046,-2.055,-1.9545,-1.8069,-1.9028,-1.963,-1.9763,-1.9826,-1.9797,-1.9708,-1.9723,-1.9615,-1.9468,-1.8244,-1.7381,-1.6957,-1.5709,-1.4696,-1.3992,-1.2889,-1.2417,-1.2695,-0.9916,0.0,0.0,0.0,0.0,0.0,0.0,0.0,0.0,0.0,-0.9006,-0.7653,0.0,-0.9667,0.0,-1.0795,-1.3053,-1.232,-1.2676,0.0,0.0,-1.5211,-1.5957,-1.7441,-1.8118,-1.8356,-1.8178,-1.9511,-2.0335,-1.9996,-2.06,-2.108,-2.108,-2.1008,-2.0834,-2.0592,-2.0819,-2.1055,-2.1159,-2.1151,-2.1189,-2.1293,-2.1253,-2.086,-2.0009,-1.9694,-1.9375,-1.861,-1.807,-1.774,-1.7725,-1.7497,-1.7412,-1.7504,-1.7981,-1.8309,-1.825,-1.8208,-1.8165,-1.7896,-1.804,-1.8183,-2.1616,-2.1736,-2.1751,-2.1691,-2.1554,-2.1402,-2.1182,-2.0991,-2.1182,-2.1135,-2.0942,-2.1198,-2.1323,-2.135,-2.1733,-2.1959,-2.2034,-2.2209,-2.2313,-2.2313,-2.2313,-2.2313,-2.2313,-2.2313,-2.2313,-2.2313,-2.2313,-2.2313,-2.2296,-2.2123,-2.193,-2.1797,-2.1538,-2.0825,-1.9673,-2.0269,-2.0461,-2.0222,-1.9922,-1.9744,-1.9723,-1.9723,-1.9573,-1.9273,-1.8553,-1.7781,-1.6993,-1.6177,-1.5292,-1.4341,-1.3406,-1.2932,-1.2954,-1.0952,-0.9369,0.0,0.0,0.0,0.0,0.0,0.0,0.0,0.0,0.0,0.0,0.0,-1.2393,-1.0638,-1.3879,-1.5649,-1.4563,-1.5183,-1.6099,-1.7085,-1.7524,-1.8175,-1.9196,-1.9826,-2.0276,-2.0424,-2.0841,-2.108,-2.1052,-2.1136,-2.1201,-2.1201,-2.1201,-2.1118,-2.0919,-2.1186,-2.1434,-2.1423,-2.1348,-2.1253,-2.1221,-2.1201,-2.0955,-2.0258,-2.0096,-1.9835,-1.9133,-1.8442,-1.8061,-1.8198,-1.7835,-1.7633,-1.7972,-1.8262,-1.8529,-1.8563,-1.8451,-1.8324,-1.8136,-1.8174,-1.8161,-2.2034,-2.2296,-2.2313,-2.2313,-2.2282,-2.1991,-2.163,-2.1275,-2.166,-2.1615,-2.1259,-2.166,-2.1792,-2.1742,-2.2101,-2.2313,-2.2313,-2.2313,-2.2313,-2.2313,-2.2313,-2.2313,-2.2313,-2.2313,-2.2313,-2.2313,-2.2313,-2.2313,-2.2313,-2.2282,-2.212,-2.1871,-2.1735,-2.1583,-2.1432,-2.1401,-2.1055,-2.0413,-1.9945,-1.9726,-1.9723,-1.9723,-1.9423,-1.8852,-1.8672,-1.8027,-1.689,-1.6523,-1.5795,-1.4631,-1.3978,-1.3159,-1.2076,-1.1543,-1.111,0.0,-1.0101,0.0,0.0,0.0,0.0,0.0,0.0,0.0,0.0,-1.4272,-1.4673,-1.5071,-1.74,-1.8296,-1.6859,-1.7839,-1.8719,-1.9089,-1.9496,-1.9922,-2.0347,-2.0991,-2.159,-2.215,-2.167,-2.1499,-2.1832,-2.1514,-2.1201,-2.1201,-2.1201,-2.121,-2.1336,-2.1474,-2.1561,-2.1635,-2.1486,-2.1316,-2.1221,-2.1201,-2.0987,-2.0399,-2.0302,-2.0042,-1.9474,-1.8728,-1.8345,-1.8595,-1.8171,-1.7908,-1.8566,-1.8559,-1.8506,-1.8612,-1.8496,-1.8367,-1.8287,-1.8135,-1.804,-2.2254,-2.2313,-2.2313,-2.2313,-2.2296,-2.2223,-2.2123,-2.1991,-2.1972,-2.1972,-2.1991,-2.208,-2.2137,-2.2178,-2.2268,-2.2313,-2.2313,-2.2313,-2.2313,-2.2313,-2.2313,-2.2313,-2.2313,-2.2313,-2.2313,-2.2313,-2.2313,-2.2313,-2.2313,-2.224,-2.2211,-2.2211,-2.2123,-2.2094,-2.2092,0.0,0.0,0.0,-1.9833,-1.9744,-1.9723,-1.9723,-1.9648,-1.9498,-1.8446,0.0,-1.7503,-1.6933,-1.6407,-1.594,-1.5341,0.0,0.0,0.0,0.0,0.0,0.0,0.0,0.0,0.0,0.0,0.0,-1.3803,-1.3721,-1.3831,-1.4714,-1.5521,-1.6101,-1.7813,-1.878,-1.8493,-1.91,-1.9753,-2.0308,-2.0809,-2.151,-2.2446,-2.27,-2.2837,-2.2891,-2.2565,-2.2054,-2.1522,-2.1253,-2.1201,-2.1224,-2.1201,-2.1221,-2.1288,-2.1319,-2.1285,-2.1296,-2.1285,-2.1221,-2.1201,-2.1201,-2.1169,-2.0999,-2.0999,-2.0903,-2.0735,-1.9947,-1.9308,-1.9412,-1.8889,-1.8457,-1.8484,-1.8668,-1.8775,-1.8505,-1.8442,-1.8322,-1.8112,-1.8031,-1.7991,-2.2313,-2.2313,-2.2313,-2.2313,0.0,-2.2313,-2.2282,-2.224,-2.2178,-2.2476,-2.2972,-2.2844,-2.3156,-2.3718,-2.3473,-2.3376,-2.3393,-2.3376,-2.319,-2.2852,-2.2835,-2.2649,-2.2313,-2.2313,-2.2313,-2.2313,-2.2313,-2.2313,-2.2313,-2.2285,-2.2285,-2.2313,-2.2254,-2.2254,-2.2282,-2.1751,-2.1023,-2.0154,-1.9889,-1.9741,-1.9723,-1.9723,-1.9558,-1.9228,-1.8882,0.0,0.0,0.0,0.0,0.0,0.0,0.0,0.0,0.0,0.0,-1.4572,-1.3817,-1.332,-1.3346,-1.3883,-1.4563,-1.5427,-1.5741,-1.5644,-1.5108,-1.5853,-1.6584,-1.7212,-1.878,-1.9679,-1.9407,-2.0139,-2.0767,-2.108,-2.1838,-2.2609,-2.3104,-2.3456,-2.3628,-2.3522,-2.3022,-2.239,-2.197,-2.1463,-2.1305,-2.1491,-2.1537,-2.1629,-2.1845,-2.15,-2.1201,-2.1201,-2.1201,-2.1201,-2.1201,-2.1201,-2.1316,-2.1456,-2.1537,-2.1652,-2.1903,-2.1183,-2.054,-2.0312,-1.9757,-1.9193,-1.8795,-1.8806,-1.8772,-1.8482,-1.8282,-1.8161,-1.8031,-1.7991,-1.7991,-2.2313,-2.2313,-2.2313,-2.2313,-2.2313,-2.2431,-2.2581,-2.2682,-2.2564,0.0,0.0,-2.3625,-2.413,-2.5036,-2.4672,-2.4508,-2.4508,-2.4508,-2.4186,-2.3611,-2.3596,-2.3274,-2.2685,-2.2564,-2.2499,-2.2496,-2.2378,-2.2296,-2.2282,-2.2251,-2.2268,-2.2268,-2.2251,-2.2178,-2.2049,-2.1353,-2.0797,-2.0379,-1.9927,-1.9726,-1.9723,-1.9723,-1.942,-1.8897,-1.9303,-1.9001,-1.7938,-1.8418,-1.8192,-1.713,-1.6898,-1.6171,-1.4827,-1.5239,-1.554,-1.5595,-1.5636,-1.5662,-1.5657,-1.5748,-1.5996,-1.6506,-1.6937,-1.7068,-1.6702,-1.7016,-1.7525,-1.8336,-1.981,-2.0517,-2.0152,-2.0923,-2.1577,-2.1786,-2.2621,-2.3208,-2.338,-2.3799,-2.3998,-2.3806,-2.307,-2.2549,-2.2394,-2.1816,-2.1491,-2.1927,-2.2032,-2.2146,-2.2467,-2.2017,-2.1569,-2.1569,-2.1535,-2.142,-2.1466,-2.1443,-2.1581,-2.1973,-2.2053,-2.2214,-2.2445,-2.2147,-2.1599,-2.112,-2.0484,-1.9765,-1.918,-1.8834,-1.8563,-1.8362,-1.8152,-1.7991,-1.7991,-1.7991,-1.7991,-2.2313,-2.2313,-2.2313,-2.2313,-2.2361,-2.2987,-2.3596,-2.4135,-2.3511,-2.334,-2.3492,-2.4085,-2.4438,-2.4589,-2.454,-2.4508,-2.4508,-2.4508,-2.4455,-2.4338,-2.4355,-2.4288,-2.4152,-2.3528,-2.3241,-2.3207,-2.2598,-2.2268,-2.2197,-2.2104,-2.2104,-2.2197,-2.2104,-2.1792,-2.1275,-2.0813,-2.0345,-1.9904,-1.9833,-1.9762,-1.9708,-1.9723,-1.9663,-1.9558,-1.9091,-1.876,-1.8565,-1.8657,-1.8595,-1.8431,-1.8399,-1.8315,-1.8155,-1.7061,-1.6304,-1.606,-1.6173,-1.6271,-1.6291,-1.6702,-1.7003,-1.7081,-1.716,-1.7382,-1.78,-1.7447,-1.7839,-1.9381,-2.0281,-2.0857,-2.1172,-2.1433,-2.1943,-2.2779,-2.3078,-2.342,-2.3861,-2.4018,-2.3793,-2.301,-2.2695,-2.2454,-2.2128,-2.1899,-2.2007,-2.2432,-2.2627,-2.2639,-2.2708,-2.257,-2.2512,-2.2466,-2.2247,-2.2213,-2.2293,-2.2224,-2.2224,-2.2546,-2.257,-2.2616,-2.2811,-2.2506,-2.2063,-2.1596,-2.081,-2.0014,-1.9332,-1.8785,-1.8393,-1.8152,-1.804,-1.7991,-1.7991,-1.8,-1.7991,-2.3122,-2.346,-2.3494,-2.3477,-2.3511,-2.3635,-2.3985,-2.446,-2.4356,-2.4389,-2.4595,-2.4966,-2.532,-2.5675,-2.5692,-2.5709,-2.5692,-2.5692,-2.5489,-2.5101,-2.5084,-2.488,-2.4491,-2.4152,-2.3782,-2.3393,-2.3071,-2.2671,-2.2288,-2.2192,-2.2178,-2.2225,-2.1943,-2.1536,-2.1039,-2.06,-2.0174,-1.9762,-1.9744,-1.9726,-1.9708,-1.9723,-1.9723,-1.969,-1.9393,-1.9241,-1.9226,-1.9226,-1.9241,-1.9241,-1.9243,-1.9269,-1.9303,-1.8393,-1.7646,-1.7167,-1.6936,-1.6833,-1.682,-1.7055,-1.7342,-1.7656,-1.7695,-1.8074,-1.8963,-1.8466,-1.8597,-1.9734,-2.0883,-2.1577,-2.1551,-2.2034,-2.2648,-2.313,-2.3456,-2.3796,-2.406,-2.4125,-2.3806,-2.318,-2.3053,-2.2856,-2.2371,-2.2334,-2.2524,-2.3006,-2.3293,-2.3488,-2.3512,-2.3488,-2.3293,-2.2834,-2.2581,-2.2558,-2.2662,-2.2592,-2.2639,-2.3018,-2.3087,-2.3213,-2.342,-2.3349,-2.279,-2.1781,-2.108,-2.0304,-1.9183,-1.8594,-1.8313,-1.8072,-1.7991,-1.7991,-1.8,-1.7838,-1.7757,-2.3921,-2.4382,-2.4477,-2.4592,-2.4713,-2.4394,-2.4559,-2.5002,-2.528,-2.5564,-2.5813,-2.5846,-2.6167,-2.6674,-2.6708,-2.6691,-2.6708,-2.6708,-2.637,-2.5863,-2.5845,-2.5541,-2.5015,-2.4846,-2.4441,-2.387,-2.3564,-2.3045,-2.2495,-2.2293,-2.218,-2.208,-2.1705,-2.1275,-2.083,-2.0414,-2.0035,-1.9726,-1.9723,-1.9723,-1.9723,-1.9723,-1.9723,-1.9723,-1.9708,-1.9723,-1.9723,-1.9723,-1.9723,-1.9723,-1.9723,-1.9657,-1.9563,-1.9157,-1.863,-1.7988,-1.7475,-1.7212,-1.7212,-1.7342,-1.7604,-1.8048,-1.8205,-1.8715,-1.9616,-1.9251,-1.9211,-2.0022,-2.1459,-2.2179,-2.193,-2.2583,-2.3263,-2.3391,-2.3796,-2.4086,-2.4112,-2.4125,-2.3878,-2.3351,-2.3337,-2.3235,-2.287,-2.2817,-2.3041,-2.3534,-2.3959,-2.4177,-2.4189,-2.4189,-2.3821,-2.3316,-2.3018,-2.3098,-2.3064,-2.3087,-2.3224,-2.3545,-2.3579,-2.3752,-2.4003,-2.4082,-2.3423,-2.1979,-2.1334,-2.0479,-1.8944,-1.8393,-1.8233,-1.8031,-1.7991,-1.7991,-1.7991,-1.7676,-1.7514,-2.4221,-2.4031,-2.4402,-2.4881,-2.5457,-2.5426,-2.5796,-2.6387,-2.6505,-2.6539,-2.6488,-2.6573,-2.6607,-2.6691,-2.6708,-2.6708,-2.6708,-2.6708,-2.664,-2.6573,-2.6607,-2.6556,-2.6353,-2.5795,-2.5425,-2.5107,-2.3996,-2.3263,-2.2907,-2.2243,-2.1796,-2.1494,-2.1244,-2.0878,-2.0399,-2.0032,-1.9815,-1.9723,-1.9723,-1.9723,-1.9723,-1.9723,-1.9723,-1.9723,-1.9723,-1.9723,-1.9723,-1.9723,-1.9723,-1.9723,-1.9723,-1.953,-1.9213,-1.9007,-1.8577,-1.7882,-1.7434,-1.7212,-1.7238,-1.7708,-1.8035,-1.8127,-1.8584,-1.9107,-1.9721,-1.929,-1.9381,-2.0504,-2.1695,-2.2323,-2.2349,-2.2871,-2.3459,-2.3903,-2.4047,-2.4125,-2.4096,-2.4125,-2.3747,-2.2786,-2.3126,-2.3208,-2.2862,-2.3098,-2.3546,-2.3971,-2.4108,-2.4189,-2.4189,-2.4189,-2.4177,-2.4028,-2.4028,-2.3994,-2.3959,-2.4039,-2.3971,-2.4062,-2.4072,-2.4095,-2.4068,-2.3824,-2.3202,-2.1897,-2.1201,-2.0236,-1.9173,-1.8523,-1.8072,-1.8031,-1.7991,-1.7991,-1.7951,-1.7635,-1.7441,-2.4946,-2.5209,-2.538,-2.5748,-2.6201,-2.5983,-2.6184,-2.6607,-2.6383,-2.6417,-2.6589,-2.6623,-2.664,-2.664,-2.6674,-2.6708,-2.6708,-2.6708,-2.6708,-2.6708,-2.6708,-2.6708,-2.6657,-2.6404,-2.6015,-2.5561,-2.4905,-2.4117,-2.3138,-2.2159,-2.1584,-2.1385,-2.091,-2.0501,-2.028,-1.9927,-1.9726,-1.9708,-1.9723,-1.9723,-1.9723,-1.9723,-1.9723,-1.9723,-1.9723,-1.9723,-1.9723,-1.9723,-1.9723,-1.9723,-1.9723,-1.9512,-1.912,-1.9269,-1.8903,-1.7888,-1.7434,-1.7356,-1.7695,-1.7957,-1.8388,-1.9041,-1.9303,-1.9695,-2.0255,-2.0098,-2.0321,-2.108,-2.1917,-2.2506,-2.2844,-2.3365,-2.3835,-2.4044,-2.4125,-2.4125,-2.4125,-2.3848,-2.3492,-2.3164,-2.3256,-2.334,-2.3236,-2.3569,-2.3948,-2.4166,-2.4189,-2.4189,-2.4189,-2.4189,-2.4189,-2.4189,-2.4189,-2.4189,-2.4189,-2.4189,-2.4189,-2.4164,-2.397,-2.3849,-2.3776,-2.3519,-2.2793,-2.1431,-2.0807,-1.9924,-1.8585,-1.8313,-1.7991,-1.7991,-1.7991,-1.7951,-1.7716,-1.731,-1.6984,-2.536,-2.5784,-2.598,-2.6279,-2.6522,-2.635,-2.6383,-2.6555,-2.6277,-2.6329,-2.6537,-2.6606,-2.6623,-2.6606,-2.6674,-2.6708,-2.6708,-2.6708,-2.6708,-2.6674,-2.6607,-2.659,-2.6691,-2.6573,-2.632,-2.5898,-2.5596,-2.4673,-2.3207,-2.2268,-2.1596,-2.1198,-2.0599,-2.0246,-2.0106,-1.9836,-1.9723,-1.9723,-1.9723,-1.9723,-1.9723,-1.9723,-1.9723,-1.9723,-1.9723,-1.9723,-1.9723,-1.9723,-1.9723,-1.9723,-1.9584,-1.9402,-1.9139,-1.9273,-1.8846,-1.7794,-1.7544,-1.763,-1.8087,-1.8401,-1.8911,-1.9695,-1.993,-2.0205,-2.0594,-2.0699,-2.1014,-2.1694,-2.2413,-2.3027,-2.3156,-2.3744,-2.4099,-2.4125,-2.4125,-2.4067,-2.3907,-2.3582,-2.3364,-2.3245,-2.3275,-2.3461,-2.3617,-2.3948,-2.4177,-2.4189,-2.4189,-2.4189,-2.4189,-2.4189,-2.4189,-2.4189,-2.4189,-2.4189,-2.4189,-2.4189,-2.4189,-2.4007,-2.3776,-2.3593,-2.3446,-2.3075,-2.2371,-2.1163,-2.0663,-1.9855,-1.8536,-1.8072,-1.7991,-1.7991,-1.7991,-1.7829,-1.7554,-1.7066,-1.6615,-2.5262,-2.5082,-2.5764,-2.6104,-2.6157,-2.6487,-2.6624,-2.6606,-2.6537,-2.652,-2.652,-2.6571,-2.6606,-2.6606,-2.6657,-2.6691,-2.6674,-2.6691,-2.6674,-2.659,-2.6298,-2.6333,-2.6657,-2.6315,-2.6263,-2.6319,-2.5816,-2.4629,-2.2897,-2.2588,-2.1827,-2.0573,-2.039,-2.0135,-1.9863,-1.9741,-1.9723,-1.9723,-1.9723,-1.9723,-1.9723,-1.9723,-1.9723,-1.9723,-1.9723,-1.9723,-1.9723,-1.9723,-1.9723,-1.9723,-1.9347,-1.912,-1.9064,-1.8745,-1.8147,-1.7478,-1.7756,-1.8061,-1.827,-1.9081,-1.9721,-1.9891,-2.0321,-2.0673,-2.0764,-2.0725,-2.1171,-2.2244,-2.3276,-2.3717,-2.3406,-2.377,-2.4112,-2.4083,-2.4096,-2.3878,-2.3492,-2.3373,-2.32,-2.2975,-2.3223,-2.3616,-2.4041,-2.4177,-2.4189,-2.4189,-2.4189,-2.4189,-2.4189,-2.4189,-2.4189,-2.42,-2.42,-2.4189,-2.4189,-2.4116,-2.397,-2.3787,-2.3593,-2.3409,-2.3065,-2.258,-2.1718,-2.0894,-2.0362,-1.958,-1.8496,-1.7991,-1.7991,-1.7991,-1.791,-1.7757,-1.731,-1.6984,-1.6533,-2.504,-2.4962,-2.5484,-2.5854,-2.6122,-2.6263,-2.6383,-2.652,-2.6241,-2.6276,-2.6468,-2.652,-2.6589,-2.6641,-2.6419,-2.6315,-2.6333,-2.6573,-2.6436,-2.5998,-2.605,-2.605,-2.5908,-2.5781,-2.5762,-2.5855,-2.5837,-2.5173,-2.391,-2.2904,-2.2092,-2.1538,-2.0883,-2.0466,-2.0277,-1.9917,-1.9723,-1.9723,-1.9723,-1.9723,-1.9723,-1.9723,-1.9723,-1.9723,-1.9723,-1.9723,-1.9723,-1.9723,-1.9723,-1.969,-1.9325,-1.8974,-1.8688,-1.8048,-1.7897,-1.821,-1.8166,-1.8427,-1.9107,-1.9564,-1.9982,-2.0347,-2.0581,-2.0857,-2.108,-2.0949,-2.125,-2.2531,-2.355,-2.3926,-2.3874,-2.3965,-2.4112,-2.4054,-2.3848,-2.3611,-2.333,-2.2878,-2.2599,-2.3078,-2.3592,-2.3988,-2.4112,-2.4189,-2.4189,-2.4189,-2.4189,-2.4189,-2.4189,-2.4189,-2.4189,-2.4152,-2.397,-2.3813,-2.3824,-2.3824,-2.3714,-2.3482,-2.3261,-2.2927,-2.2553,-2.2241,-2.151,-2.0556,-1.9972,-1.9392,-1.8385,-1.7991,-1.7991,-1.7919,-1.7878,-1.7505,-1.7057,-1.6656,-1.6211,-2.4699,-2.4764,-2.5137,-2.5465,-2.5742,-2.5998,-2.619,-2.6311,-2.6169,-2.6258,-2.6485,-2.6502,-2.6572,-2.6607,-2.6264,-2.6033,-2.5944,-2.6192,-2.6016,-2.554,-2.5635,-2.5633,-2.5503,-2.537,-2.537,-2.5521,-2.5721,-2.5328,-2.4372,-2.3268,-2.2559,-2.2126,-2.1394,-2.106,-2.094,-2.0367,-2.0037,-2.0004,-1.9828,-1.9723,-1.9723,-1.9723,-1.9723,-1.9723,-1.9723,-1.9723,-1.9723,-1.9723,-1.9723,-1.9636,-1.9213,-1.8669,-1.8101,-1.7703,-1.7904,-1.8728,-1.8767,-1.8963,-1.9682,-1.9969,-2.0268,-2.0646,-2.0712,-2.0923,-2.1407,-2.1341,-2.1838,-2.2778,-2.3613,-2.4125,-2.4054,-2.3966,-2.3936,-2.3995,-2.3671,-2.333,-2.315,-2.2554,-2.2614,-2.3204,-2.3816,-2.4122,-2.4189,-2.4189,-2.4189,-2.4189,-2.4189,-2.4189,-2.4189,-2.4189,-2.4116,-2.4018,-2.3787,-2.3567,-2.3409,-2.3261,-2.3187,-2.2964,-2.2889,-2.2515,-2.2101,-2.1797,-2.1213,-2.0255,-1.955,-1.9006,-1.8545,-1.8112,-1.7919,-1.7838,-1.7635,-1.731,-1.682,-1.6327,-1.5963,-2.4323,-2.4385,-2.4759,-2.4962,-2.5102,-2.5744,-2.6049,-2.6064,-2.6328,-2.6468,-2.6571,-2.6537,-2.6589,-2.659,-2.6211,-2.5872,-2.5615,-2.5524,-2.5465,-2.5351,-2.5118,-2.5157,-2.537,-2.5059,-2.5082,-2.5408,-2.5465,-2.4938,-2.4062,-2.3755,-2.3204,-2.2386,-2.2011,-2.1798,-2.1803,-2.1105,-2.0688,-2.0524,-2.0064,-1.9783,-1.9723,-1.9723,-1.9723,-1.9723,-1.9723,-1.9723,-1.9723,-1.9723,-1.9705,-1.9599,-1.8955,-1.8108,-1.7534,-1.773,-1.8336,-1.8989,-1.946,-1.9747,-1.9878,-2.0334,-2.0607,-2.0699,-2.0699,-2.0962,-2.1564,-2.1995,-2.2467,-2.3039,-2.3639,-2.4096,-2.3936,-2.37,-2.3611,-2.3949,-2.3603,-2.3147,-2.2776,-2.2686,-2.2845,-2.3225,-2.3811,-2.4154,-2.4189,-2.4189,-2.4189,-2.4189,-2.4189,-2.4189,-2.42,-2.4164,-2.397,-2.374,-2.3446,-2.3224,-2.2964,-2.2703,-2.2553,-2.2402,-2.2402,-2.2214,-2.1749,-2.1367,-2.0779,-1.9874,-1.9015,-1.8465,-1.8144,-1.7749,-1.7554,-1.7432,-1.7278,-1.7033,-1.6582,-1.6087,-1.5839,-2.4281,-2.4343,-2.4739,-2.4902,-2.4962,-2.5465,-2.5813,-2.5992,-2.6117,-2.6312,-2.6555,-2.6589,-2.6623,-2.6521,-2.5998,-2.5633,-2.5465,-2.4962,-2.4679,-2.4704,-2.4823,-2.4803,-2.4679,-2.4553,-2.4699,-2.4962,-2.4739,-2.4601,-2.4441,-2.411,-2.3692,-2.3273,-2.2752,-2.2475,-2.2384,-2.1744,-2.1216,-2.0718,-2.0513,-2.0183,-1.9768,-1.9723,-1.9723,-1.9723,-1.9723,-1.9723,-1.9723,-1.9723,-1.9563,-1.9325,-1.8784,-1.8108,-1.7512,-1.7774,-1.8715,-1.9915,-1.9878,-2.0009,-2.0373,-2.0581,-2.0699,-2.0699,-2.0699,-2.1184,-2.1969,-2.2283,-2.282,-2.3537,-2.3952,-2.3894,-2.3263,-2.3288,-2.3445,-2.3624,-2.3201,-2.2892,-2.2803,-2.2977,-2.3143,-2.3271,-2.3775,-2.4143,-2.4189,-2.4189,-2.4189,-2.4189,-2.4189,-2.4189,-2.4164,-2.3982,-2.3787,-2.3593,-2.3213,-2.2804,-2.259,-2.2327,-2.2138,-2.1987,-2.1911,-2.1863,-2.1405,-2.0828,-2.0196,-1.945,-1.8545,-1.7991,-1.7676,-1.7432,-1.7229,-1.6943,-1.6697,-1.6451,-1.617,-1.588,-1.5639,-2.4114,-2.4141,-2.4395,-2.4482,-2.4563,-2.5044,-2.5481,-2.5795,-2.5956,-2.6225,-2.6572,-2.6606,-2.664,-2.6521,-2.5854,-2.5538,-2.5392,-2.4675,-2.4281,-2.4323,-2.4533,-2.4533,-2.4302,-2.4281,-2.4426,-2.4594,-2.4359,-2.4333,-2.4528,-2.4193,-2.3946,-2.3776,-2.3381,-2.3143,-2.305,-2.2418,-2.1799,-2.1356,-2.1152,-2.0635,-1.9953,-1.9934,-1.9944,-1.9753,-1.9723,-1.9723,-1.9723,-1.9753,-1.9564,-1.9132,-1.8756,-1.8153,-1.7387,-1.8166,-1.9329,-2.0268,-2.0412,-2.0321,-2.066,-2.0686,-2.0699,-2.0699,-2.0699,-2.1184,-2.2113,-2.2493,-2.3067,-2.3903,-2.3878,-2.3467,-2.2962,-2.275,-2.294,-2.3115,-2.2897,-2.2778,-2.2946,-2.3213,-2.3477,-2.3626,-2.3959,-2.4143,-2.4189,-2.4189,-2.4189,-2.4189,-2.4189,-2.408,-2.4007,-2.3787,-2.3556,-2.3261,-2.2804,-2.2478,-2.2225,-2.1997,-2.1721,-2.1568,-2.1454,-2.1328,-2.1059,-2.0284,-1.9578,-1.8705,-1.7829,-1.7546,-1.7229,-1.7017,-1.6812,-1.6492,-1.6211,-1.6087,-1.588,-1.568,-1.548,-2.376,-2.376,-2.3803,-2.3846,-2.3952,-2.4623,-2.5157,-2.5465,-2.5795,-2.619,-2.6539,-2.6555,-2.6555,-2.6453,-2.5817,-2.5484,-2.5329,-2.4675,-2.4281,-2.4281,-2.4343,-2.4323,-2.4281,-2.4281,-2.4323,-2.4338,-2.425,-2.4208,-2.4271,-2.4082,-2.3982,-2.3909,-2.3779,-2.3752,-2.3558,-2.3059,-2.2572,-2.2146,-2.1894,-2.1158,-2.0091,-2.0455,-2.0513,-1.9977,-1.9977,-1.9956,-1.9916,-1.9851,-1.9622,-1.918,-1.8886,-1.8328,-1.782,-1.8911,-1.9969,-2.0633,-2.0699,-2.066,-2.0686,-2.0699,-2.0699,-2.0699,-2.0817,-2.1197,-2.2218,-2.2577,-2.3,-2.3761,-2.3407,-2.2987,-2.2732,-2.2512,-2.2372,-2.2677,-2.2849,-2.2997,-2.3386,-2.3476,-2.3671,-2.4028,-2.4189,-2.4152,-2.408,-2.4043,-2.408,-2.4043,-2.4007,-2.3824,-2.3629,-2.3372,-2.3113,-2.2777,-2.244,-2.2214,-2.1997,-2.1645,-2.1377,-2.1175,-2.0867,-2.0479,-2.0313,-1.9578,-1.8913,-1.8031,-1.7376,-1.7082,-1.682,-1.6574,-1.6327,-1.6087,-1.5888,-1.5805,-1.574,-1.5582,-1.5628,-2.3414,-2.3451,-2.3711,-2.3818,-2.3909,-2.4583,-2.4962,-2.5102,-2.5465,-2.587,-2.6192,-2.6244,-2.6244,-2.6176,-2.5726,-2.5351,-2.502,-2.4533,-2.4281,-2.4281,-2.4281,-2.4281,-2.4281,-2.4281,-2.4281,-2.4297,-2.4229,-2.4202,-2.4202,-2.4024,-2.3961,-2.3861,-2.3818,-2.3739,-2.3614,-2.3437,-2.2984,-2.2444,-2.2431,-2.2199,-2.1679,-2.1425,-2.1365,-2.1235,-2.1126,-2.0902,-2.054,-1.9964,-1.9651,-1.9457,-1.9074,-1.8758,-1.858,-1.9342,-2.0087,-2.0556,-2.0699,-2.0699,-2.0699,-2.0699,-2.0699,-2.0751,-2.0989,-2.1616,-2.2322,-2.2296,-2.2645,-2.3069,-2.275,-2.2218,-2.1929,-2.2175,-2.2624,-2.3108,-2.3178,-2.3387,-2.3811,-2.4005,-2.4062,-2.4177,-2.4189,-2.3934,-2.3593,-2.3604,-2.3666,-2.3446,-2.3372,-2.3335,-2.3187,-2.2964,-2.2703,-2.2478,-2.2214,-2.1997,-2.1731,-2.1377,-2.1059,-2.0779,-2.0235,-1.942,-1.9103,-1.8585,-1.8031,-1.7432,-1.6957,-1.6651,-1.6299,-1.5978,-1.5771,-1.5821,-1.5742,-1.5767,-1.5865,-1.5826,-1.5957,-2.3061,-2.3083,-2.3436,-2.3603,-2.3689,-2.4354,-2.4739,-2.4922,-2.5141,-2.5484,-2.5781,-2.5854,-2.5854,-2.5783,-2.5427,-2.5121,-2.4879,-2.4472,-2.4302,-2.4281,-2.4281,-2.4281,-2.4281,-2.4281,-2.4297,-2.425,-2.4166,-2.4082,-2.4003,-2.3903,-2.3782,-2.3739,-2.3717,-2.3696,-2.3616,-2.358,-2.3379,-2.2963,-2.299,-2.2843,-2.2329,-2.2184,-2.1939,-2.1744,-2.1515,-2.1137,-2.0668,-2.0187,-1.9876,-1.967,-1.943,-1.9381,-1.9643,-1.9967,-2.036,-2.0699,-2.0699,-2.0699,-2.0699,-2.0699,-2.0699,-2.0753,-2.1056,-2.1588,-2.2132,-2.2122,-2.2242,-2.3055,-2.2451,-2.192,-2.1737,-2.2212,-2.2862,-2.3282,-2.3448,-2.3699,-2.4129,-2.4177,-2.4189,-2.4152,-2.4043,-2.374,-2.3065,-2.3224,-2.3224,-2.3113,-2.3075,-2.2964,-2.2777,-2.2515,-2.2338,-2.2138,-2.2029,-2.1859,-2.1535,-2.1188,-2.0429,-2.0183,-1.9577,-1.8686,-1.8224,-1.7768,-1.7409,-1.7031,-1.6573,-1.6217,-1.6007,-1.5906,-1.6048,-1.6021,-1.5833,-1.5855,-1.6023,-1.6111,-1.6243,-2.2709,-2.2799,-2.315,-2.3319,-2.3494,-2.403,-2.4513,-2.4779,-2.4839,-2.5044,-2.537,-2.5462,-2.5446,-2.5408,-2.5121,-2.4899,-2.4784,-2.4431,-2.4323,-2.4281,-2.4281,-2.4281,-2.4281,-2.4281,-2.4255,-2.4187,-2.4061,-2.3925,-2.3839,-2.3696,-2.3616,-2.3616,-2.3616,-2.3595,-2.3595,-2.3595,-2.3595,-2.3498,-2.3454,-2.3199,-2.273,-2.2676,-2.2521,-2.1978,-2.1339,-2.1008,-2.0694,-2.0432,-2.0244,-1.9939,-1.9904,-2.0137,-2.0594,-2.0686,-2.0699,-2.0699,-2.0699,-2.0699,-2.0699,-2.0699,-2.0714,-2.0744,-2.0859,-2.1277,-2.1999,-2.2018,-2.2174,-2.2937,-2.2322,-2.1796,-2.1847,-2.2313,-2.2846,-2.3312,-2.355,-2.3779,-2.4007,-2.408,-2.4091,-2.408,-2.3787,-2.3372,-2.3038,-2.2927,-2.2927,-2.259,-2.259,-2.2515,-2.2402,-2.2252,-2.2073,-2.1921,-2.1821,-2.1701,-2.1375,-2.0977,-2.0118,-1.9421,-1.876,-1.8078,-1.768,-1.7274,-1.6937,-1.6586,-1.6487,-1.6337,-1.613,-1.6132,-1.6265,-1.625,-1.6111,-1.6287,-1.6448,-1.6463,-1.6551,-2.2655,-2.3172,-2.326,-2.3451,-2.3732,-2.4135,-2.4343,-2.4446,-2.4431,-2.4679,-2.4962,-2.504,-2.504,-2.502,-2.4902,-2.4755,-2.4472,-2.4343,-2.4281,-2.4281,-2.4281,-2.4281,-2.4281,-2.4281,-2.4255,-2.4202,-2.4082,-2.3925,-2.3782,-2.3674,-2.3595,-2.3595,-2.3595,-2.3595,-2.3595,-2.3595,-2.3595,-2.3595,-2.3595,-2.3498,-2.3349,-2.3274,-2.3079,-2.2513,-2.1724,-2.1289,-2.1117,-2.0808,-2.0601,-2.0515,-2.0491,-2.0517,-2.066,-2.0699,-2.0699,-2.0699,-2.0699,-2.0699,-2.0699,-2.0726,-2.0731,-2.0808,-2.117,-2.1562,-2.1824,-2.1903,-2.1957,-2.2075,-2.1431,-2.1187,-2.1632,-2.206,-2.2667,-2.3262,-2.3503,-2.3567,-2.3641,-2.3482,-2.3434,-2.3434,-2.3298,-2.2852,-2.2214,-2.244,-2.2365,-2.2149,-2.2073,-2.2035,-2.1997,-2.1987,-2.1845,-2.1655,-2.1786,-2.1615,-2.0878,-2.0476,-1.9693,-1.8904,-1.8196,-1.777,-1.7363,-1.7025,-1.6772,-1.665,-1.6607,-1.6448,-1.6323,-1.6338,-1.6484,-1.6477,-1.644,-1.6572,-1.6734,-1.6763,-1.6815,-2.2949,-2.3282,-2.3473,-2.3646,-2.3846,-2.4156,-2.4281,-2.4281,-2.4281,-2.441,-2.4594,-2.4619,-2.4619,-2.4619,-2.4599,-2.4472,-2.4343,-2.4281,-2.4281,-2.4281,-2.4281,-2.4281,-2.4297,-2.4255,-2.4193,-2.4103,-2.404,-2.3897,-2.3717,-2.3638,-2.3595,-2.3595,-2.3595,-2.3595,-2.3595,-2.3595,-2.3595,-2.3595,-2.3595,-2.3595,-2.3595,-2.3573,-2.3187,-2.2558,-2.1803,-2.1326,-2.1019,-2.0822,-2.0711,-2.0699,-2.0699,-2.0699,-2.0699,-2.0699,-2.0699,-2.0699,-2.0699,-2.0699,-2.0712,-2.0923,-2.1004,-2.0825,-2.134,-2.1625,-2.1731,-2.1684,-2.1698,-2.1671,-2.1259,-2.0853,-2.152,-2.1949,-2.2579,-2.3066,-2.315,-2.3038,-2.3038,-2.3001,-2.3001,-2.3001,-2.2852,-2.2451,-2.2149,-2.2149,-2.2073,-2.1959,-2.1959,-2.1883,-2.1883,-2.1845,-2.1568,-2.1507,-2.1725,-2.1471,-2.0576,-1.9866,-1.9252,-1.8556,-1.7897,-1.7597,-1.7399,-1.7045,-1.6771,-1.6721,-1.6692,-1.6721,-1.6661,-1.6712,-1.6762,-1.6872,-1.693,-1.696,-1.6982,-1.7018,-1.7077,-2.3341,-2.3473,-2.3711,-2.3839,-2.3925,-2.4162,-2.4281,-2.4281,-2.4281,-2.4302,-2.4302,-2.4281,-2.4364,-2.4302,-2.4323,-2.4302,-2.4281,-2.4281,-2.4281,-2.4281,-2.4281,-2.4281,-2.4297,-2.4234,-2.413,-2.4003,-2.3961,-2.3818,-2.3674,-2.3595,-2.3595,-2.3595,-2.3595,-2.3595,-2.3595,-2.3595,-2.3595,-2.3595,-2.3595,-2.3595,-2.3551,-2.3486,-2.2942,-2.2095,-2.1516,-2.112,-2.0848,-2.0724,-2.0699,-2.0699,-2.0699,-2.0699,-2.0699,-2.0699,-2.0699,-2.0699,-2.0699,-2.0766,-2.0923,-2.1121,-2.1157,-2.0867,-2.1227,-2.148,-2.1409,-2.1257,-2.1279,-2.1267,-2.1009,-2.0807,-2.1441,-2.1843,-2.2299,-2.2711,-2.259,-2.244,-2.244,-2.2676,-2.2628,-2.2526,-2.2375,-2.2101,-2.1959,-2.1883,-2.1807,-2.1807,-2.1807,-2.1807,-2.1807,-2.1647,-2.1389,-2.132,-2.1521,-2.1406,-2.0552,-1.978,-1.9121,-1.8394,-1.7728,-1.7534,-1.7402,-1.7206,-1.6965,-1.6808,-1.6807,-1.685,-1.6945,-1.7011,-1.7135,-1.7271,-1.725,-1.7179,-1.7223,-1.7271,-1.7279,-2.3646,-2.4114,-2.3888,-2.3967,-2.4198,-2.4281,-2.4281,-2.4281,-2.4281,-2.4281,-2.4281,-2.4281,-2.4281,-2.4281,-2.4281,-2.4281,-2.4281,-2.4281,-2.4281,-2.4281,-2.4281,-2.4281,-2.4261,-2.4193,-2.4103,-2.4003,-2.3882,-2.3739,-2.3616,-2.3595,-2.3595,-2.3595,-2.3551,-2.3551,-2.353,-2.3573,-2.3508,-2.3406,-2.3465,-2.3508,-2.3377,-2.3068,-2.2549,-2.1636,-2.1155,-2.0848,-2.0749,-2.0699,-2.0699,-2.0699,-2.0699,-2.0699,-2.0712,-2.0712,-2.0713,-2.0662,-2.0739,-2.091,-2.1134,-2.1118,-2.1087,-2.1005,-2.1021,-2.0688,-2.0588,-2.0579,-2.0723,-2.0774,-2.0841,-2.0839,-2.1125,-2.158,-2.1997,-2.2328,-2.244,-2.2365,-2.2327,-2.2214,-2.2101,-2.2035,-2.1959,-2.1911,-2.1845,-2.1807,-2.1807,-2.1807,-2.1807,-2.1807,-2.1807,-2.1486,-2.1132,-2.1174,-2.1281,-2.1061,-2.0616,-1.9877,-1.9142,-1.8451,-1.7873,-1.7629,-1.7488,-1.7316,-1.7147,-1.7047,-1.704,-1.7143,-1.7238,-1.7296,-1.7304,-1.7279,-1.7286,-1.7286,-1.7286,-1.7286,-1.7286,-2.4009,-2.4281,-2.4135,-2.4156,-2.4281,-2.4281,-2.4281,-2.4281,-2.4281,-2.4281,-2.4281,-2.4281,-2.4281,-2.4281,-2.4281,-2.4281,-2.4281,-2.4281,-2.4281,-2.4281,-2.4281,-2.4276,-2.4234,-2.4145,-2.404,-2.3897,-2.376,-2.3674,-2.361,-2.3595,-2.3573,-2.353,-2.3363,-2.3246,-2.3246,-2.3224,-2.3076,-2.2972,-2.3076,-2.3098,-2.2815,-2.2374,-2.1841,-2.1434,-2.0972,-2.0724,-2.0699,-2.0699,-2.0699,-2.0699,-2.0699,-2.0699,-2.0752,-2.0847,-2.0848,-2.0616,-2.0848,-2.1043,-2.126,-2.1255,-2.1571,-2.1134,-2.0972,-2.0774,-2.045,-2.0399,-2.0314,-2.0534,-2.0956,-2.1119,-2.1125,-2.1486,-2.1822,-2.2027,-2.2101,-2.2101,-2.2025,-2.1921,-2.1845,-2.1807,-2.1845,-2.1845,-2.1807,-2.1807,-2.1807,-2.1807,-2.1807,-2.1769,-2.1731,-2.1344,-2.0919,-2.063,-2.0615,-2.0227,-1.9904,-1.9397,-1.8904,-1.8265,-1.7854,-1.7613,-1.7466,-1.7318,-1.7271,-1.7213,-1.7271,-1.7286,-1.7279,-1.7311,-1.7279,-1.7286,-1.7286,-1.7286,-1.7286,-1.7286,-1.7286,-2.4281,-2.4281,-2.4281,-2.4281,-2.4281,-2.4281,-2.4281,-2.4281,-2.4281,-2.4281,-2.4281,-2.4281,-2.4281,-2.4281,-2.4281,-2.4281,-2.4281,-2.4281,-2.4281,-2.4281,-2.4281,-2.4271,-2.4187,-2.4067,-2.394,-2.3818,-2.3674,-2.3595,-2.3595,-2.3595,-2.3545,-2.3355,-2.3046,-2.2785,-2.2762,-2.2717,-2.2406,-2.2397,-2.2466,-2.2452,-2.2002,-2.1626,-2.1326,-2.124,-2.0885,-2.0699,-2.0699,-2.0699,-2.0699,-2.0674,-2.0674,-2.0662,-2.0753,-2.1056,-2.0962,-2.0646,-2.1129,-2.1164,-2.1327,-2.1317,-2.1479,-2.1056,-2.0968,-2.0696,-2.0366,-1.9976,-2.0002,-2.0431,-2.112,-2.1507,-2.1416,-2.158,-2.1794,-2.1835,-2.1845,-2.1807,-2.1845,-2.1807,-2.1807,-2.1807,-2.1807,-2.1807,-2.1807,-2.1807,-2.1807,-2.1807,-2.1769,-2.153,-2.1484,-2.1085,-2.0648,-2.0089,-1.9765,-1.9296,-1.8983,-1.8696,-1.8265,-1.7885,-1.7613,-1.7426,-1.738,-1.7333,-1.7286,-1.7286,-1.7286,-1.7286,-1.7286,-1.7286,-1.7286,-1.7286,-1.7286,-1.7286,-1.7286,-1.7185,-1.7084,-2.4281,-2.4281,-2.4281,-2.4281,-2.4281,-2.4281,-2.4281,-2.4281,-2.4281,-2.4281,-2.4281,-2.4281,-2.4281,-2.4281,-2.4281,-2.4281,-2.4281,-2.4281,-2.4281,-2.4281,-2.4281,-2.4255,-2.4151,-2.4067,-2.3839,-2.3631,-2.3551,-2.3595,-2.3486,-2.3465,-2.3355,-2.3054,-2.2867,-2.2663,-2.2221,-2.2198,-2.2189,-2.2119,-2.2128,-2.1931,-2.1541,-2.1399,-2.1169,-2.0898,-2.0749,-2.0699,-2.0699,-2.0699,-2.0699,-2.0687,-2.0574,-2.0587,-2.0728,-2.094,-2.1091,-2.109,-2.1297,-2.1609,-2.1617,-2.1343,-2.1014,-2.0723,-2.0354,-1.9726,-1.9613,-1.9491,-1.9661,-2.0384,-2.1219,-2.1703,-2.1659,-2.1745,-2.1807,-2.1807,-2.1807,-2.1807,-2.1807,-2.1807,-2.1807,-2.1807,-2.1807,-2.1807,-2.1807,-2.1807,-2.1807,-2.1807,-2.1731,-2.1512,-2.1172,-2.0817,-1.9989,-1.9316,-1.9159,-1.8779,-1.8356,-1.8025,-1.7854,-1.7559,-1.7426,-1.7286,-1.7286,-1.7286,-1.7286,-1.7286,-1.7286,-1.7286,-1.7286,-1.7286,-1.7286,-1.7286,-1.7286,-1.7286,-1.7286,-1.7138,-1.6936,-2.4281,-2.4281,-2.4281,-2.4281,-2.4281,-2.4281,-2.4281,-2.4281,-2.4281,-2.4281,-2.4281,-2.4281,-2.4281,-2.4276,-2.4281,-2.4281,-2.4281,-2.4261,-2.4281,-2.4261,-2.424,-2.4213,-2.4024,-2.3717,-2.3465,-2.3268,-2.2942,-2.268,-2.283,-2.3054,-2.3054,-2.2844,-2.2342,-2.1945,-2.1732,-2.1708,-2.1516,-2.1372,-2.1275,-2.1215,-2.1057,-2.0983,-2.0923,-2.0712,-2.0699,-2.0699,-2.0699,-2.0699,-2.0699,-2.0674,-2.0637,-2.0524,-2.0579,-2.0776,-2.106,-2.1078,-2.097,-2.0904,-2.0808,-2.0723,-2.0651,-2.0341,-1.9955,-1.9665,-1.9497,-1.9388,-1.9768,-2.1124,-2.1538,-2.1776,-2.1807,-2.1807,-2.1807,-2.1807,-2.1807,-2.1807,-2.1807,-2.1807,-2.1807,-2.1807,-2.1807,-2.1807,-2.179,-2.1775,-2.1786,-2.1873,-2.1771,-2.1523,-2.1083,-2.0583,-1.9504,-1.8253,-1.8318,-1.8357,-1.7956,-1.7567,-1.7613,-1.7426,-1.7426,-1.7286,-1.7286,-1.7286,-1.7286,-1.7286,-1.7286,-1.7286,-1.7286,-1.7286,-1.7286,-1.7286,-1.7286,-1.7286,-1.7239,-1.7138,-1.6655,-2.4234,-2.4281,-2.4281,-2.4281,-2.4281,-2.4281,-2.4281,-2.4281,-2.4198,-2.4219,-2.4261,-2.4219,-2.4156,-2.4135,-2.4073,-2.403,-2.4156,-2.4094,-2.4051,-2.4051,-2.3988,-2.3846,-2.3588,-2.3246,-2.292,-2.2785,-2.2452,-2.2244,-2.2244,-2.2328,-2.2457,-2.2503,-2.1851,-2.141,-2.1253,-2.1204,-2.1082,-2.086,-2.081,-2.0774,-2.0724,-2.0724,-2.0724,-2.0699,-2.0699,-2.0699,-2.0725,-2.0883,-2.0923,-2.086,-2.103,-2.1004,-2.0897,-2.1017,-2.0786,-2.0647,-2.0392,-2.0239,-2.013,-2.0059,-2.0257,-2.0009,-1.9746,-1.9538,-1.9879,-1.9603,-1.9955,-2.158,-2.1735,-2.1797,-2.1807,-2.1807,-2.1807,-2.1807,-2.1807,-2.1807,-2.1807,-2.1807,-2.1807,-2.1807,-2.1807,-2.1807,-2.1783,-2.1722,-2.1763,-2.1927,-2.1816,-2.149,-2.0854,-2.0125,-1.9211,-1.7924,-1.7995,-1.8079,-1.766,-1.7333,-1.7333,-1.7286,-1.7286,-1.7286,-1.7286,-1.7286,-1.7286,-1.7286,-1.7286,-1.7286,-1.7286,-1.7286,-1.7286,-1.7286,-1.7286,-1.7239,-1.7145,-1.6951,-1.6143,-2.403,-2.4281,-2.4281,-2.4261,-2.4281,-2.4281,-2.4281,-2.4177,-2.3967,-2.4009,-2.4135,-2.4009,-2.3867,-2.3775,-2.3625,-2.361,-2.3803,-2.3501,-2.348,-2.337,-2.3172,-2.3216,-2.3046,-2.2762,-2.242,-2.242,-2.2035,-2.1941,-2.1964,-2.1636,-2.1602,-2.1447,-2.1375,-2.1106,-2.0934,-2.0873,-2.0848,-2.0699,-2.0699,-2.0699,-2.0699,-2.0699,-2.0699,-2.0712,-2.0712,-2.0687,-2.0738,-2.1172,-2.1355,-2.1263,-2.1546,-2.1646,-2.1477,-2.1204,-2.0664,-1.9868,-1.9901,-1.9738,-1.9531,-1.9564,-1.9639,-1.9572,-1.9479,-1.9518,-1.9975,-2.0255,-2.0834,-2.16,-2.1787,-2.1807,-2.1807,-2.1807,-2.1807,-2.1807,-2.1807,-2.1807,-2.1807,-2.1807,-2.1807,-2.1807,-2.1703,-2.1571,-2.1464,-2.136,-2.1616,-2.1793,-2.1217,-2.0892,-2.0041,-1.9306,-1.8762,-1.8041,-1.7987,-1.7846,-1.7473,-1.7286,-1.7286,-1.7286,-1.7286,-1.7286,-1.7286,-1.7286,-1.7286,-1.7286,-1.7286,-1.7286,-1.7286,-1.7246,-1.72,-1.7239,-1.7192,-1.7005,-1.6285,-1.5615,-1.4723,-2.4036,-2.3988,-2.3994,-2.4009,-2.3994,-2.4219,-2.4073,-2.3739,-2.376,-2.3732,-2.3689,-2.3754,-2.3689,-2.3494,-2.3407,-2.3363,-2.3473,-2.34,-2.3275,-2.326,-2.3194,-2.3038,-2.2799,-2.2365,-2.2039,-2.1803,-2.1492,-2.1264,-2.1166,-2.1082,-2.1008,-2.0972,-2.1021,-2.0898,-2.0724,-2.0699,-2.0699,-2.0699,-2.0699,-2.0699,-2.0699,-2.0699,-2.0699,-2.0699,-2.1093,-2.1107,-2.1173,-2.1601,-2.1701,-2.1786,-2.1997,-2.199,-2.176,-2.1182,-2.0258,-1.9288,-1.9452,-1.9353,-1.9231,-1.9231,-1.9297,-1.9348,-1.9435,-1.9741,-2.0193,-2.0333,-2.086,-2.1445,-2.1807,-2.1807,-2.1807,-2.1807,-2.1807,-2.1807,-2.1769,-2.1731,-2.1693,-2.1655,-2.1415,-2.1252,-2.1207,-2.1112,-2.0997,-2.0894,-2.1262,-2.1571,-2.0869,-2.0168,-1.9341,-1.8672,-1.8164,-1.7849,-1.7777,-1.7707,-1.738,-1.7286,-1.7286,-1.7286,-1.7286,-1.7286,-1.7286,-1.7286,-1.7286,-1.7286,-1.7286,-1.7246,-1.72,-1.716,-1.7113,-1.7059,-1.6871,-1.6636,-1.5669,-1.4496,-1.3559,-2.3861,-2.3689,-2.3775,-2.3739,-2.3696,-2.3888,-2.3717,-2.337,-2.3414,-2.3268,-2.3008,-2.3304,-2.337,-2.315,-2.2994,-2.3038,-2.3061,-2.2994,-2.2963,-2.2896,-2.2768,-2.2686,-2.2342,-2.1959,-2.1506,-2.1204,-2.0934,-2.0749,-2.0785,-2.0724,-2.0724,-2.0749,-2.0699,-2.0699,-2.0699,-2.0699,-2.0699,-2.0699,-2.0699,-2.0699,-2.0699,-2.0699,-2.0857,-2.0936,-2.1302,-2.1485,-2.1665,-2.2051,-2.2225,-2.2181,-2.2185,-2.2138,-2.163,-2.0919,-1.9966,-1.9396,-1.9098,-1.9098,-1.9098,-1.9098,-1.917,-1.9412,-1.9609,-2.0006,-2.042,-2.0509,-2.0845,-2.1642,-2.1807,-2.1807,-2.1807,-2.1807,-2.1807,-2.1769,-2.1454,-2.1377,-2.1377,-2.1328,-2.0982,-2.0702,-2.0742,-2.0879,-2.0609,-2.0497,-2.0476,-2.0694,-2.0232,-1.9514,-1.877,-1.8171,-1.7756,-1.7537,-1.7419,-1.738,-1.7286,-1.7286,-1.7286,-1.7286,-1.7286,-1.7286,-1.7286,-1.7286,-1.7286,-1.7286,-1.7239,-1.716,-1.7066,-1.6972,-1.6932,-1.6885,-1.6461,-1.5899,-1.5175,-1.4004,-1.2973,-2.3341,-2.3341,-2.3631,-2.3566,-2.3297,-2.3304,-2.3304,-2.315,-2.2934,-2.264,-2.2402,-2.2663,-2.2777,-2.2663,-2.2495,-2.2526,-2.264,-2.2457,-2.2333,-2.2356,-2.2217,-2.1959,-2.1698,-2.141,-2.1155,-2.0997,-2.0799,-2.0699,-2.0699,-2.0699,-2.0699,-2.0699,-2.0699,-2.0699,-2.0699,-2.0699,-2.0699,-2.0699,-2.0699,-2.0699,-2.0712,-2.0764,-2.1053,-2.1289,-2.1655,-2.19,-2.2127,-2.2575,-2.2674,-2.2376,-2.2305,-2.208,-2.1533,-2.0722,-1.9879,-1.9198,-1.9131,-1.9098,-1.9098,-1.9098,-1.9295,-1.9637,-1.9824,-2.0203,-2.0752,-2.0855,-2.0855,-2.1745,-2.1807,-2.1807,-2.1807,-2.1807,-2.1807,-2.1578,-2.1223,-2.0982,-2.0982,-2.0895,-2.0508,-2.0222,-2.0527,-2.0752,-2.0435,-2.0156,-1.9852,-1.9708,-1.938,-1.883,-1.8164,-1.7825,-1.7505,-1.7419,-1.7286,-1.7286,-1.7286,-1.7286,-1.7286,-1.7286,-1.7286,-1.7286,-1.7286,-1.7246,-1.7239,-1.7239,-1.7099,-1.6925,-1.6831,-1.6791,-1.6496,-1.615,-1.5456,-1.4865,-1.4246,-1.3507,-1.241,-2.315,-2.2912,-2.3024,-2.2867,-2.2655,-2.312,-2.3038,-2.2632,-2.2618,-2.2503,-2.2333,-2.2549,-2.2549,-2.2379,-2.2287,-2.2249,-2.2296,-2.2296,-2.2194,-2.2147,-2.1912,-2.1698,-2.1471,-2.1204,-2.0947,-2.0823,-2.0699,-2.0699,-2.0699,-2.0699,-2.0699,-2.0699,-2.0699,-2.0699,-2.0699,-2.0699,-2.0699,-2.0699,-2.0699,-2.0712,-2.0751,-2.104,-2.1328,-2.1551,-2.2109,-2.2454,-2.2557,-2.2997,-2.2837,-2.2332,-2.2188,-2.1729,-2.1123,-2.0291,-1.9879,-1.9297,-1.9098,-1.9098,-1.9098,-1.9129,-1.9326,-1.971,-2.0093,-2.0431,-2.0953,-2.1321,-2.1538,-2.1694,-2.1797,-2.1807,-2.1807,-2.1807,-2.1693,-2.1262,-2.0905,-2.0624,-2.0469,-2.0313,-2.0039,-1.9805,-1.9907,-1.9815,-1.9521,-1.9356,-1.9125,-1.8896,-1.8617,-1.8295,-1.7716,-1.7584,-1.7333,-1.7333,-1.7286,-1.7286,-1.7286,-1.7286,-1.7286,-1.7286,-1.7286,-1.7286,-1.7286,-1.72,-1.7106,-1.7059,-1.6871,-1.669,-1.655,-1.6313,-1.5787,-1.5277,-1.4631,-1.4048,-1.3474,-1.273,-1.1794,-2.2881,-2.2549,-2.2663,-2.2503,-2.2301,-2.2723,-2.2623,-2.2263,-2.2411,-2.2402,-2.2287,-2.2434,-2.2411,-2.224,-2.2194,-2.2194,-2.2194,-2.2194,-2.2194,-2.2147,-2.1926,-2.1688,-2.1399,-2.1106,-2.0909,-2.0749,-2.0699,-2.0699,-2.0699,-2.0699,-2.0699,-2.0699,-2.0699,-2.0699,-2.0699,-2.0699,-2.0699,-2.0699,-2.0699,-2.0843,-2.1014,-2.1328,-2.1668,-2.2096,-2.2572,-2.2977,-2.2987,-2.2929,-2.2763,-2.2175,-2.1604,-2.1144,-2.0484,-2.0009,-1.9682,-1.9264,-1.9098,-1.9098,-1.9098,-1.9098,-1.9409,-1.9975,-2.0276,-2.0674,-2.117,-2.158,-2.1694,-2.1797,-2.1769,-2.1617,-2.1492,-2.153,-2.1213,-2.075,-2.0284,-2.0001,-1.9814,-1.9618,-1.9506,-1.9313,-1.9226,-1.8973,-1.8709,-1.8462,-1.8264,-1.8079,-1.7846,-1.7567,-1.738,-1.7333,-1.7286,-1.7286,-1.7286,-1.7286,-1.7286,-1.7286,-1.7286,-1.7286,-1.7286,-1.7286,-1.7153,-1.7073,-1.6979,-1.6838,-1.6609,-1.6353,-1.6163,-1.5846,-1.5229,-1.4596,-1.3954,-1.338,-1.2776,-1.1977,-1.1146,-2.248,-2.2263,-2.2563,-2.2457,-2.2208,-2.2208,-2.2184,-2.217,-2.2208,-2.2208,-2.2194,-2.2231,-2.2208,-2.217,-2.217,-2.2123,-2.21,-2.21,-2.21,-2.203,-2.1807,-2.1592,-2.1326,-2.1095,-2.0873,-2.0749,-2.0699,-2.0699,-2.0699,-2.0699,-2.0699,-2.0699,-2.0699,-2.0699,-2.0699,-2.0699,-2.0699,-2.0699,-2.0857,-2.1053,-2.1302,-2.1629,-2.2122,-2.2585,-2.2979,-2.3083,-2.2988,-2.2756,-2.231,-2.1635,-2.089,-2.0355,-1.9879,-1.9452,-1.9231,-1.9098,-1.9098,-1.9098,-1.9119,-1.9119,-1.9596,-2.0182,-2.0452,-2.0979,-2.1445,-2.1728,-2.1711,-2.1568,-2.1443,-2.1175,-2.0982,-2.0789,-2.0586,-2.004,-1.9499,-1.9231,-1.9042,-1.895,-1.8853,-1.877,-1.8768,-1.8558,-1.8161,-1.7865,-1.78,-1.766,-1.7567,-1.7473,-1.7333,-1.7333,-1.7286,-1.7286,-1.7286,-1.7286,-1.7286,-1.7286,-1.7286,-1.7286,-1.7246,-1.72,-1.7066,-1.6932,-1.6744,-1.6562,-1.6292,-1.598,-1.5631,-1.52,-1.4606,-1.3971,-1.3179,-1.2853,-1.2318,-1.1455,-1.0745,-2.2194,-2.1973,-2.224,-2.2077,-2.165,-2.1626,-2.1736,-2.1912,-2.2114,-2.2194,-2.2194,-2.2194,-2.2114,-2.1926,-2.1926,-2.1807,-2.1783,-2.1783,-2.1736,-2.1664,-2.1568,-2.135,-2.1131,-2.0923,-2.0749,-2.0724,-2.0699,-2.0699,-2.0699,-2.0699,-2.0699,-2.0699,-2.0699,-2.0699,-2.0699,-2.0699,-2.0713,-2.0805,-2.1041,-2.1368,-2.1746,-2.2135,-2.2624,-2.2941,-2.3122,-2.3069,-2.2688,-2.231,-2.1729,-2.073,-2.0387,-1.9977,-1.9363,-1.9198,-1.9098,-1.9098,-1.9098,-1.9108,-1.916,-1.9409,-1.9844,-2.0348,-2.0653,-2.1186,-2.1611,-2.1731,-2.1568,-2.1367,-2.0731,-2.0265,-2.0235,-2.0148,-1.9844,-1.9341,-1.8931,-1.8789,-1.8602,-1.8428,-1.8345,-1.8421,-1.8395,-1.8261,-1.7812,-1.7572,-1.752,-1.738,-1.7286,-1.7286,-1.7286,-1.7286,-1.7286,-1.7286,-1.7286,-1.7286,-1.7286,-1.7279,-1.7286,-1.7286,-1.7153,-1.7012,-1.6878,-1.6744,-1.6508,-1.613,-1.5732,-1.5354,-1.5022,-1.4457,-1.3716,-1.305,-1.2317,-1.2135,-1.181,-1.1052,-1.0582,-2.1727,-2.1817,-2.1855,-2.1626,-2.1288,-2.1337,-2.1447,-2.1568,-2.1902,-2.2091,-2.2194,-2.2194,-2.2067,-2.1841,-2.1793,-2.1674,-2.1471,-2.1554,-2.1554,-2.1471,-2.1302,-2.1169,-2.0972,-2.0799,-2.0724,-2.0699,-2.0699,-2.0699,-2.0699,-2.0699,-2.0699,-2.0699,-2.0699,-2.0699,-2.0764,-2.0909,-2.1002,-2.1107,-2.129,-2.1681,-2.2187,-2.2663,-2.2915,-2.31,-2.3144,-2.2701,-2.2206,-2.1791,-2.089,-2.0128,-1.9977,-1.9551,-1.9142,-1.9098,-1.9098,-1.9098,-1.9098,-1.9098,-1.917,-1.9533,-1.9979,-2.041,-2.0829,-2.1104,-2.1401,-2.1568,-2.1328,-2.1049,-1.9982,-1.9195,-1.9402,-1.9481,-1.9063,-1.8683,-1.8518,-1.8391,-1.8198,-1.7971,-1.7971,-1.8026,-1.801,-1.7965,-1.7738,-1.7473,-1.7286,-1.7286,-1.7286,-1.7286,-1.7286,-1.7286,-1.7286,-1.7286,-1.7286,-1.7286,-1.7286,-1.7239,-1.7153,-1.7106,-1.6911,-1.6824,-1.669,-1.6441,-1.6143,-1.5621,-1.5064,-1.4665,-1.435,-1.3448,-1.2653,-1.211,-1.1733,-1.1496,-1.1307,-1.1033,-1.0706,-2.1208,-2.1674,-2.1434,-2.1229,-2.1057,-2.1229,-2.1204,-2.1071,-2.152,-2.1878,-2.2053,-2.21,-2.1926,-2.1664,-2.1616,-2.1482,-2.1326,-2.1326,-2.1313,-2.1326,-2.1155,-2.1008,-2.0923,-2.0799,-2.0699,-2.0699,-2.0699,-2.0699,-2.0699,-2.0699,-2.0699,-2.0699,-2.0699,-2.0751,-2.0923,-2.1223,-2.1329,-2.1438,-2.1609,-2.1907,-2.2564,-2.2961,-2.3048,-2.3077,-2.2738,-2.2206,-2.1667,-2.0953,-2.0074,-1.9813,-1.9561,-1.9164,-1.9131,-1.9098,-1.9098,-1.9098,-1.9098,-1.9202,-1.9347,-1.971,-2.0089,-2.0514,-2.0881,-2.1128,-2.1456,-2.1606,-2.1454,-2.0352,-1.9253,-1.8736,-1.8785,-1.8865,-1.8594,-1.8322,-1.8138,-1.8089,-1.8029,-1.7815,-1.7711,-1.7739,-1.7736,-1.7692,-1.7567,-1.7286,-1.7286,-1.7286,-1.7286,-1.7286,-1.7286,-1.7286,-1.7286,-1.7286,-1.7286,-1.7286,-1.72,-1.7106,-1.7019,-1.6878,-1.673,-1.6541,-1.6461,-1.6137,-1.5828,-1.5217,-1.4602,-1.4061,-1.3536,-1.2628,-1.1949,-1.1792,-1.1389,-1.0937,-1.0743,-1.0739,-1.0739,-2.088,-2.118,-2.0947,-2.0898,-2.0972,-2.0898,-2.0947,-2.1021,-2.1106,-2.1337,-2.1568,-2.1578,-2.1458,-2.1277,-2.1253,-2.1131,-2.0997,-2.1057,-2.0983,-2.0983,-2.0909,-2.0898,-2.0799,-2.0749,-2.0699,-2.0699,-2.0699,-2.0674,-2.0611,-2.0649,-2.0674,-2.0674,-2.0637,-2.0679,-2.1134,-2.142,-2.1491,-2.1581,-2.1722,-2.198,-2.2556,-2.2605,-2.2573,-2.2525,-2.2206,-2.151,-2.0953,-2.0387,-1.9748,-1.9396,-1.9231,-1.9098,-1.9098,-1.9098,-1.9098,-1.9098,-1.9108,-1.9264,-1.9596,-1.9934,-2.0343,-2.0793,-2.1215,-2.1456,-2.1652,-2.1759,-2.1185,-1.9844,-1.8865,-1.8474,-1.8201,-1.8241,-1.8201,-1.7959,-1.7808,-1.7813,-1.7869,-1.7688,-1.7521,-1.75,-1.7478,-1.7404,-1.7326,-1.7286,-1.7286,-1.7286,-1.7286,-1.7286,-1.7286,-1.7286,-1.7286,-1.7286,-1.7279,-1.7239,-1.7106,-1.6925,-1.6791,-1.665,-1.6454,-1.6312,-1.6191,-1.589,-1.5544,-1.4856,-1.4201,-1.3474,-1.2634,-1.1706,-1.1222,-1.1278,-1.1232,-1.0802,-1.0692,-1.0743,-1.0743,-2.0268,-2.0636,-2.0706,-2.0749,-2.0823,-2.0762,-2.0787,-2.0848,-2.0873,-2.0934,-2.112,-2.1253,-2.124,-2.1008,-2.0997,-2.0898,-2.0749,-2.0823,-2.0823,-2.0799,-2.0774,-2.0774,-2.0724,-2.0699,-2.0699,-2.0699,-2.0674,-2.0649,-2.046,-2.0372,-2.0372,-2.0346,-2.0322,-2.0502,-2.1079,-2.1254,-2.1365,-2.1513,-2.1536,-2.1711,-2.2059,-2.1957,-2.1877,-2.1815,-2.1333,-2.073,-2.0387,-1.9879,-1.9462,-1.9198,-1.9131,-1.9098,-1.9098,-1.9098,-1.9098,-1.9098,-1.915,-1.9305,-1.9772,-2.0147,-2.0494,-2.0845,-2.1113,-2.1211,-2.0576,-2.0644,-2.1136,-1.9883,-1.8665,-1.8112,-1.8121,-1.8112,-1.7919,-1.7716,-1.773,-1.7819,-1.7699,-1.7536,-1.7438,-1.7403,-1.7365,-1.7365,-1.7286,-1.7286,-1.7286,-1.7286,-1.7286,-1.7286,-1.7286,-1.7239,-1.7239,-1.7192,-1.7145,-1.7153,-1.7066,-1.6791,-1.6508,-1.6366,-1.6218,-1.6177,-1.6115,-1.5661,-1.522,-1.447,-1.3561,-1.2495,-1.1661,-1.1063,-1.0824,-1.0903,-1.0852,-1.0747,-1.0692,-1.0692,-1.0692,-1.9535,-2.0159,-2.0458,-2.0622,-2.0699,-2.0699,-2.0699,-2.0699,-2.0699,-2.0699,-2.0774,-2.1131,-2.1131,-2.1033,-2.0947,-2.0823,-2.0749,-2.0749,-2.0699,-2.0699,-2.0699,-2.0724,-2.0724,-2.0699,-2.0699,-2.0699,-2.0674,-2.0397,-2.0105,-2.008,-2.0055,-1.9875,-1.9845,-1.9887,-2.0553,-2.0872,-2.1001,-2.1037,-2.1008,-2.083,-2.0942,-2.1103,-2.1092,-2.0805,-2.0452,-2.0096,-1.9813,-1.9528,-1.9131,-1.9098,-1.9098,-1.9098,-1.9098,-1.9098,-1.9098,-1.9098,-1.9098,-1.9409,-1.9831,-2.0093,-2.0265,-2.0449,-2.0697,-2.045,-1.9854,-1.9932,-2.0382,-1.9874,-1.8625,-1.8031,-1.7991,-1.7846,-1.7644,-1.759,-1.771,-1.7685,-1.7503,-1.7375,-1.7362,-1.7286,-1.7286,-1.7286,-1.7286,-1.7286,-1.7286,-1.7286,-1.7286,-1.7286,-1.7286,-1.72,-1.7153,-1.7012,-1.6871,-1.6878,-1.6838,-1.665,-1.6319,-1.6123,-1.6048,-1.6121,-1.6034,-1.5584,-1.49,-1.3931,-1.3029,-1.2082,-1.14,-1.0828,-1.0743,-1.0692,-1.0692,-1.0692,-1.0692,-1.0692,-1.0692,-1.894,-1.9884,-1.9954,-2.0255,-2.0646,-2.0686,-2.0699,-2.0699,-2.0699,-2.0699,-2.0724,-2.0749,-2.0761,-2.0749,-2.0749,-2.0649,-2.0524,-2.0574,-2.0674,-2.0699,-2.0674,-2.0674,-2.0699,-2.0699,-2.0699,-2.0674,-2.0624,-2.0372,-1.9952,-1.9939,-1.9823,-1.9536,-1.9534,-1.9883,-2.0729,-2.0834,-2.0665,-2.0715,-2.0465,-2.0247,-1.9835,-2.0009,-2.0302,-2.0193,-2.0161,-1.9748,-1.9429,-1.9208,-1.9098,-1.9098,-1.9098,-1.9098,-1.9098,-1.9098,-1.9098,-1.9073,-1.9073,-1.9459,-1.9796,-1.9833,-1.9918,-2.0321,-2.0382,-2.0021,-1.9638,-1.9599,-1.9756,-1.9411,-1.8474,-1.7991,-1.7838,-1.7604,-1.745,-1.7574,-1.7695,-1.7453,-1.7205,-1.7274,-1.7296,-1.7286,-1.7286,-1.7286,-1.7286,-1.7286,-1.7286,-1.7286,-1.7286,-1.7239,-1.7246,-1.716,-1.7019,-1.6831,-1.6595,-1.6461,-1.6366,-1.6366,-1.6123,-1.5981,-1.5946,-1.6099,-1.5999,-1.5445,-1.473,-1.3898,-1.2894,-1.1928,-1.1282,-1.0692,-1.0692,-1.0692,-1.0692,-1.0692,-1.0692,-1.0692,-1.0692]},{"header":{"parameterUnit":"m.s-1","parameterCategory":1,"la1":31.0,"la2":29.5877,"lo1":-88.7671,"lo2":-86.6584,"dy":0.0162,"dx":0.0185,"nx":115,"ny":88,"refTime":"2024-08-14T12:00:00:Z","depth":0,"parameterNumber":3,"parameterNumberName":"V-component_of_WINDS"},"data":[0.0,0.0,0.0,0.0,0.0,0.0,0.0,0.0,0.0,0.0,0.0,0.0,0.0,0.0,0.0,0.0,0.0,0.0,0.0,0.0,0.0,0.0,0.0,0.0,0.0,0.0,0.0,0.0,0.0,0.0,0.0,0.0,0.0,0.0,0.0,0.0,0.0,0.0,0.0,0.0,0.0,0.0,0.0,0.0,0.0,0.0,0.0,0.0,0.0,0.0,0.0,0.0,0.0,0.0,0.0,0.0,0.0,0.0,0.0,0.0,0.0,0.0,0.0,0.0,0.0,0.0,0.0,0.0,0.0,0.0,0.0,0.0,0.0,0.0,0.0,0.0,0.0,0.0,0.0,0.0,0.0,0.0,0.0,0.0,0.0,0.0,0.0,0.0,0.0,0.0,0.0,0.0,0.0,0.0,0.0,0.0,0.0,0.0,0.0,0.0,0.0,0.0,0.0,0.0,0.0,0.0,0.0,0.0,0.0,0.0,0.0,0.0,0.0,0.0,0.0,0.0,0.0,0.0,0.0,0.0,0.0,0.0,0.0,0.0,0.0,0.0,0.0,0.0,0.0,0.0,0.0,0.0,0.0,0.0,0.0,0.0,0.0,0.0,0.0,0.0,0.0,0.0,0.0,0.0,0.0,0.0,0.0,0.0,0.0,0.0,0.0,0.0,0.0,0.0,0.0,0.0,0.0,0.0,0.0,0.0,0.0,0.0,0.0,0.0,0.0,0.0,0.0,0.0,0.0,0.0,0.0,0.0,0.0,0.0,0.0,0.0,0.0,0.0,0.0,0.0,0.0,0.0,0.0,0.0,0.0,0.0,0.0,0.0,0.0,0.0,0.0,0.0,0.0,0.0,0.0,0.0,0.0,0.0,0.0,0.0,0.0,0.0,0.0,0.0,0.0,0.0,0.0,0.0,0.0,0.0,0.0,0.0,0.0,0.0,0.0,0.0,0.0,0.0,0.0,0.0,0.0,0.0,0.0,0.0,0.0,0.0,0.0,0.0,0.0,0.0,0.0,0.0,0.0,0.0,0.0,0.0,0.0,0.0,0.0,0.0,0.0,0.0,0.0,0.0,0.0,0.0,0.0,0.0,0.0,0.0,0.0,0.0,0.0,0.0,0.0,0.0,0.0,0.0,0.0,0.0,0.0,0.0,0.0,0.0,0.0,0.0,0.0,0.0,0.0,0.0,0.0,0.0,0.0,0.0,0.0,0.0,0.0,0.0,0.0,0.0,0.0,0.0,0.0,0.0,0.0,0.0,0.0,0.0,0.0,0.0,0.0,0.0,0.0,0.0,0.0,0.0,0.0,0.0,0.0,0.0,0.0,0.0,0.0,0.0,0.0,0.0,0.0,0.0,0.0,0.0,0.0,0.0,0.0,0.0,0.0,0.0,0.0,0.0,0.0,0.0,0.0,0.0,0.0,0.0,0.0,0.0,0.0,0.0,0.0,0.0,0.0,0.0,0.0,0.0,0.0,0.0,0.0,0.0,0.0,0.0,0.0,0.0,0.0,0.0,0.0,0.0,0.0,0.0,0.0,0.0,0.0,0.0,0.0,0.0,0.0,0.0,0.0,0.0,0.0,0.0,0.0,0.0,0.0,0.0,0.0,0.0,0.0,0.0,0.0,0.0,0.0,0.0,0.0,0.0,0.0,0.0,0.0,0.0,0.0,0.0,0.0,0.0,0.0,0.0,0.0,0.0,0.0,0.0,0.0,0.0,0.0,0.0,0.0,0.0,0.0,0.0,0.0,0.0,0.0,0.0,0.0,0.0,0.0,0.0,0.0,0.0,0.0,0.0,0.0,0.0,0.0,0.0,0.0,0.0,0.0,0.0,0.0,0.0,0.0,0.0,0.0,0.0,0.0,0.0,0.0,0.0,0.0,0.0,0.0,0.0,0.0,0.0,0.0,0.0,0.0,0.0,0.0,0.0,0.0,0.0,0.0,0.0,0.0,0.0,0.0,0.0,0.0,0.0,0.0,0.0,0.0,0.0,0.0,0.0,0.0,0.0,0.0,0.0,0.0,0.0,0.0,0.0,0.0,0.0,0.0,0.0,0.0,0.0,0.0,0.0,0.0,0.0,0.0,0.0,0.0,0.0,0.0,0.0,0.0,0.0,0.0,0.0,0.0,0.0,0.0,0.0,0.0,0.0,0.0,0.0,0.0,0.0,0.0,0.0,0.0,0.0,0.0,0.0,0.0,0.0,0.0,0.0,0.0,0.0,0.0,0.0,0.0,0.0,0.0,0.0,0.0,0.0,0.0,0.0,0.0,0.0,0.0,0.0,0.0,0.0,0.0,0.0,0.0,0.0,0.0,0.0,0.0,0.0,0.0,0.0,0.0,0.0,0.0,0.0,0.0,0.0,0.0,0.0,0.0,0.0,0.0,0.0,0.0,0.0,0.0,0.0,0.0,0.0,0.0,0.0,0.0,0.0,0.0,0.0,0.0,0.0,0.0,0.0,0.0,0.0,0.0,0.0,0.0,0.0,0.0,0.0,0.0,0.0,0.0,0.0,0.0,0.0,0.0,0.0,0.0,0.0,0.0,0.0,0.0,0.0,0.0,0.0,0.0,0.0,0.0,0.0,0.0,0.0,0.0,0.0,0.0,0.0,0.0,0.0,0.0,0.0,0.0,0.0,0.0,0.0,0.0,0.0,0.0,0.0,0.0,0.0,0.0,0.0,0.0,0.0,0.0,0.0,0.0,0.0,0.0,0.0,0.0,0.0,0.0,0.0,0.0,0.0,0.0,0.0,0.0,0.0,0.0,0.0,0.0,0.0,0.0,0.0,0.0,0.0,0.0,0.0,0.0,0.0,0.0,0.0,0.0,0.0,0.0,0.0,0.0,0.0,0.0,0.0,0.0,0.0,0.0,0.0,0.0,0.0,0.0,0.0,0.0,0.0,0.0,0.0,0.0,0.0,0.0,0.0,0.0,0.0,0.0,0.0,0.0,0.0,0.0,0.0,0.0,0.0,0.0,0.0,0.0,0.0,0.0,0.0,0.0,0.0,0.0,0.0,0.0,0.0,0.0,0.0,0.0,0.0,0.0,0.0,0.0,0.0,0.0,0.0,0.0,0.0,0.0,0.0,0.0,0.0,0.0,0.0,0.0,0.0,0.0,0.0,0.0,0.0,0.0,0.0,0.0,0.0,0.0,0.0,0.0,0.0,0.0,0.0,0.0,0.0,0.0,0.0,0.0,0.0,0.0,0.0,0.0,0.0,0.0,0.0,0.0,0.0,0.0,0.0,0.0,0.0,0.0,0.0,0.0,0.0,0.0,0.0,0.0,0.0,0.0,0.0,0.0,0.0,0.0,0.0,0.0,0.0,0.0,0.0,0.0,0.0,0.0,0.0,0.0,0.0,0.0,0.0,0.0,0.0,0.0,0.0,0.0,0.0,0.0,0.0,0.0,0.0,0.0,0.0,0.0,0.0,0.0,0.0,0.0,0.0,0.0,0.0,0.0,0.0,0.0,0.0,0.0,0.0,0.0,0.0,0.0,0.0,0.0,0.0,0.0,0.0,0.0,0.0,0.0,0.0,0.0,0.0,0.0,0.0,0.0,0.0,0.0,0.0,0.0,0.0,0.0,0.0,0.0,0.0,0.0,0.0,0.0,0.0,0.0,0.0,0.0,0.0,0.0,0.0,0.0,0.0,0.0,0.0,0.0,0.0,0.0,0.0,0.0,0.0,0.0,0.0,0.0,0.0,0.0,0.0,0.0,0.0,0.0,0.0,0.0,0.0,0.0,0.0,0.0,0.0,0.0,0.0,0.0,0.0,0.0,0.0,0.0,0.0,0.0,0.0,0.0,0.0,0.0,0.0,0.0,0.0,0.0,0.0,0.0,0.0,0.0,0.0,0.0,0.0,0.0,0.0,0.0,0.0,0.0,0.0,0.0,0.0,0.0,0.0,0.0,0.0,0.0,0.0,0.0,0.0,0.0,0.0,0.0,0.0,0.0,0.0,0.0,0.0,0.0,0.0,0.0,0.0,0.0,0.0,0.0,0.0,0.0,0.0,0.0,0.0,0.0,0.0,0.0,0.0,0.0,0.0,0.0,0.0,0.0,0.0,0.0,0.0,0.0,0.0,0.0,0.0,0.0,0.0,0.0,0.0,0.0,0.0,0.0,0.0,0.0,0.0,0.0,0.0,0.0,0.0,0.0,0.0,0.0,0.0,0.0,0.0,0.0,0.0,0.0,0.0,0.0,0.0,0.0,0.0,0.0,0.0,0.0,0.0,0.0,0.0,0.0,0.0,0.0,0.0,0.9399,0.0,0.0,0.0,0.0,0.0,0.0,0.0,0.0,0.0,0.0,0.0,0.0,0.0,0.0,0.0,0.0,0.0,0.0,0.0,0.0,0.0,0.0,0.0,0.0,0.0,0.0,0.0,0.0,0.0,0.0,0.0,0.0,0.0,0.0,0.0,0.0,0.0,0.0,0.0,0.0,0.0,0.0,0.0,0.0,0.0,0.0,0.0,0.0,0.0,0.0,0.0,0.0,0.0,0.0,0.0,0.0,0.0,0.0,0.0,0.0,0.0,0.0,0.0,0.0,0.0,0.0,0.0,0.0,0.0,0.0,0.0,0.0,0.0,0.0,0.0,0.0,0.0,0.0,0.0,0.0,0.0,0.0,0.0,0.0,0.0,0.0,0.0,0.0,0.0,0.0,0.0,0.0,0.0,0.0,0.0,0.0,0.0,0.0,0.0,0.0,0.0,0.0,0.0,0.0,0.0,0.0,0.0,0.0,0.0,0.0,0.9698,0.9698,0.965,0.9553,0.9448,0.0,0.0,0.0,0.0,0.0,0.0,0.0,0.0,0.0,0.0,0.0,0.0,0.0,0.0,0.0,0.0,0.0,0.0,0.0,0.0,0.0,0.0,0.0,0.0,0.0,0.0,0.0,0.0,0.0,0.0,0.0,0.0,0.0,0.0,0.0,0.0,0.0,0.0,0.0,0.0,0.0,0.0,0.0,0.0,0.0,0.0,0.0,0.0,0.0,0.0,0.0,0.0,0.0,0.0,0.0,0.0,0.0,0.0,0.0,0.0,0.0,0.0,0.0,0.0,0.0,0.0,0.0,0.0,0.0,0.0,0.0,0.0,0.0,0.0,0.0,0.0,0.0,0.0,0.0,0.0,0.0,0.0,0.0,0.0,0.0,0.0,0.0,0.0,0.0,0.0,0.0,0.0,0.0,0.0,0.0,0.0,0.0,0.0,0.0,0.0,0.0,0.0,0.0,0.0,0.0,0.0,0.0,0.0,0.0,0.0,0.0,0.0,1.0157,1.0069,0.9985,0.0,0.0,0.0,0.0,0.0,0.0,0.0,0.0,0.0,0.0,0.0,0.0,0.0,0.0,0.0,0.0,0.0,0.0,0.0,0.0,0.0,0.0,0.0,0.0,0.0,0.0,0.0,0.0,0.0,0.0,0.0,0.0,0.0,0.0,0.0,0.0,0.0,0.0,0.0,0.0,0.0,0.0,0.0,0.0,0.0,0.0,0.0,0.0,0.0,0.0,0.0,0.0,0.0,0.0,0.0,0.0,0.0,0.0,0.0,0.0,0.0,0.0,0.0,0.0,0.0,0.0,0.0,0.0,0.0,0.0,0.0,0.0,0.0,0.0,0.0,0.0,0.0,0.0,0.0,0.0,0.0,0.0,0.0,0.0,0.0,0.0,0.0,0.0,0.0,0.0,0.0,0.0,0.0,0.0,0.0,0.0,0.0,0.0,0.0,0.0,0.0,0.0,0.0,0.0,0.0,0.0,0.0,0.0,0.0,0.0,1.0402,1.1829,1.1685,0.0,1.1429,0.0,0.0,0.0,0.0,0.0,0.0,0.0,0.0,0.0,0.0,0.0,0.0,0.0,0.0,0.0,0.0,0.0,0.0,0.0,0.0,0.0,0.0,0.0,0.0,0.0,0.0,0.0,0.0,0.0,0.0,0.0,0.0,0.0,0.0,0.0,0.0,0.0,0.0,0.0,0.0,0.0,0.0,0.0,0.0,0.0,0.0,0.0,0.0,0.0,0.0,0.0,0.0,0.0,0.0,0.0,0.0,0.0,0.0,0.0,0.0,0.0,0.0,0.0,0.0,0.0,0.0,0.0,0.0,0.0,0.0,0.0,0.0,0.0,0.0,0.0,0.0,0.0,0.0,0.0,0.0,0.0,0.0,0.0,0.0,0.0,0.0,0.0,0.0,0.0,0.0,0.0,0.0,0.0,0.0,0.0,0.0,0.0,0.0,0.0,0.0,0.0,0.0,0.0,0.0,0.0,0.0,0.0,0.0,0.0,0.0,0.0,1.2156,1.197,1.1773,0.0,0.0,0.0,0.0,0.0,0.0,0.0,0.0,0.0,0.0,0.0,0.0,0.0,0.0,0.0,0.0,0.0,0.0,0.0,0.0,0.0,0.0,0.0,0.0,0.0,0.0,0.0,0.0,0.0,0.0,0.0,0.0,0.0,0.0,0.0,0.0,0.0,0.0,0.0,0.0,0.0,0.0,0.0,0.0,0.0,0.0,0.0,0.0,0.0,0.0,0.0,0.0,0.0,0.0,0.0,0.0,0.0,0.0,0.0,0.0,0.0,0.0,0.0,0.0,0.0,0.0,0.0,0.0,0.0,0.0,0.0,0.0,0.0,0.0,0.0,0.0,0.0,0.0,0.0,0.0,0.0,0.0,0.0,0.0,0.0,0.0,0.0,0.0,0.0,0.0,0.0,0.0,0.0,0.0,0.0,0.0,0.0,0.0,0.0,0.0,0.0,0.0,0.0,0.0,0.0,0.0,0.0,0.0,0.0,0.0,1.1404,0.0,1.239,1.2287,1.2005,1.1587,0.0,0.0,0.0,0.0,0.0,0.0,0.0,0.0,0.0,0.0,0.0,0.0,0.0,0.0,0.0,0.0,0.0,0.0,0.0,0.0,0.0,0.0,0.0,0.0,0.0,0.0,0.0,0.0,0.0,0.0,0.0,0.0,0.0,0.0,0.0,0.0,0.0,0.0,0.0,0.0,0.0,0.0,0.0,0.0,0.0,0.0,0.0,0.0,0.0,0.0,0.0,0.0,0.0,0.0,0.0,0.0,0.0,0.0,0.0,0.0,0.0,0.0,0.0,0.0,0.0,0.0,0.0,0.0,0.0,0.0,0.0,0.0,0.0,0.0,0.0,0.0,0.0,0.0,0.0,0.0,0.0,0.0,0.0,0.0,0.0,0.0,0.0,0.0,0.0,0.0,0.0,0.0,0.0,0.0,0.0,0.0,0.0,0.0,0.0,0.0,0.0,0.0,0.0,0.0,0.0,0.0,0.0,0.0,0.0,1.1708,1.1631,1.2943,1.2945,1.2513,0.0,0.0,0.0,0.0,0.0,0.0,0.0,0.0,0.0,0.0,0.0,0.0,0.0,0.0,0.0,0.0,0.0,0.0,0.0,0.0,0.0,0.0,0.0,0.0,0.0,0.0,0.0,0.0,0.0,0.0,0.0,0.0,0.0,0.0,0.0,0.0,0.0,0.0,0.0,0.0,0.0,0.0,0.0,0.0,0.0,0.0,0.0,0.0,0.0,0.0,0.0,0.0,0.0,0.0,0.0,0.0,0.0,0.0,0.0,0.0,0.0,0.0,0.0,0.0,0.0,0.0,0.0,0.0,0.0,0.0,0.0,0.0,0.0,0.0,0.0,0.0,0.0,0.0,0.0,0.0,0.0,0.0,0.0,0.0,0.0,0.0,0.0,0.0,0.0,0.0,0.0,0.0,0.0,0.0,0.0,0.0,0.0,0.0,0.0,0.0,0.0,0.0,0.0,0.0,0.0,0.0,0.0,0.0,0.0,1.0965,1.1461,1.2667,1.4526,1.3227,1.2446,0.0,0.0,0.0,0.0,0.0,0.0,0.0,0.0,0.0,0.0,0.0,0.0,0.0,0.0,0.0,0.0,0.0,0.0,0.0,0.0,0.0,0.0,0.0,0.0,0.0,0.0,0.0,0.0,0.0,0.0,0.0,0.0,0.0,0.0,0.0,0.0,0.0,0.0,0.0,0.0,0.0,0.0,0.0,0.0,0.0,0.0,0.0,0.0,0.0,0.0,0.0,0.0,0.0,0.0,0.0,0.0,0.0,0.0,0.0,0.0,0.0,0.0,0.0,0.0,0.0,0.0,0.0,0.0,0.0,0.0,0.0,0.0,0.0,0.0,0.0,0.0,0.0,0.0,0.0,0.0,0.0,0.0,0.0,0.0,0.0,0.0,0.0,0.0,0.0,0.0,0.0,0.0,0.0,0.0,0.0,0.0,0.0,0.0,0.0,0.0,0.0,0.0,0.0,0.0,0.0,0.0,0.0,0.0,0.0,1.0527,0.0,1.3189,0.0,1.2918,1.1998,0.0,0.0,0.0,0.0,0.0,0.0,0.0,0.0,0.0,0.0,0.0,0.0,0.0,0.0,0.0,0.0,0.0,0.0,0.0,0.0,0.0,0.0,0.0,0.0,0.0,0.0,0.0,0.0,0.0,0.0,0.0,0.0,0.0,0.0,0.0,0.0,0.0,0.0,0.0,0.0,0.0,0.0,0.0,0.0,0.0,0.0,0.0,0.0,0.0,0.0,0.0,0.0,0.0,0.0,0.0,0.0,0.0,0.0,0.0,0.0,0.0,0.0,0.0,0.0,0.0,0.0,0.0,0.0,0.0,0.0,0.0,0.0,0.0,0.0,0.0,0.0,0.0,0.0,0.0,0.0,0.0,0.0,0.0,0.0,0.0,0.0,0.0,0.0,0.0,0.0,0.0,0.0,0.0,0.0,0.0,0.0,0.0,0.0,0.0,0.0,0.0,0.0,0.0,0.0,0.0,0.0,0.0,0.0,1.0517,1.2081,1.2909,1.2993,1.22,1.2059,1.1173,0.0,0.0,0.0,0.0,0.0,0.0,0.0,0.0,0.0,0.0,0.0,0.0,0.0,0.0,0.0,0.0,0.0,0.0,0.0,0.0,0.0,0.0,0.0,0.0,0.0,0.0,0.0,0.0,0.0,0.0,0.0,0.0,0.0,0.0,0.0,0.0,0.0,0.0,0.0,0.0,0.0,0.0,0.0,0.0,0.0,0.0,0.0,0.0,0.0,0.0,0.0,0.0,0.0,0.0,0.0,0.0,0.0,0.0,0.0,0.0,0.0,0.0,0.0,0.0,0.0,0.0,0.0,0.0,0.0,0.0,0.0,0.0,0.0,0.0,0.0,0.0,0.0,0.0,0.0,0.0,0.0,0.0,0.0,0.0,0.0,0.0,0.0,0.0,0.0,0.0,0.0,0.0,0.0,0.0,0.0,0.0,0.0,0.0,0.0,0.0,0.0,0.0,0.0,0.0,0.0,0.0,0.0,0.0,0.0,1.1038,1.2313,1.3148,1.3389,1.1884,1.1327,0.0,0.0,0.0,0.0,0.0,0.0,0.0,0.0,0.0,0.0,0.0,0.0,0.0,0.0,0.0,0.0,0.0,0.0,0.0,0.0,0.0,0.0,0.0,0.0,0.0,0.0,0.0,0.0,0.0,0.0,0.0,0.0,0.0,0.0,0.0,0.0,0.0,0.0,0.0,0.0,0.0,0.0,0.0,0.0,0.0,0.0,0.0,0.0,0.0,0.0,0.0,0.0,0.0,0.0,0.0,0.0,0.0,0.0,0.0,0.0,0.0,0.0,0.0,0.0,0.0,0.0,0.0,0.0,0.0,0.0,0.0,0.0,0.0,0.0,0.0,0.0,0.0,0.0,0.0,0.0,0.0,0.0,0.0,0.0,0.0,0.0,0.0,0.0,0.0,0.0,0.0,0.0,0.0,0.0,0.0,0.0,0.0,0.0,0.0,0.0,0.0,0.0,0.0,0.0,0.0,0.0,0.0,0.0,0.0,1.1871,1.309,1.3901,1.422,1.2434,1.1713,1.2135,0.0,0.0,0.0,0.0,0.0,0.0,0.0,0.0,0.0,0.0,0.0,0.0,0.0,0.0,0.0,0.0,0.0,0.0,0.0,0.0,0.0,0.0,0.0,0.0,0.0,0.0,0.0,0.0,0.0,0.0,0.0,0.0,0.0,0.0,0.0,0.0,0.0,0.0,0.0,0.0,0.0,0.0,0.0,0.0,0.0,0.0,0.0,0.0,0.0,0.0,0.0,0.0,0.0,0.0,0.0,0.0,0.0,0.0,0.0,0.0,0.0,0.0,0.0,0.0,0.0,0.0,0.0,0.0,0.0,0.0,0.0,0.0,0.0,0.0,0.0,0.0,0.0,0.0,0.0,0.0,0.0,0.0,0.0,0.0,0.0,0.0,0.0,0.0,0.0,0.0,0.0,0.0,0.0,0.0,0.0,0.0,0.0,0.0,0.0,0.0,0.0,0.0,0.0,0.0,0.0,0.0,0.0,0.0,1.3999,1.5042,1.5278,1.4641,1.3648,1.2421,0.0,0.0,0.0,0.0,0.0,0.0,0.0,0.0,0.0,0.0,0.0,0.0,0.0,0.0,0.0,0.0,0.0,0.0,0.0,0.0,0.0,0.0,0.0,0.0,0.0,0.0,0.0,0.0,0.0,0.0,0.0,0.0,0.0,0.0,0.0,0.0,0.0,0.0,0.0,0.0,0.0,0.0,0.0,0.0,0.0,0.0,0.0,0.0,0.0,0.0,0.0,0.0,0.0,0.0,0.0,0.0,0.0,0.0,0.0,0.0,0.0,0.0,0.0,0.0,0.0,0.0,0.0,0.0,0.0,0.0,0.0,0.0,0.0,0.0,0.0,0.0,0.0,0.0,0.0,0.0,0.0,0.0,0.0,0.0,0.0,0.0,0.0,0.0,0.0,0.0,0.0,0.0,0.0,0.0,0.0,0.0,0.0,0.0,0.0,0.0,0.0,0.0,0.0,0.0,0.0,0.0,0.0,0.0,0.0,1.4195,1.6553,1.7555,1.6986,1.5443,1.416,0.0,0.0,0.0,0.0,0.0,0.0,0.0,0.0,0.0,0.0,0.0,0.0,0.0,0.0,0.0,0.0,0.0,0.0,0.0,0.0,0.0,0.0,0.0,0.0,0.0,0.0,0.0,0.0,0.0,0.0,0.0,0.0,0.0,0.0,0.0,0.0,0.0,0.0,0.0,0.0,0.0,0.0,0.0,0.0,0.0,0.0,0.0,0.0,0.0,0.0,0.0,0.0,0.0,0.0,0.0,0.0,0.0,0.0,0.0,0.0,0.0,0.0,0.0,0.0,0.0,0.0,0.0,0.0,0.0,0.0,0.0,0.0,0.0,0.0,0.0,0.0,0.0,0.0,0.0,0.0,0.0,0.0,0.0,0.0,0.0,0.0,0.0,0.0,0.0,0.0,0.0,0.0,0.0,0.0,0.0,0.0,0.0,0.0,0.0,0.0,0.0,0.0,0.0,0.0,0.0,0.0,0.0,0.0,1.3907,1.5637,1.8082,1.9255,1.9133,1.7399,1.5539,0.0,0.0,0.0,0.0,0.0,0.0,0.0,0.0,0.0,0.0,0.0,0.0,0.0,0.0,0.0,0.0,0.0,0.0,0.0,0.0,0.0,0.0,0.0,0.0,0.0,0.0,0.0,0.0,0.0,0.0,0.0,0.0,0.0,0.0,0.0,0.0,0.0,0.0,0.0,0.0,0.0,0.0,0.0,0.0,0.0,0.0,0.0,0.0,0.0,0.0,0.0,0.0,0.0,0.0,0.0,0.0,0.0,0.0,0.0,0.0,0.0,0.0,0.0,0.0,0.0,0.0,0.0,0.0,0.0,0.0,0.0,0.0,0.0,0.0,0.0,0.0,0.0,0.0,0.0,0.0,0.0,0.0,0.0,0.0,0.0,0.0,0.0,0.0,0.0,0.0,0.0,0.0,0.0,0.0,0.0,0.0,0.0,0.0,0.0,0.0,0.0,0.0,0.0,0.0,0.0,0.0,0.0,0.0,1.4658,1.7455,1.9324,2.0404,2.0669,1.9166,1.6816,0.0,0.0,0.0,0.0,0.0,0.0,0.0,0.0,0.0,0.0,0.0,0.0,0.0,0.0,0.0,0.0,0.0,0.0,0.0,0.0,0.0,0.0,0.0,0.0,0.0,0.0,0.0,0.0,0.0,0.0,0.0,0.0,0.0,0.0,0.0,0.0,0.0,0.0,0.0,0.0,0.0,0.0,0.0,0.0,0.0,0.0,0.0,0.0,0.0,0.0,0.0,0.0,0.0,0.0,0.0,0.0,0.0,0.0,0.0,0.0,0.0,0.0,0.0,0.0,0.0,0.0,0.0,0.0,0.0,0.0,0.0,0.0,0.0,0.0,0.0,0.0,0.0,0.0,0.0,0.0,0.0,0.0,0.0,0.0,0.0,0.0,0.0,0.0,0.0,0.0,0.0,0.0,0.0,0.0,0.0,0.0,0.0,0.0,0.0,0.0,0.0,0.0,0.0,0.0,0.0,0.0,0.0,0.0,1.5194,1.6294,1.9154,2.0527,2.0264,1.9585,1.8128,0.0,0.0,0.0,0.0,0.0,0.0,0.0,0.0,0.0,0.0,0.0,0.0,0.0,0.0,0.0,0.0,0.0,0.0,0.0,0.0,0.0,0.0,0.0,0.0,0.0,0.0,0.0,0.0,0.0,0.0,0.0,0.0,0.0,0.0,0.0,0.0,0.0,0.0,0.0,0.0,0.0,0.0,0.0,0.0,0.0,0.0,0.0,0.0,1.448,0.0,0.0,0.0,0.0,0.0,0.0,0.0,0.0,0.0,0.0,0.0,0.0,0.0,0.0,0.0,0.0,0.0,0.0,0.0,0.0,0.0,0.0,0.0,0.0,0.0,0.0,0.0,0.0,0.0,0.0,0.0,0.0,0.0,0.0,0.0,0.0,0.0,0.0,0.0,0.0,0.0,0.0,0.0,0.0,0.0,0.0,0.0,0.0,0.0,0.0,0.0,0.0,0.0,0.0,0.0,0.0,0.0,0.0,0.0,1.5521,1.7071,1.9068,2.0261,2.0583,1.9919,1.8331,0.0,0.0,0.0,0.0,0.0,0.0,0.0,0.0,0.0,0.0,0.0,0.0,0.0,0.0,0.0,0.0,0.0,0.0,0.0,0.0,0.0,0.0,0.0,0.0,0.0,0.0,0.0,0.0,0.0,0.0,0.0,0.0,0.0,0.0,0.0,0.0,0.0,0.0,0.0,0.0,0.0,0.0,0.0,0.0,0.0,0.0,0.0,0.0,0.0,0.0,0.0,0.0,0.0,0.0,0.0,0.0,0.0,0.0,0.0,0.0,0.0,0.0,0.0,0.0,0.0,0.0,0.0,0.0,0.0,0.0,0.0,0.0,0.0,0.0,0.0,0.0,0.0,0.0,0.0,0.0,0.0,0.0,0.0,0.0,0.0,0.0,0.0,0.0,0.0,0.0,0.0,0.0,0.0,0.0,0.0,0.0,0.0,0.0,0.0,0.0,0.0,0.0,0.0,0.0,0.0,0.0,0.0,1.3635,1.5572,1.8156,1.8899,1.9838,2.1022,2.0078,1.8071,1.5064,0.0,0.0,0.0,0.0,0.0,0.0,0.0,0.0,0.0,0.0,0.0,0.0,0.0,0.0,0.0,0.0,0.0,0.0,0.0,0.0,0.0,0.0,0.0,0.0,0.0,0.0,0.0,0.0,0.0,0.0,0.0,0.0,0.0,0.0,0.0,0.0,0.0,0.0,1.2479,1.4569,0.0,0.0,0.0,0.0,0.0,0.0,0.0,0.0,1.6138,0.0,0.0,0.0,0.0,0.0,0.0,0.0,0.0,0.0,0.0,0.0,0.0,0.0,0.0,0.0,0.0,0.0,0.0,0.0,0.0,0.0,0.0,0.0,0.0,0.0,0.0,0.0,0.0,0.0,0.0,0.0,0.0,0.0,0.0,0.0,0.0,0.0,0.0,0.0,0.0,0.0,0.0,0.0,0.0,0.0,0.0,0.0,0.0,0.0,0.0,0.0,0.0,0.0,0.0,0.0,0.0,1.3157,1.3559,1.5003,1.7574,1.8566,1.9567,2.0551,1.9746,1.805,1.5554,0.0,0.0,0.0,0.0,0.0,0.0,0.0,0.0,0.0,0.0,0.0,0.0,0.0,0.0,0.0,0.0,0.0,0.0,0.0,0.0,0.0,0.0,0.0,0.0,0.0,0.0,0.0,0.0,0.0,0.0,0.0,0.0,0.0,0.0,0.0,0.0,0.0,0.0,0.0,1.6217,1.7254,0.0,0.0,0.0,0.0,0.0,0.0,0.0,0.0,1.6305,0.0,0.0,0.0,0.0,0.0,0.0,0.0,0.0,0.0,0.0,0.0,0.0,0.0,0.0,0.0,0.0,0.0,0.0,0.0,0.0,0.0,0.0,0.0,0.0,0.0,0.0,0.0,0.0,0.0,0.0,0.0,0.0,0.0,0.0,0.0,0.0,0.0,0.0,0.0,0.0,0.0,0.0,0.0,0.0,0.0,0.0,0.0,0.0,0.0,0.0,0.0,0.0,0.0,0.0,0.0,1.2361,1.3671,1.5457,1.7669,1.8235,1.9126,2.0417,1.8764,1.7085,0.0,0.0,0.0,0.0,0.0,0.0,0.0,0.0,0.0,0.0,0.0,0.0,0.0,0.0,0.0,0.0,0.0,0.0,0.0,0.0,0.0,0.0,0.0,0.0,0.0,0.0,0.0,0.0,0.0,0.0,0.0,0.0,0.0,0.0,0.0,0.0,0.0,0.0,0.0,0.0,1.7329,1.8274,1.9137,0.0,0.0,0.0,0.0,0.0,0.0,1.7764,1.7186,0.0,0.0,0.0,0.0,0.0,0.0,0.0,0.0,0.0,0.0,0.0,0.0,0.0,0.0,0.0,0.0,0.0,0.0,0.0,0.0,0.0,0.0,0.0,0.0,0.0,0.0,0.0,0.0,0.0,0.0,0.0,0.0,0.0,0.0,0.0,0.0,0.0,0.0,0.0,0.0,0.0,0.0,0.0,0.0,0.0,0.0,0.0,0.0,0.0,0.0,0.0,0.0,0.0,0.0,0.0,1.1552,1.3586,1.5724,1.784,1.7948,1.8765,2.0333,1.8106,1.6424,0.0,0.0,0.0,0.0,0.0,0.0,0.0,0.0,0.0,0.0,0.0,0.0,0.0,0.0,0.0,0.0,0.0,0.0,0.0,0.0,0.0,0.0,0.0,0.0,0.0,0.0,0.0,0.0,0.0,0.0,0.0,0.0,0.0,0.0,0.0,0.0,0.0,0.0,0.0,0.0,0.0,1.9314,2.0331,1.9612,0.0,0.0,0.0,0.0,1.8786,1.8859,0.0,0.0,0.0,0.0,0.0,0.0,0.0,0.0,0.0,0.0,0.0,0.0,0.0,0.0,0.0,0.0,0.0,0.0,0.0,0.0,0.0,0.0,0.0,0.0,0.0,0.0,0.0,0.0,0.0,0.0,0.0,0.0,0.0,0.0,0.0,0.0,0.0,0.0,0.0,0.0,0.0,0.0,0.0,0.0,0.0,0.0,0.0,0.0,0.0,0.0,0.0,0.0,0.0,0.0,0.0,0.0,1.155,1.2793,1.4839,1.7652,1.7828,1.8593,2.0143,1.8858,1.7223,0.0,0.0,0.0,0.0,0.0,0.0,0.0,0.0,0.0,0.0,0.0,0.0,0.0,0.0,0.0,0.0,0.0,0.0,0.0,0.0,0.0,0.0,0.0,0.0,0.0,0.0,0.0,0.0,0.0,0.0,0.0,0.0,0.0,0.0,0.0,0.0,0.0,0.0,0.0,0.0,0.0,2.0297,1.9195,1.9693,2.0258,0.0,0.0,2.0053,2.1858,2.1515,0.0,0.0,0.0,0.0,0.0,0.0,0.0,0.0,0.0,0.0,0.0,0.0,0.0,0.0,0.0,0.0,0.0,0.0,0.0,0.0,0.0,0.0,0.0,0.0,0.0,0.0,0.0,0.0,0.0,0.0,0.0,0.0,0.0,0.0,0.0,0.0,0.0,0.0,0.0,0.0,0.0,0.0,0.0,0.0,0.0,0.0,0.0,0.0,0.0,0.0,0.0,0.0,0.0,0.0,0.0,0.9953,1.1439,1.3231,1.5223,1.7354,1.7666,1.8193,1.9044,1.7683,1.6155,0.0,0.0,0.0,0.0,0.0,0.0,0.0,0.0,0.0,0.0,0.0,0.0,0.0,0.0,0.0,0.0,0.0,0.0,0.0,0.0,0.0,0.0,0.0,0.0,0.0,0.0,0.0,0.0,0.0,0.0,0.0,0.0,0.0,0.0,0.0,0.0,0.0,0.0,0.0,0.0,0.0,0.0,2.0498,2.0625,0.0,0.0,0.0,2.1878,2.2738,0.0,0.0,0.0,0.0,0.0,0.0,0.0,0.0,0.0,0.0,0.0,0.0,0.0,0.0,0.0,0.0,0.0,0.0,0.0,0.0,0.0,0.0,0.0,0.0,0.0,0.0,0.0,0.0,0.0,0.0,0.0,0.0,0.0,0.0,0.0,0.0,0.0,0.0,0.0,0.0,0.0,0.0,0.0,0.0,0.0,0.0,0.0,0.0,0.0,0.0,0.0,0.0,0.0,0.0,0.0,0.0,0.0,1.1317,1.3622,1.5596,1.7105,1.7544,1.7868,1.8088,1.6931,0.0,0.0,0.0,0.0,0.0,0.0,0.0,0.0,0.0,0.0,0.0,0.0,0.0,0.0,0.0,0.0,0.0,0.0,0.0,0.0,0.0,0.0,0.0,0.0,0.0,0.0,0.0,0.856,0.0,0.0,0.0,0.0,0.0,0.0,0.0,0.0,0.0,0.0,0.0,0.0,0.0,0.0,2.009,2.148,2.1645,2.196,0.0,0.0,2.3389,2.3312,2.3756,2.3253,0.0,0.0,0.0,0.0,0.0,0.0,0.0,0.0,0.0,0.0,0.0,0.0,0.0,0.0,0.0,0.0,0.0,0.0,0.0,0.0,0.0,0.0,0.0,0.0,0.0,0.0,0.0,0.0,0.0,0.0,0.0,0.0,0.0,0.0,0.0,0.0,0.0,0.0,0.0,0.0,0.0,0.0,0.0,0.0,0.0,0.0,0.0,0.0,0.0,0.0,0.0,0.0,0.0,0.0,0.0,1.133,1.3489,1.5384,1.6941,1.7401,1.7718,1.7921,1.7587,1.6127,0.0,0.0,0.0,0.0,0.0,0.0,0.0,0.0,0.0,0.0,0.0,0.0,0.0,0.0,0.0,0.0,0.0,0.0,0.0,0.0,0.0,0.0,0.0,0.0,0.0,0.0,0.0,0.0,0.0,0.0,0.0,0.0,0.0,0.0,0.0,0.0,0.0,0.0,0.0,0.0,0.0,2.0927,2.1039,2.2508,2.3751,0.0,0.0,2.4262,2.4143,2.4778,2.4312,2.1497,0.0,0.0,0.0,0.0,0.0,0.0,0.0,0.0,0.0,0.0,0.0,0.0,0.0,0.0,0.0,0.0,0.0,0.0,0.0,0.0,0.0,0.0,0.0,0.0,0.0,0.0,0.0,0.0,0.0,0.0,0.0,0.0,0.0,0.0,0.0,0.0,0.0,0.0,0.0,0.0,0.0,0.0,0.0,0.0,0.0,0.0,0.0,0.0,0.0,0.0,0.0,0.0,0.0,1.0192,1.1312,1.3476,1.5268,1.657,1.7013,1.705,1.6669,1.6949,1.5815,0.0,0.0,0.0,0.0,0.0,0.0,0.0,0.0,0.0,0.0,0.0,0.0,0.0,0.0,0.0,0.0,0.0,0.0,0.0,0.0,0.0,0.0,0.0,0.0,0.0,0.0,0.0,0.0,0.8697,0.8697,0.8697,0.0,0.0,0.0,0.0,0.0,0.0,0.0,0.0,0.0,0.0,2.0962,2.2124,2.2921,0.0,0.0,2.5039,2.5296,2.5883,2.5607,2.4805,2.3198,2.2302,0.0,0.0,0.0,0.0,0.0,0.0,0.0,0.0,0.0,0.0,0.0,0.0,0.0,0.0,0.0,0.0,0.0,0.0,0.0,0.0,0.0,0.0,0.0,0.0,0.0,0.0,0.0,0.0,0.0,0.0,0.0,0.0,0.0,0.0,0.0,0.0,0.0,0.0,0.0,0.0,0.0,0.0,0.0,0.0,0.0,0.0,0.0,0.0,0.0,0.0,0.0,0.0,1.0133,1.1229,1.3391,1.5078,1.6256,1.6701,1.6689,1.6168,1.6585,1.5679,0.0,0.0,0.0,0.0,0.0,0.0,0.0,0.0,0.0,0.0,0.0,0.0,0.0,0.0,0.0,0.0,0.0,0.0,0.0,0.0,0.0,0.0,0.0,0.0,0.0,0.0,0.0,0.0,0.8577,0.8595,0.8626,0.0,0.0,0.0,0.0,0.0,0.0,0.0,0.0,0.0,0.0,2.1537,2.2991,2.3428,2.3969,2.5103,2.5496,2.5781,2.6144,2.5814,2.5122,2.3845,0.0,0.0,0.0,0.0,0.0,0.0,0.0,0.0,0.0,0.0,0.0,0.0,0.0,0.0,0.0,0.0,0.0,0.0,0.0,0.0,0.0,0.0,0.0,0.0,0.0,0.0,0.0,0.8692,0.0,0.0,0.8498,0.0,0.0,0.0,0.0,0.0,0.0,0.0,0.0,0.0,0.0,0.0,0.0,0.0,0.0,0.0,0.0,0.0,0.0,0.0,0.0,0.0,0.0,1.0024,1.111,1.324,1.4873,1.5993,1.6534,1.6749,1.668,1.6642,1.5917,1.4436,0.0,0.0,0.0,0.0,0.0,0.0,0.0,0.0,0.0,0.0,0.0,0.0,0.0,0.0,0.0,0.0,0.0,0.0,0.0,0.0,0.0,0.0,0.0,0.0,0.0,0.0,0.8319,0.8299,0.8374,0.0,0.0,0.0,0.0,0.0,0.0,0.0,0.0,0.0,0.0,2.1188,2.2786,2.3425,2.4102,2.4681,2.5144,2.5635,2.559,2.4461,2.5273,2.5286,0.0,0.0,0.0,0.0,0.0,0.0,0.0,0.0,0.0,0.0,0.0,0.0,0.0,0.0,0.0,0.0,0.0,0.0,0.0,0.0,0.0,0.0,0.0,0.0,0.0,0.0,0.0,1.0263,0.9837,0.0,0.0,0.0,0.0,0.0,0.0,0.0,0.0,0.0,0.0,0.0,1.0446,1.1425,0.0,0.0,0.0,0.0,0.0,0.0,0.0,0.0,0.0,0.0,0.0,0.0,1.0084,1.1327,1.3265,1.489,1.6086,1.6318,1.6393,1.6356,1.6224,1.541,1.3878,0.0,0.0,0.0,0.0,0.0,0.0,0.0,0.0,0.0,0.0,0.0,0.0,0.0,0.0,0.0,0.0,0.0,0.0,0.0,0.0,0.0,0.0,0.0,0.0,0.0,0.8274,0.0,0.0,0.0,0.0,0.0,0.0,0.0,0.0,0.0,0.0,0.0,1.953,2.1325,2.2518,2.346,2.4149,2.4404,2.469,0.0,0.0,0.0,0.0,0.0,0.0,0.0,0.0,0.0,0.0,0.0,0.0,0.0,0.0,2.5596,2.2312,2.1132,2.0784,2.1331,0.0,0.0,0.0,0.0,0.0,0.0,0.0,0.0,0.0,0.0,0.0,0.0,0.0,0.0,1.141,1.1221,1.1151,0.0,0.0,0.0,0.0,0.0,0.0,0.0,0.0,1.0911,1.1477,1.1457,1.2452,1.2693,0.0,1.2052,1.1023,0.0,0.0,0.0,0.0,0.0,0.0,0.0,0.0,1.065,1.1903,1.3696,1.5122,1.6145,1.6241,1.6346,1.6456,1.6257,1.5374,1.3772,1.3056,1.2184,0.0,0.0,0.0,0.0,0.0,0.0,0.0,0.0,0.0,0.0,0.0,0.0,0.0,0.0,0.0,0.0,0.0,0.0,0.0,0.0,0.0,0.0,0.0,0.8323,0.0,0.0,0.0,0.0,0.0,0.0,0.0,0.0,0.0,2.0082,2.0503,2.1294,2.3092,2.3639,2.4124,2.4813,0.0,0.0,0.0,0.0,0.0,0.0,0.0,2.5916,2.6516,2.6049,2.5872,2.675,2.7937,2.8696,2.8437,0.0,0.0,2.5275,2.412,2.3802,2.4332,2.5309,2.6152,2.6398,2.7596,2.8496,0.0,0.0,0.0,0.0,0.0,0.0,0.0,0.0,1.1944,1.229,0.0,1.2814,0.0,0.0,0.0,0.0,0.972,1.0258,0.0,0.0,1.2259,1.2535,1.2117,1.2621,1.2837,1.287,1.3347,1.3001,1.1891,1.0396,0.0,0.0,0.0,0.0,0.0,0.0,1.1701,1.2848,1.4402,1.5526,1.617,1.6349,1.6561,1.6915,1.6685,1.5778,1.4242,1.3919,1.3379,1.2462,1.0629,0.0,0.0,0.0,0.0,0.0,0.0,0.0,0.0,0.0,0.0,0.0,0.0,0.0,0.0,0.0,0.0,0.0,0.0,0.0,0.0,0.8108,0.0,0.0,0.0,0.0,0.0,0.0,0.0,0.0,0.0,0.0,2.1914,2.2423,2.3129,2.4317,0.0,0.0,0.0,0.0,2.4808,2.5464,2.5967,2.6258,2.6116,2.7198,2.7959,2.7658,0.0,0.0,2.8526,2.9092,2.9386,2.8661,2.9179,2.9558,2.9506,2.8874,2.8613,2.8646,2.8878,2.9245,2.9396,3.0523,3.1673,1.2658,0.0,0.0,0.0,0.0,1.2524,1.3241,1.4162,1.4269,1.4131,1.3864,1.3864,0.0,0.0,0.0,0.0,0.0,0.0,1.092,1.1768,1.2468,1.2913,1.3141,1.3651,1.3868,1.388,1.3684,1.3456,1.3113,1.2578,1.1296,0.933,0.0,0.0,0.0,0.0,1.2709,1.3664,1.4679,1.558,1.6349,1.6392,1.6405,1.6417,1.5979,1.5536,1.5186,1.4472,1.3856,1.3338,1.2061,0.0,0.0,0.0,0.0,0.0,0.0,0.0,0.0,0.0,0.0,0.0,0.0,0.0,0.0,0.0,0.0,0.0,0.0,0.0,0.8489,0.8674,0.9481,0.0,0.0,0.0,0.0,0.0,0.0,0.0,0.0,0.0,2.4011,2.4151,2.4253,0.0,0.0,2.6088,2.57,2.5882,2.619,2.6457,2.6623,0.0,2.7105,2.7049,2.7209,2.7907,2.895,2.9763,2.9988,3.0644,3.1076,3.0834,3.0972,3.1145,3.1058,3.011,2.9383,2.9348,3.023,3.1148,3.1601,3.27,3.3706,1.4074,1.3032,1.2942,1.311,1.3441,1.3577,1.4293,1.5322,1.5172,1.5162,1.526,1.5191,1.4283,1.2726,1.1897,0.0,0.0,0.0,1.1665,1.2637,1.2768,1.3005,1.3319,1.3627,1.3752,1.3718,1.3468,1.3424,1.3607,1.3553,1.2718,1.1169,0.0,0.0,1.1303,1.2639,1.3739,1.4558,1.5247,1.5877,1.6423,1.6436,1.63,1.6004,1.5614,1.5338,1.5216,1.4741,1.4298,1.3906,1.3184,1.1974,0.0,0.0,0.0,0.0,0.0,0.0,0.0,0.0,0.0,0.0,0.0,0.7549,0.0,0.0,0.0,0.0,0.9188,0.9889,0.9919,1.0565,0.0,0.0,0.0,0.0,0.0,0.0,0.0,2.0115,2.2573,2.4591,2.5424,2.5842,2.6005,2.5941,2.6432,2.6729,2.6523,0.0,2.6754,2.7079,2.7192,2.7425,2.7975,2.7758,2.7867,2.8929,2.9833,3.0578,3.1072,3.1524,3.1783,3.18,3.18,3.1886,3.2179,3.1472,3.0851,3.0869,3.1871,3.2833,3.3195,3.4138,3.4995,1.4949,1.4484,1.4201,1.4119,1.4163,1.4277,1.4837,1.5584,1.5063,1.5472,1.6553,1.6448,1.5604,1.4209,1.2405,0.0,1.285,1.2453,1.2706,1.3515,1.3089,1.2915,1.2915,1.2905,1.2915,1.2915,1.2915,1.3113,1.3515,1.3586,1.3564,1.3531,1.3545,1.3562,1.3602,1.4152,1.4785,1.5471,1.5963,1.6297,1.65,1.6513,1.6249,1.5801,1.5498,1.5144,1.4712,1.4765,1.4637,1.427,1.3905,1.3371,1.254,0.0,0.0,0.0,0.0,0.0,0.0,0.0,0.0,0.0,0.0,0.0,0.0,0.0,0.0,0.0,1.1362,0.0,1.192,1.3202,0.0,0.0,0.0,1.7311,1.8532,2.0077,2.1059,2.106,0.0,0.0,2.6383,2.7375,2.8,2.8009,2.7355,2.7108,2.7647,2.7167,2.6938,2.7596,2.775,2.8053,2.8646,2.8864,2.9233,3.0098,3.0747,3.1069,3.149,3.1691,3.1727,3.1709,3.1797,3.2076,3.2766,3.2904,3.3093,3.3078,3.3688,3.4268,3.4345,3.5087,3.578,1.4456,1.4331,1.4283,1.4369,1.4577,1.4704,1.4882,1.5101,1.5035,1.5205,1.5465,1.5355,1.4965,1.4406,1.36,1.328,1.3382,1.2928,1.2856,1.3041,1.2954,1.2915,1.2915,1.2915,1.2915,1.2915,1.2915,1.2954,1.3089,1.344,1.3567,1.3602,1.3926,1.4103,1.4149,1.5203,1.5825,1.6003,1.6235,1.6392,1.65,1.6513,1.6459,1.63,1.5479,1.5075,1.5201,1.4426,1.4192,1.4617,1.3671,1.355,1.4507,1.1332,0.0,0.0,0.0,0.0,0.0,0.0,0.0,0.0,0.0,1.0877,0.8901,0.0,1.1495,0.0,1.2042,1.4529,1.3743,1.455,0.0,0.0,1.8493,1.975,2.1538,2.2574,2.3233,2.3372,2.5428,2.6985,2.7334,2.8223,2.8816,2.8816,2.8651,2.8415,2.8084,2.8329,2.8519,2.866,2.8715,2.8832,2.8974,2.9052,2.9312,2.9875,3.0038,3.0267,3.0744,3.1064,3.1276,3.1329,3.2059,3.266,3.2921,3.3818,3.4616,3.478,3.4978,3.5176,3.5314,3.5985,3.6569,1.3871,1.3681,1.3658,1.3752,1.3931,1.4199,1.449,1.4698,1.4524,1.4593,1.4801,1.4467,1.4247,1.4064,1.3613,1.3358,1.3272,1.3017,1.2915,1.2915,1.2915,1.2915,1.2915,1.2915,1.2915,1.2915,1.2915,1.2915,1.2905,1.3162,1.3406,1.3621,1.392,1.4146,1.4326,1.4998,1.5524,1.5834,1.6241,1.6457,1.6513,1.6513,1.6387,1.6137,1.5567,1.5119,1.4837,1.4375,1.4043,1.394,1.3524,1.3657,1.4355,1.219,1.0382,0.0,0.0,0.0,0.0,0.0,0.0,0.0,0.0,0.0,0.0,0.0,1.451,1.1867,1.5414,1.7342,1.6139,1.7313,1.8561,1.9567,2.0838,2.1999,2.2978,2.4105,2.4872,2.5054,2.6496,2.7596,2.7937,2.8629,2.9114,2.9114,2.9114,2.8933,2.8595,2.8762,2.8967,2.8951,2.8982,2.9052,2.9075,2.9114,2.9243,2.9683,2.9793,2.9968,3.0398,3.0845,3.1205,3.1599,3.2342,3.3162,3.38,3.4619,3.5405,3.585,3.6018,3.606,3.6177,3.6551,3.6928,1.3272,1.2905,1.2915,1.2915,1.2929,1.3344,1.3813,1.4283,1.3766,1.3836,1.4272,1.3766,1.3518,1.3487,1.3084,1.2915,1.2915,1.2915,1.2915,1.2915,1.2915,1.2915,1.2915,1.2915,1.2915,1.2915,1.2915,1.2915,1.2915,1.2929,1.3128,1.3501,1.3647,1.3849,1.4118,1.4165,1.464,1.5522,1.6151,1.6479,1.6513,1.6513,1.6262,1.5819,1.5668,1.516,1.4267,1.4395,1.4098,1.3203,1.3557,1.3656,1.3411,1.2708,1.2231,0.0,1.1194,0.0,0.0,0.0,0.0,0.0,0.0,0.0,0.0,1.6345,1.6954,1.6812,1.9367,2.032,1.8724,2.0387,2.1486,2.1341,2.2827,2.3848,2.377,2.5016,2.6017,2.6338,2.7061,2.7767,2.8324,2.8811,2.9114,2.9114,2.9114,2.9059,2.8967,2.8889,2.8873,2.8842,2.8905,2.9006,2.9075,2.9114,2.922,2.9611,2.9677,2.9853,3.0204,3.0786,3.1378,3.2046,3.2781,3.368,3.501,3.5368,3.5836,3.6528,3.6696,3.6739,3.6779,3.6876,3.6987,1.2978,1.2915,1.2915,1.2915,1.2905,1.2992,1.3162,1.3344,1.33,1.33,1.3344,1.3234,1.3138,1.3031,1.2954,1.2915,1.2915,1.2915,1.2915,1.2915,1.2915,1.2915,1.2915,1.2915,1.2915,1.2915,1.2915,1.2915,1.2915,1.3002,1.3051,1.3051,1.3162,1.321,1.3176,0.0,0.0,0.0,1.6349,1.6457,1.6513,1.6513,1.645,1.6325,1.5512,0.0,1.4752,1.4398,1.4231,1.4258,1.3873,0.0,0.0,0.0,0.0,0.0,0.0,0.0,0.0,0.0,0.0,0.0,1.5431,1.5373,1.5327,1.645,1.7352,1.7882,1.9783,2.0857,2.0538,2.1305,2.2083,2.2504,2.3366,2.4259,2.5204,2.5658,2.6213,2.722,2.7618,2.8102,2.8756,2.9052,2.9114,2.9146,2.9114,2.9075,2.9099,2.9076,2.9029,2.9045,2.9029,2.9075,2.9114,2.9114,2.9137,2.9236,2.9236,2.9305,2.9544,3.0642,3.1508,3.1833,3.3386,3.4803,3.5319,3.5861,3.6356,3.6713,3.6788,3.6849,3.693,3.697,3.6989,1.2915,1.2915,1.2915,1.2915,0.0,1.2915,1.2929,1.3002,1.3031,1.314,1.3297,1.3322,1.3369,1.3488,1.3484,1.3496,1.3506,1.3496,1.3389,1.3193,1.3184,1.3076,1.2915,1.2915,1.2915,1.2915,1.2915,1.2915,1.2915,1.2964,1.2964,1.2915,1.2978,1.2978,1.2929,1.3658,1.4652,1.5888,1.625,1.6491,1.6513,1.6513,1.6375,1.6099,1.5844,0.0,0.0,0.0,0.0,0.0,0.0,0.0,0.0,0.0,0.0,1.6078,1.5312,1.4761,1.479,1.5385,1.6139,1.7096,1.7444,1.7374,1.6779,1.7606,1.8419,1.9116,2.0857,2.1808,2.1554,2.2367,2.3064,2.3412,2.4254,2.511,2.5716,2.6108,2.6531,2.7119,2.762,2.8085,2.8439,2.8873,2.9256,2.958,2.9643,2.9769,2.9998,2.9525,2.9114,2.9114,2.9114,2.9114,2.9114,2.9114,2.9272,2.9532,2.9643,2.9801,3.0077,3.1039,3.1933,3.2586,3.3878,3.4983,3.5817,3.6318,3.6643,3.6768,3.6869,3.6928,3.697,3.6989,3.6989,1.2915,1.2915,1.2915,1.2915,1.2915,1.2983,1.3037,1.3096,1.3027,0.0,0.0,1.3572,1.3791,1.4093,1.4101,1.4114,1.4114,1.4114,1.3929,1.3597,1.3623,1.3437,1.313,1.3027,1.3023,1.2988,1.292,1.2905,1.2929,1.2944,1.2954,1.2954,1.2944,1.3031,1.3248,1.4167,1.4971,1.5567,1.6173,1.6479,1.6513,1.6513,1.6296,1.5856,1.6162,1.5944,1.5085,1.5454,1.5299,1.4437,1.4528,1.4026,1.2804,1.4556,1.6163,1.7207,1.7328,1.7357,1.7388,1.749,1.7766,1.8332,1.8811,1.8956,1.855,1.8898,1.9464,2.0364,2.1953,2.2736,2.2381,2.3238,2.4016,2.4196,2.5178,2.5832,2.5966,2.6431,2.6829,2.7026,2.7555,2.8033,2.8406,2.895,2.958,3.018,3.0394,3.0552,3.0923,3.0235,2.9619,2.9619,2.9572,2.9414,2.9477,2.9446,2.9635,3.0243,3.0354,3.0575,3.1107,3.1702,3.2478,3.3393,3.4175,3.5112,3.6167,3.6568,3.6728,3.6829,3.6911,3.6989,3.6989,3.6989,3.6989,1.2915,1.2915,1.2915,1.2915,1.291,1.3271,1.3623,1.3899,1.3574,1.3441,1.3529,1.387,1.4038,1.4089,1.4097,1.4114,1.4114,1.4114,1.4048,1.4016,1.4026,1.3987,1.3909,1.3584,1.3418,1.3398,1.3047,1.2954,1.3075,1.3118,1.3118,1.3075,1.3118,1.3518,1.4283,1.4949,1.5611,1.6262,1.6349,1.6436,1.65,1.6513,1.6463,1.6375,1.6019,1.5776,1.5613,1.5655,1.5638,1.55,1.5507,1.5816,1.6527,1.6155,1.6482,1.7603,1.7922,1.8071,1.8053,1.855,1.8883,1.897,1.9058,1.9304,1.9769,1.9377,1.9812,2.1525,2.2475,2.3113,2.3566,2.3804,2.437,2.5299,2.5687,2.601,2.6559,2.6733,2.7011,2.7605,2.7839,2.8483,2.9498,2.9935,3.0291,3.0875,3.1144,3.116,3.1255,3.1065,3.0914,3.0851,3.0551,3.0503,3.0614,3.0519,3.0519,3.0961,3.1065,3.1128,3.1324,3.2142,3.2942,3.3414,3.4549,3.5555,3.6262,3.6571,3.6791,3.6911,3.6987,3.6989,3.6989,3.7007,3.6989,1.335,1.3545,1.3564,1.3555,1.3574,1.4096,1.4234,1.4158,1.4526,1.451,1.4236,1.4414,1.4582,1.4786,1.4796,1.4806,1.4796,1.4796,1.4679,1.4492,1.4482,1.4328,1.4104,1.3909,1.373,1.3506,1.332,1.3155,1.2998,1.3007,1.3031,1.3027,1.3348,1.3886,1.4595,1.5208,1.5832,1.6436,1.6457,1.6479,1.65,1.6513,1.6513,1.6522,1.6237,1.6145,1.6132,1.6132,1.6145,1.6145,1.6111,1.6384,1.6854,1.6817,1.7153,1.8012,1.8442,1.8695,1.868,1.8941,1.9261,1.9609,1.9653,2.0074,2.1061,2.0509,2.0654,2.1917,2.3142,2.3911,2.3934,2.4525,2.5154,2.5745,2.6108,2.6486,2.6721,2.6794,2.7026,2.7564,2.8152,2.8863,2.9755,3.0391,3.1002,3.1665,3.206,3.2329,3.2288,3.2329,3.206,3.1356,3.1009,3.0977,3.1191,3.1024,3.116,3.1681,3.1776,3.195,3.2234,3.2886,3.3394,3.4107,3.491,3.5615,3.6364,3.669,3.6831,3.695,3.6989,3.6989,3.7007,3.7085,3.7124,1.388,1.4291,1.4167,1.4163,1.4304,1.4767,1.472,1.4508,1.5265,1.5399,1.5016,1.496,1.5107,1.54,1.542,1.541,1.542,1.542,1.5225,1.497,1.4922,1.4746,1.4406,1.4309,1.4111,1.3851,1.3639,1.3406,1.3185,1.3066,1.3065,1.3234,1.3695,1.4283,1.4892,1.5488,1.6008,1.6479,1.6513,1.6513,1.6513,1.6513,1.6513,1.6513,1.65,1.6513,1.6513,1.6513,1.6513,1.6513,1.6513,1.6531,1.6671,1.7136,1.7679,1.8305,1.8822,1.9116,1.9116,1.9261,1.9551,2.0045,2.0219,2.0785,2.1786,2.138,2.1336,2.2236,2.378,2.4578,2.4355,2.5081,2.5836,2.6036,2.6486,2.675,2.6779,2.6794,2.6989,2.7522,2.8374,2.921,2.994,3.0835,3.1713,3.2392,3.2977,3.3277,3.3293,3.3293,3.2787,3.2092,3.1681,3.1719,3.1672,3.1703,3.1966,3.2481,3.2529,3.2692,3.3114,3.3298,3.3764,3.4583,3.4985,3.556,3.6489,3.6791,3.6871,3.697,3.6989,3.6989,3.6989,3.7163,3.7239,1.441,1.4799,1.4374,1.4365,1.4735,1.4828,1.5006,1.5273,1.5419,1.5516,1.5564,1.5419,1.5361,1.541,1.542,1.542,1.542,1.542,1.5381,1.5342,1.5361,1.5332,1.5215,1.4893,1.479,1.4715,1.41,1.3805,1.3866,1.3531,1.3586,1.4059,1.4329,1.479,1.5477,1.6042,1.6371,1.6513,1.6513,1.6513,1.6513,1.6513,1.6513,1.6513,1.6513,1.6513,1.6513,1.6513,1.6513,1.6513,1.6513,1.668,1.7073,1.7303,1.7707,1.8436,1.886,1.9116,1.9145,1.9667,2.003,2.0132,2.064,2.122,2.1902,2.1423,2.1525,2.2722,2.4041,2.4737,2.4766,2.54,2.6054,2.6547,2.6707,2.6794,2.682,2.6794,2.7078,2.7765,2.8622,2.9505,3.0826,3.1719,3.2408,3.2993,3.3182,3.3293,3.3293,3.3293,3.3277,3.3072,3.3072,3.3024,3.2977,3.3087,3.2993,3.3119,3.3209,3.324,3.3356,3.3555,3.3917,3.4704,3.5111,3.5676,3.6346,3.6748,3.695,3.697,3.6989,3.6989,3.7009,3.7182,3.7295,1.5325,1.5753,1.5515,1.5281,1.5204,1.5535,1.5656,1.5594,1.597,1.5951,1.5701,1.5604,1.5575,1.5575,1.5478,1.542,1.542,1.542,1.542,1.542,1.542,1.542,1.5391,1.5244,1.5058,1.4907,1.4597,1.4241,1.3937,1.3779,1.3884,1.4154,1.4778,1.5309,1.5632,1.6173,1.6479,1.65,1.6513,1.6513,1.6513,1.6513,1.6513,1.6513,1.6513,1.6513,1.6513,1.6513,1.6513,1.6513,1.6513,1.6701,1.7178,1.701,1.7359,1.8403,1.886,1.9275,1.9653,1.9943,2.0422,2.1148,2.1438,2.1873,2.2446,2.2272,2.2519,2.3412,2.4288,2.494,2.5371,2.6006,2.653,2.6762,2.6794,2.6794,2.6794,2.7015,2.7505,2.8415,2.9368,3.0417,3.1618,3.244,3.2961,3.3261,3.3293,3.3293,3.3293,3.3293,3.3293,3.3293,3.3293,3.3293,3.3293,3.3293,3.3293,3.3335,3.345,3.3513,3.3565,3.3745,3.4193,3.4971,3.5323,3.5851,3.6673,3.6831,3.6989,3.6989,3.6989,3.7009,3.7143,3.7334,3.7484,1.639,1.6705,1.6472,1.6065,1.5661,1.5911,1.5931,1.5759,1.6181,1.6134,1.5788,1.5711,1.5682,1.5672,1.5478,1.542,1.542,1.542,1.542,1.5439,1.5555,1.5546,1.541,1.5575,1.5426,1.5103,1.5002,1.4606,1.4013,1.4084,1.426,1.4535,1.5242,1.5676,1.5886,1.6315,1.6513,1.6513,1.6513,1.6513,1.6513,1.6513,1.6513,1.6513,1.6513,1.6513,1.6513,1.6513,1.6513,1.6513,1.6616,1.6829,1.7157,1.6976,1.7421,1.8548,1.9104,1.958,2.0088,2.0436,2.1003,2.1873,2.2135,2.2439,2.2772,2.2888,2.3287,2.4094,2.4892,2.5575,2.5774,2.6428,2.6765,2.6794,2.6794,2.6846,2.6963,2.7248,2.7844,2.9027,2.9924,3.1134,3.2283,3.2961,3.3277,3.3293,3.3293,3.3293,3.3293,3.3293,3.3293,3.3293,3.3293,3.3293,3.3293,3.3293,3.3293,3.3424,3.3565,3.3694,3.3797,3.405,3.4448,3.5134,3.5431,3.5912,3.6676,3.695,3.6989,3.6989,3.6989,3.7068,3.722,3.7447,3.7649,1.7484,1.7809,1.6771,1.6312,1.6226,1.5719,1.5565,1.5711,1.5788,1.5817,1.5856,1.5769,1.5711,1.5672,1.5507,1.541,1.5439,1.541,1.5439,1.5546,1.5997,1.594,1.5468,1.5968,1.6054,1.5697,1.5321,1.4945,1.4622,1.4634,1.4896,1.5538,1.5681,1.5944,1.6374,1.6491,1.6513,1.6513,1.6513,1.6513,1.6513,1.6513,1.6513,1.6513,1.6513,1.6513,1.6513,1.6513,1.6513,1.6513,1.6892,1.7178,1.724,1.7557,1.8147,1.9032,1.9677,2.0059,2.0291,2.1191,2.1902,2.2091,2.2519,2.2859,2.296,2.2917,2.3461,2.465,2.585,2.6399,2.5995,2.6457,2.6779,2.6806,2.682,2.6989,2.7325,2.7427,2.8082,2.9341,3.0334,3.1482,3.3014,3.3277,3.3293,3.3293,3.3293,3.3293,3.3293,3.3293,3.3293,3.3309,3.3309,3.3293,3.3293,3.3346,3.345,3.3581,3.3694,3.3822,3.4034,3.4358,3.484,3.5295,3.5627,3.6062,3.6696,3.6989,3.6989,3.6989,3.7029,3.7124,3.7334,3.7484,3.7685,1.7902,1.8011,1.723,1.6669,1.6283,1.6054,1.5931,1.5856,1.6239,1.622,1.5943,1.5856,1.5701,1.5497,1.5835,1.5968,1.594,1.5575,1.5806,1.6443,1.6397,1.6397,1.6585,1.6782,1.681,1.6631,1.6223,1.5921,1.5788,1.6187,1.6572,1.6751,1.6761,1.6871,1.6977,1.6676,1.6513,1.6513,1.6513,1.6513,1.6513,1.6513,1.6513,1.6513,1.6513,1.6513,1.6513,1.6513,1.6513,1.6522,1.6947,1.731,1.7618,1.8246,1.915,2.0135,2.0175,2.0465,2.122,2.1728,2.2193,2.2548,2.2757,2.3113,2.336,2.3215,2.3548,2.5023,2.6155,2.6631,2.6573,2.6675,2.6779,2.6832,2.7015,2.7222,2.7437,2.7815,2.8667,3.0076,3.1378,3.2641,3.3035,3.3293,3.3293,3.3293,3.3293,3.3293,3.3293,3.3293,3.3293,3.3319,3.345,3.3539,3.3555,3.3555,3.3633,3.3771,3.3924,3.4151,3.4399,3.4578,3.5015,3.5515,3.5847,3.6186,3.6774,3.6989,3.6989,3.7046,3.7066,3.7222,3.7429,3.7631,3.7846,1.8402,1.8282,1.7765,1.7257,1.6877,1.6443,1.6247,1.6163,1.6392,1.6249,1.5914,1.5885,1.5691,1.5555,1.6016,1.6425,1.6528,1.6169,1.6415,1.7146,1.6968,1.7006,1.7202,1.7396,1.7396,1.7174,1.6944,1.6724,1.6711,1.7217,1.7506,1.7521,1.7557,1.7593,1.7493,1.7052,1.6776,1.6785,1.66,1.6513,1.6513,1.6513,1.6513,1.6513,1.6513,1.6513,1.6513,1.6513,1.6513,1.6586,1.7073,1.7639,1.822,1.8984,1.9885,2.0799,2.0843,2.1061,2.1859,2.2178,2.2461,2.283,2.2902,2.3186,2.3775,2.365,2.4254,2.5353,2.6283,2.6794,2.6832,2.691,2.6937,2.6884,2.717,2.7437,2.759,2.8354,2.9472,3.0863,3.2259,3.3124,3.3293,3.3293,3.3293,3.3293,3.3293,3.3293,3.3293,3.3293,3.3346,3.344,3.3581,3.3736,3.3822,3.3924,3.3975,3.4126,3.4176,3.4423,3.4691,3.4883,3.5218,3.571,3.6101,3.6412,3.6693,3.693,3.7046,3.7085,3.7182,3.7334,3.7558,3.7775,3.7951,1.896,1.8881,1.8321,1.8011,1.7781,1.6838,1.6436,1.6485,1.6173,1.5943,1.5769,1.5827,1.5701,1.5584,1.6102,1.6641,1.7034,1.7135,1.7257,1.7424,1.7793,1.7738,1.7396,1.7875,1.7809,1.7341,1.7257,1.73,1.7322,1.7577,1.7725,1.7727,1.7944,1.8049,1.8013,1.7631,1.7398,1.726,1.6835,1.6563,1.6513,1.6513,1.6513,1.6513,1.6513,1.6513,1.6513,1.6513,1.6534,1.6629,1.7331,1.8187,1.8927,1.9648,2.0364,2.109,2.1612,2.1931,2.2077,2.2533,2.2786,2.2888,2.2888,2.3229,2.3949,2.4375,2.4897,2.5643,2.6312,2.682,2.6937,2.7144,2.7222,2.6951,2.7332,2.777,2.8126,2.8972,3.018,3.1602,3.2698,3.3245,3.3293,3.3293,3.3293,3.3293,3.3293,3.3293,3.3309,3.3335,3.345,3.3591,3.3797,3.3949,3.4126,3.43,3.4399,3.4497,3.4497,3.4618,3.489,3.5125,3.5453,3.5946,3.643,3.6733,3.6893,3.7106,3.722,3.7278,3.7371,3.7483,3.7685,3.7899,3.8003,1.9013,1.8934,1.8348,1.8093,1.8011,1.7257,1.6803,1.6599,1.6438,1.6124,1.5759,1.574,1.5643,1.57,1.6443,1.7006,1.7257,1.8011,1.8429,1.8363,1.8201,1.8228,1.8429,1.8629,1.8402,1.8011,1.8348,1.837,1.8127,1.8501,1.8846,1.893,1.8672,1.861,1.8658,1.8205,1.7802,1.7423,1.7212,1.6936,1.655,1.6513,1.6513,1.6513,1.6513,1.6513,1.6513,1.6513,1.6671,1.6947,1.7516,1.8187,1.9027,1.974,2.0785,2.2069,2.2077,2.2222,2.2577,2.2757,2.2888,2.2888,2.2888,2.3476,2.4399,2.4694,2.5288,2.6141,2.666,2.6948,2.7418,2.7448,2.7391,2.7237,2.8208,2.8909,2.9252,3.0423,3.142,3.1883,3.2724,3.323,3.3293,3.3293,3.3293,3.3293,3.3293,3.3293,3.3335,3.3466,3.3581,3.3694,3.3933,3.4209,3.4374,3.4546,3.4667,3.4763,3.4811,3.4818,3.5102,3.5447,3.5788,3.6199,3.6693,3.6989,3.7163,3.7278,3.7372,3.7503,3.7613,3.7721,3.7864,3.7986,3.8107,1.9225,1.916,1.8804,1.8658,1.8551,1.7863,1.7268,1.6832,1.6655,1.6228,1.5691,1.5672,1.5575,1.57,1.6669,1.7185,1.733,1.8467,1.9013,1.896,1.8655,1.8655,1.8987,1.9013,1.8827,1.8575,1.8946,1.9011,1.8694,1.9158,1.9434,1.9426,1.9231,1.912,1.9171,1.877,1.8292,1.7999,1.7788,1.743,1.6966,1.6838,1.6735,1.6538,1.6513,1.6513,1.6513,1.687,1.7119,1.734,1.7916,1.8635,1.9142,2.0175,2.1467,2.2461,2.262,2.2519,2.2844,2.2873,2.2888,2.2888,2.2888,2.3476,2.4559,2.4926,2.5618,2.6547,2.6989,2.7295,2.767,2.7845,2.7891,2.8228,2.898,2.9887,3.052,3.1587,3.2313,3.2519,3.2977,3.323,3.3293,3.3293,3.3293,3.3293,3.3293,3.3372,3.3424,3.3581,3.372,3.3924,3.4209,3.4448,3.4635,3.478,3.493,3.5024,3.5095,3.5148,3.531,3.5761,3.6152,3.6612,3.7068,3.7203,3.7372,3.7448,3.754,3.7703,3.7846,3.7899,3.7986,3.809,3.8193,1.963,1.963,1.9578,1.9526,1.9396,1.8471,1.7738,1.7257,1.6832,1.6247,1.5671,1.572,1.5681,1.5777,1.6726,1.723,1.749,1.8467,1.9013,1.9013,1.8934,1.896,1.9013,1.9013,1.896,1.8972,1.9117,1.917,1.909,1.9328,1.942,1.9448,1.9515,1.9579,1.9506,1.9221,1.8982,1.8789,1.8453,1.7991,1.7465,1.7432,1.7212,1.6726,1.6726,1.6782,1.701,1.7796,1.802,1.7692,1.8845,1.9441,1.9619,2.1003,2.2178,2.2815,2.2888,2.2844,2.2873,2.2888,2.2888,2.2888,2.3018,2.3438,2.4621,2.5296,2.594,2.6857,2.7346,2.77,2.7885,2.8238,2.8894,2.962,2.9981,3.0726,3.2041,3.2386,3.2655,3.3072,3.3293,3.3319,3.3372,3.3398,3.3372,3.3398,3.3424,3.3555,3.3668,3.3848,3.4025,3.425,3.4472,3.4618,3.478,3.4977,3.5142,3.5241,3.5424,3.565,3.5722,3.6152,3.6527,3.697,3.7369,3.7482,3.7558,3.7667,3.7775,3.7899,3.8004,3.8039,3.8235,3.8447,3.8681,2.0042,2.0029,1.972,1.9591,1.9448,1.8525,1.8011,1.7781,1.7257,1.668,1.6169,1.6122,1.6122,1.6159,1.6866,1.7424,1.7929,1.8655,1.9013,1.9013,1.9013,1.9013,1.9013,1.9013,1.9013,1.9025,1.9143,1.9208,1.9208,1.9368,1.9447,1.9539,1.9591,1.9656,1.9683,1.9622,1.9371,1.9042,1.8906,1.8545,1.807,1.7978,1.7928,1.7779,1.7727,1.7931,1.8373,1.9279,1.9737,1.9627,2.0188,2.0561,2.059,2.1481,2.2309,2.278,2.2888,2.2888,2.2888,2.2888,2.2888,2.2946,2.3362,2.4007,2.4791,2.5648,2.6456,2.725,2.7845,2.8247,2.8643,2.9095,2.9955,3.13,3.1467,3.1895,3.2698,3.304,3.3119,3.3277,3.3293,3.3477,3.3694,3.371,3.3642,3.3797,3.3848,3.3873,3.3975,3.4126,3.43,3.4448,3.4618,3.478,3.4947,3.5142,3.531,3.5453,3.5766,3.6237,3.6406,3.6673,3.697,3.7278,3.7753,3.7953,3.7936,3.7987,3.8074,3.8433,3.836,3.854,3.8901,3.917,3.9496,2.0447,2.0422,2.0016,1.9849,1.9746,1.8857,1.8348,1.8066,1.7727,1.723,1.6782,1.6669,1.6669,1.6743,1.7313,1.7754,1.8159,1.8735,1.8987,1.9013,1.9013,1.9013,1.9013,1.9013,1.9025,1.9117,1.9223,1.9328,1.9394,1.9486,1.9604,1.9656,1.9682,1.9708,1.9773,1.9786,1.9661,1.9396,1.9334,1.9083,1.8571,1.8532,1.8368,1.8327,1.8416,1.8907,1.9872,2.0498,2.0854,2.1048,2.1297,2.1525,2.1815,2.2127,2.2562,2.2888,2.2888,2.2888,2.2888,2.2888,2.2888,2.3049,2.3643,2.4294,2.4961,2.5901,2.6922,2.7415,2.8036,2.8503,2.8912,2.9678,3.0826,3.1972,3.2647,3.2996,3.3288,3.3277,3.3293,3.3319,3.3398,3.3591,3.4034,3.3949,3.3949,3.4025,3.405,3.4126,3.425,3.4423,3.4562,3.4667,3.4829,3.4982,3.5228,3.5438,3.6016,3.6132,3.653,3.6972,3.7158,3.7357,3.744,3.7698,3.8115,3.8438,3.8526,3.8758,3.9227,3.9407,3.9188,3.9242,3.9659,3.9876,4.0202,2.0809,2.0709,2.0346,2.0182,1.9978,1.933,1.8682,1.8294,1.8213,1.7863,1.7396,1.7296,1.7285,1.7341,1.7754,1.8131,1.8255,1.8789,1.896,1.9013,1.9013,1.9013,1.9013,1.9013,1.9078,1.9196,1.9354,1.946,1.9565,1.9708,1.9773,1.9773,1.9773,1.9798,1.9798,1.9798,1.9798,1.9761,1.9723,1.951,1.9157,1.907,1.8981,1.8896,1.9383,2.0111,2.1013,2.1484,2.1661,2.2048,2.2106,2.2316,2.2772,2.2873,2.2888,2.2888,2.2888,2.2888,2.2888,2.2888,2.3006,2.3293,2.4102,2.4748,2.5363,2.6474,2.7382,2.764,2.8189,2.8794,2.939,3.0431,3.1516,3.2457,3.3246,3.3491,3.3424,3.3372,3.3388,3.3372,3.3581,3.3848,3.4075,3.4151,3.4151,3.4374,3.4374,3.4423,3.4497,3.4594,3.4732,3.4828,3.5006,3.5241,3.5485,3.579,3.6481,3.7011,3.7525,3.7901,3.8024,3.8125,3.8041,3.8259,3.896,3.9319,3.9426,3.9804,4.0256,4.022,3.9876,4.0184,4.0583,4.0619,4.0836,2.0896,2.0321,2.022,2.0029,1.9694,1.9198,1.8934,1.8801,1.8789,1.8429,1.8011,1.7902,1.7902,1.7929,1.8093,1.836,1.8735,1.8934,1.9013,1.9013,1.9013,1.9013,1.9013,1.9013,1.9078,1.9208,1.9328,1.946,1.9604,1.9734,1.9798,1.9798,1.9798,1.9798,1.9798,1.9798,1.9798,1.9798,1.9798,1.9761,1.9635,1.9573,1.9712,2.0005,2.0887,2.1523,2.1963,2.2363,2.2581,2.2685,2.2707,2.2736,2.2844,2.2888,2.2888,2.2888,2.2888,2.2888,2.2888,2.2968,2.3279,2.4043,2.4787,2.5583,2.6533,2.7474,2.8104,2.8383,2.8897,2.9702,3.0823,3.1286,3.2148,3.3067,3.3566,3.3736,3.3684,3.3771,3.3781,3.3781,3.3899,3.4201,3.4618,3.4472,3.4521,3.4683,3.4732,3.4756,3.478,3.4763,3.4875,3.4994,3.5464,3.5796,3.6344,3.6751,3.753,3.802,3.8472,3.8993,3.9112,3.9154,3.9157,3.9463,3.9968,4.0203,4.0275,4.0437,4.08,4.0655,4.0691,4.1017,4.1288,4.1361,4.1488,2.0573,2.0195,2.0003,1.9798,1.9526,1.9172,1.9013,1.9013,1.9013,1.8815,1.8575,1.8509,1.8509,1.8509,1.8536,1.8735,1.8934,1.9013,1.9013,1.9013,1.9013,1.9013,1.9025,1.9078,1.9158,1.9302,1.938,1.9525,1.9682,1.9747,1.9798,1.9798,1.9798,1.9798,1.9798,1.9798,1.9798,1.9798,1.9798,1.9798,1.9798,1.9824,2.0245,2.0944,2.1756,2.2278,2.254,2.2723,2.2851,2.2888,2.2888,2.2888,2.2888,2.2888,2.2888,2.2888,2.2888,2.2888,2.2902,2.3238,2.3689,2.4491,2.5488,2.6292,2.7137,2.8068,2.8599,2.8693,2.9193,3.0199,3.1754,3.2313,3.2852,3.3561,3.4,3.4075,3.4075,3.4101,3.4101,3.4101,3.4201,3.4489,3.4683,3.4683,3.4732,3.4804,3.4804,3.4851,3.4851,3.4875,3.5024,3.5268,3.589,3.6451,3.712,3.7858,3.872,3.9123,3.9386,3.9991,4.0375,4.0399,4.0365,4.0619,4.08,4.0999,4.1107,4.1234,4.1488,4.1759,4.1904,4.1977,4.2031,4.2122,4.2266,2.0156,2.0003,1.972,1.9565,1.946,1.9133,1.9013,1.9013,1.9013,1.8987,1.8987,1.9013,1.8907,1.8987,1.896,1.8987,1.9013,1.9013,1.9013,1.9013,1.9013,1.9013,1.9025,1.9105,1.9237,1.9394,1.9447,1.9591,1.9734,1.9798,1.9798,1.9798,1.9798,1.9798,1.9798,1.9798,1.9798,1.9798,1.9798,1.9798,1.985,1.9927,2.0522,2.1431,2.2039,2.25,2.2752,2.2865,2.2888,2.2888,2.2888,2.2888,2.2888,2.2888,2.2888,2.2888,2.2888,2.3012,2.3238,2.3664,2.4231,2.4814,2.6213,2.7187,2.7713,2.8466,2.8888,2.9138,2.9589,3.0703,3.2089,3.269,3.3372,3.3989,3.4374,3.4472,3.4472,3.4341,3.4349,3.444,3.4538,3.4691,3.4804,3.4851,3.4899,3.4899,3.4899,3.4899,3.4899,3.5067,3.5248,3.5836,3.6535,3.7931,3.8755,3.9242,4.0087,4.0362,4.053,4.0934,4.1499,4.1538,4.1468,4.1343,4.1469,4.1705,4.194,4.2103,4.2411,4.2883,4.2829,4.252,4.2629,4.2883,4.2901,1.9798,1.9225,1.9474,1.9408,1.9119,1.9013,1.9013,1.9013,1.9013,1.9013,1.9013,1.9013,1.9013,1.9013,1.9013,1.9013,1.9013,1.9013,1.9013,1.9013,1.9013,1.9013,1.904,1.9158,1.9302,1.9394,1.9512,1.9656,1.9773,1.9798,1.9798,1.9798,1.985,1.985,1.9875,1.9824,1.9901,1.9991,1.9952,1.9901,2.0055,2.0409,2.0981,2.1921,2.244,2.2752,2.2843,2.2888,2.2888,2.2888,2.2888,2.2888,2.2902,2.2902,2.2954,2.2947,2.2983,2.3223,2.3679,2.4187,2.5242,2.6466,2.7395,2.828,2.893,2.939,2.9528,2.9945,3.061,3.1785,3.3321,3.347,3.3712,3.4219,3.4472,3.4521,3.4546,3.4618,3.4691,3.4756,3.4804,3.4811,3.4875,3.4899,3.4899,3.4899,3.4899,3.4899,3.4899,3.5235,3.5608,3.6399,3.7329,3.8992,4.057,4.0981,4.1523,4.1685,4.1851,4.1912,4.2351,4.2591,4.2575,4.2194,4.2176,4.2429,4.2665,4.281,4.2828,4.2901,4.2919,4.2919,4.2919,4.2919,4.2919,1.9356,1.9013,1.9198,1.9172,1.9013,1.9013,1.9013,1.9013,1.9013,1.9013,1.9013,1.9013,1.9013,1.9013,1.9013,1.9013,1.9013,1.9013,1.9013,1.9013,1.9013,1.9052,1.9105,1.9249,1.938,1.9525,1.963,1.9734,1.9811,1.9798,1.9824,1.9875,2.0042,2.0207,2.0207,2.0232,2.0371,2.0459,2.0371,2.0346,2.0633,2.114,2.1746,2.2147,2.2638,2.2865,2.2888,2.2888,2.2888,2.2888,2.2888,2.2888,2.2997,2.3254,2.341,2.3302,2.3358,2.3681,2.4349,2.4997,2.6109,2.7234,2.8021,2.8724,2.9409,2.9681,3.0117,3.1098,3.1662,3.2676,3.3644,3.3971,3.4336,3.4576,3.4691,3.4691,3.4739,3.4828,3.4875,3.4899,3.4875,3.4875,3.4899,3.4899,3.4899,3.4899,3.4899,3.4923,3.4947,3.5435,3.596,3.7313,3.8367,3.9913,4.138,4.1835,4.221,4.2512,4.2707,4.2786,4.2825,4.2864,4.2883,4.2738,4.2883,4.2919,4.2901,4.2846,4.2901,4.2919,4.2919,4.2919,4.2919,4.2919,4.2919,1.9013,1.9013,1.9013,1.9013,1.9013,1.9013,1.9013,1.9013,1.9013,1.9013,1.9013,1.9013,1.9013,1.9013,1.9013,1.9013,1.9013,1.9013,1.9013,1.9013,1.9013,1.909,1.9196,1.9316,1.9473,1.9591,1.9734,1.9798,1.9798,1.9798,1.9888,2.008,2.0434,2.0696,2.0721,2.0771,2.1077,2.1115,2.1042,2.1028,2.1527,2.1959,2.2278,2.2333,2.2692,2.2888,2.2888,2.2888,2.2888,2.291,2.291,2.2947,2.3049,2.3695,2.422,2.4388,2.4359,2.4562,2.5193,2.609,2.7063,2.8006,2.8728,2.9284,2.9633,3.0109,3.0653,3.2304,3.3232,3.3517,3.4107,3.4535,3.4793,3.4859,3.4875,3.4899,3.4875,3.4899,3.4899,3.4899,3.4899,3.4899,3.4899,3.4899,3.4899,3.4899,3.4923,3.5048,3.5145,3.5795,3.6588,3.8182,3.9534,4.0912,4.1896,4.2239,4.2512,4.2652,4.2786,4.2862,4.2881,4.29,4.2919,4.2919,4.2919,4.2919,4.2919,4.2919,4.2919,4.2919,4.2919,4.2919,4.2919,4.2939,4.2958,1.9013,1.9013,1.9013,1.9013,1.9013,1.9013,1.9013,1.9013,1.9013,1.9013,1.9013,1.9013,1.9013,1.9013,1.9013,1.9013,1.9013,1.9013,1.9013,1.9013,1.9013,1.9078,1.921,1.9316,1.9565,1.9785,1.985,1.9798,1.9927,1.9952,2.008,2.0396,2.0635,2.0858,2.1272,2.1296,2.1334,2.1407,2.1369,2.1599,2.2016,2.2208,2.2454,2.2706,2.2843,2.2888,2.2888,2.2888,2.2888,2.2925,2.3,2.3015,2.3072,2.3772,2.5871,2.6873,2.6834,2.5696,2.6399,2.7195,2.8014,2.8785,2.9546,3.0087,3.0346,3.0448,3.1011,3.2541,3.3793,3.448,3.4577,3.48,3.4899,3.4899,3.4899,3.4899,3.4899,3.4899,3.4899,3.4899,3.4899,3.4899,3.4899,3.4899,3.4899,3.4899,3.4947,3.5105,3.5675,3.6514,3.7594,3.9277,4.0394,4.1688,4.2217,4.2593,4.2707,4.2787,4.2862,4.2919,4.2919,4.2919,4.2919,4.2919,4.2919,4.2919,4.2919,4.2919,4.2919,4.2919,4.2919,4.2919,4.2919,4.2957,4.2995,1.9013,1.9013,1.9013,1.9013,1.9013,1.9013,1.9013,1.9013,1.9013,1.9013,1.9013,1.9013,1.9013,1.9052,1.9013,1.9013,1.9013,1.904,1.9013,1.904,1.9066,1.9131,1.9368,1.9682,1.9952,2.0182,2.0522,2.0782,2.0646,2.0396,2.0396,2.066,2.1202,2.1612,2.1827,2.1851,2.2039,2.218,2.2273,2.2356,2.2532,2.2601,2.2684,2.2902,2.2888,2.2888,2.2888,2.2888,2.2888,2.291,2.297,2.3045,2.3569,2.4814,2.6896,2.855,2.8339,2.7803,2.7802,2.8327,2.8885,2.939,3.0006,3.0499,3.0976,3.0952,3.1636,3.3806,3.4468,3.4849,3.4899,3.4899,3.4899,3.4899,3.4899,3.4899,3.4899,3.4899,3.4899,3.4899,3.4899,3.4899,3.4956,3.5103,3.512,3.5089,3.5267,3.5556,3.6609,3.8007,3.9227,4.064,4.1509,4.2344,4.2559,4.2805,4.2786,4.2862,4.2862,4.2919,4.2919,4.2919,4.2919,4.2919,4.2919,4.2919,4.2919,4.2919,4.2919,4.2919,4.2919,4.2919,4.2938,4.2957,4.3105,1.9105,1.9013,1.9013,1.9013,1.9013,1.9013,1.9013,1.9013,1.9119,1.9093,1.904,1.9093,1.9172,1.9198,1.9277,1.933,1.9172,1.9251,1.9303,1.9303,1.9382,1.9526,1.9837,2.0207,2.0547,2.0696,2.1028,2.1248,2.1248,2.1188,2.108,2.1031,2.1708,2.217,2.2347,2.2394,2.2509,2.2715,2.276,2.282,2.2865,2.2865,2.2865,2.2888,2.2888,2.2888,2.2917,2.3142,2.3186,2.3269,2.3562,2.3793,2.4199,2.5781,2.7647,2.908,2.9259,2.9175,2.9084,2.9323,2.9613,2.9875,3.019,3.0742,3.1659,3.1371,3.1934,3.4535,3.4783,3.4883,3.4899,3.4899,3.4899,3.4899,3.4899,3.4899,3.4899,3.4899,3.4899,3.4899,3.4899,3.4899,3.503,3.5274,3.534,3.5262,3.5514,3.6031,3.7524,3.9286,4.039,4.1595,4.2011,4.2591,4.2767,4.29,4.29,4.2919,4.2919,4.2919,4.2919,4.2919,4.2919,4.2919,4.2919,4.2919,4.2919,4.2919,4.2919,4.2919,4.2919,4.2938,4.2975,4.3032,4.332,1.933,1.9013,1.9013,1.904,1.9013,1.9013,1.9013,1.9146,1.9408,1.9356,1.9198,1.9356,1.95,1.9642,1.9823,1.9811,1.9578,1.9939,1.9965,2.0093,2.0321,2.0271,2.0434,2.0721,2.1091,2.1091,2.1465,2.1561,2.1537,2.1921,2.1983,2.2161,2.2231,2.2486,2.2646,2.2729,2.2752,2.2888,2.2888,2.2888,2.2888,2.2888,2.2888,2.2902,2.2902,2.2925,2.2931,2.3514,2.3926,2.4034,2.4514,2.4737,2.5091,2.6658,2.8442,2.9664,2.9924,2.9892,3.0004,2.9982,3.0097,3.021,3.0502,3.1009,3.1967,3.2415,3.3342,3.4568,3.4866,3.4899,3.4899,3.4899,3.4899,3.4899,3.4899,3.4899,3.4899,3.4899,3.4899,3.4899,3.4987,3.5115,3.5546,3.5904,3.5887,3.5826,3.7028,3.7593,3.8912,4.0475,4.1289,4.2119,4.2375,4.2689,4.2843,4.2919,4.2919,4.2919,4.2919,4.2919,4.2919,4.2919,4.2919,4.2919,4.2919,4.2919,4.2919,4.2956,4.2975,4.2938,4.2957,4.3031,4.3267,4.3493,4.3844,1.9291,1.9382,1.9344,1.9356,1.9344,1.9093,1.9277,1.9656,1.963,1.9694,1.9746,1.9668,1.9746,1.9978,2.008,2.0131,2.0003,2.0118,2.0233,2.022,2.0296,2.0472,2.0709,2.1177,2.1516,2.1756,2.2063,2.231,2.2402,2.2509,2.2578,2.2638,2.2592,2.2706,2.2865,2.2888,2.2888,2.2888,2.2888,2.2888,2.2888,2.2888,2.2888,2.2888,2.3426,2.3545,2.3722,2.4309,2.4637,2.4952,2.5416,2.5577,2.5875,2.7543,2.9066,3.0276,3.0241,3.0305,3.0405,3.0405,3.0363,3.0516,3.0877,3.1515,3.2315,3.2619,3.3464,3.4319,3.4899,3.4899,3.4899,3.4899,3.4899,3.4899,3.4923,3.4947,3.497,3.4994,3.5118,3.5195,3.5381,3.5574,3.6095,3.665,3.6551,3.6528,3.794,3.9264,4.0437,4.1329,4.2024,4.2434,4.2655,4.2747,4.2881,4.2919,4.2919,4.2919,4.2919,4.2919,4.2919,4.2919,4.2919,4.2919,4.2919,4.2956,4.2975,4.3012,4.303,4.3031,4.3105,4.3196,4.3494,4.3961,4.4524,1.9539,1.9746,1.9642,1.9656,1.9708,1.9474,1.9682,2.0093,2.0042,2.0182,2.0536,2.0169,2.0093,2.0346,2.0523,2.0472,2.0447,2.0523,2.0586,2.0661,2.0772,2.0833,2.1202,2.1626,2.2077,2.2394,2.2646,2.2843,2.2783,2.2865,2.2865,2.2843,2.2888,2.2888,2.2888,2.2888,2.2888,2.2888,2.2888,2.2888,2.2888,2.2888,2.3113,2.32,2.3659,2.4072,2.4434,2.4979,2.5399,2.5799,2.6206,2.6501,2.7193,2.8206,2.974,3.03,3.0489,3.0489,3.0489,3.0489,3.0605,3.0915,3.1229,3.2017,3.268,3.2901,3.3359,3.4634,3.4899,3.4899,3.4899,3.4899,3.4899,3.4923,3.5095,3.5142,3.5142,3.5148,3.5356,3.5498,3.5656,3.5802,3.699,3.7653,3.8308,3.8413,3.9494,4.057,4.1306,4.2042,4.2473,4.2733,4.2844,4.2881,4.2919,4.2919,4.2919,4.2919,4.2919,4.2919,4.2919,4.2919,4.2919,4.2919,4.2938,4.3012,4.3049,4.3086,4.3123,4.3141,4.3305,4.3535,4.4227,4.4755,4.543,2.0156,2.0156,1.9785,1.9862,2.0207,2.0169,2.0169,2.0346,2.056,2.0883,2.1166,2.0858,2.0734,2.0858,2.1068,2.1006,2.0883,2.108,2.124,2.1215,2.1361,2.1626,2.1888,2.217,2.244,2.2615,2.2797,2.2888,2.2888,2.2888,2.2888,2.2888,2.2888,2.2888,2.2888,2.2888,2.2888,2.2888,2.2888,2.2888,2.2902,2.296,2.3331,2.3644,2.4103,2.4591,2.5121,2.5742,2.6199,2.6608,2.73,2.7758,2.8381,2.9051,2.9962,3.0426,3.0468,3.0489,3.0489,3.0489,3.0803,3.135,3.1648,3.2332,3.321,3.3375,3.3375,3.48,3.4899,3.4899,3.4899,3.4899,3.4899,3.5041,3.5234,3.5356,3.5356,3.5385,3.5611,3.611,3.5915,3.5943,3.7442,3.872,3.9817,4.052,4.1326,4.1922,4.2279,4.2508,4.2788,4.2844,4.2919,4.2919,4.2919,4.2919,4.2919,4.2919,4.2919,4.2919,4.2919,4.2956,4.2938,4.2938,4.2994,4.3105,4.3142,4.3178,4.3396,4.363,4.3798,4.4105,4.4842,4.56,4.6315,2.0346,2.0585,2.0459,2.0635,2.0896,2.041,2.0472,2.0921,2.0908,2.1031,2.124,2.0981,2.0981,2.1191,2.1288,2.1299,2.1251,2.1251,2.1385,2.1434,2.1674,2.1888,2.2137,2.2394,2.2661,2.2775,2.2888,2.2888,2.2888,2.2888,2.2888,2.2888,2.2888,2.2888,2.2888,2.2888,2.2888,2.2888,2.2888,2.2902,2.2946,2.3316,2.3688,2.3987,2.4771,2.538,2.5835,2.6514,2.7036,2.7455,2.8146,2.8575,2.9074,2.9661,2.9962,3.0363,3.0489,3.0489,3.0489,3.0539,3.0853,3.1466,3.2078,3.2696,3.3613,3.4121,3.4468,3.4717,3.4883,3.4899,3.4899,3.4899,3.497,3.5211,3.5402,3.5543,3.5633,3.5722,3.5966,3.6762,3.6952,3.7863,3.9153,4.0018,4.1014,4.1464,4.206,4.2329,4.2638,4.2714,4.29,4.29,4.2919,4.2919,4.2919,4.2919,4.2919,4.2919,4.2919,4.2919,4.2919,4.2975,4.3012,4.3031,4.3105,4.3196,4.3397,4.3632,4.397,4.4212,4.4697,4.5068,4.5671,4.6492,4.7302,2.0648,2.0981,2.0858,2.1031,2.1302,2.0822,2.0959,2.1313,2.1129,2.1166,2.1288,2.1104,2.1129,2.1337,2.1385,2.1385,2.1385,2.1385,2.1385,2.1434,2.1688,2.1926,2.2208,2.2486,2.2669,2.2843,2.2888,2.2888,2.2888,2.2888,2.2888,2.2888,2.2888,2.2888,2.2888,2.2888,2.2888,2.2888,2.2888,2.3047,2.3287,2.3688,2.417,2.4757,2.5457,2.6142,2.6677,2.7265,2.786,2.8255,2.867,2.9035,2.9528,2.9875,3.0092,3.0384,3.0489,3.0489,3.0489,3.0489,3.0986,3.1967,3.2448,3.3166,3.3962,3.4535,3.4717,3.4883,3.4923,3.5018,3.5071,3.5048,3.5218,3.5492,3.5761,3.5898,3.6023,3.6131,3.659,3.7397,3.8143,3.9335,4.0583,4.1466,4.2257,4.2464,4.2689,4.2805,4.2881,4.29,4.2919,4.2919,4.2919,4.2919,4.2919,4.2919,4.2919,4.2919,4.2919,4.2919,4.2994,4.3067,4.3104,4.316,4.3269,4.345,4.3813,4.4136,4.4704,4.5427,4.618,4.6471,4.6661,4.7377,4.8281,2.1055,2.1313,2.0995,2.108,2.1399,2.1399,2.1423,2.141,2.1399,2.1399,2.1385,2.1375,2.1399,2.141,2.141,2.1458,2.1482,2.1482,2.1482,2.1554,2.1807,2.202,2.2278,2.2523,2.2729,2.2843,2.2888,2.2888,2.2888,2.2888,2.2888,2.2888,2.2888,2.2888,2.2888,2.2888,2.2888,2.2888,2.3113,2.3331,2.3659,2.4074,2.4786,2.5472,2.6088,2.6672,2.7215,2.779,2.8174,2.8646,2.9219,2.9617,2.9962,3.0241,3.0405,3.0489,3.0489,3.0489,3.0522,3.0522,3.1283,3.2299,3.2729,3.3574,3.4319,3.4857,3.4913,3.5024,3.5078,3.5241,3.5356,3.547,3.5566,3.5876,3.6195,3.636,3.6482,3.6793,3.7303,3.7956,3.8588,3.9684,4.1151,4.2215,4.2709,4.2767,4.2805,4.2843,4.29,4.29,4.2919,4.2919,4.2919,4.2919,4.2919,4.2919,4.2919,4.2919,4.2956,4.2975,4.3049,4.3123,4.3196,4.3287,4.3431,4.3755,4.4295,4.494,4.5629,4.642,4.732,4.7551,4.7632,4.8409,4.9231,2.1385,2.164,2.1337,2.1506,2.1935,2.1959,2.1878,2.1674,2.1496,2.1385,2.1385,2.1385,2.1496,2.1688,2.1688,2.1807,2.1831,2.1831,2.1878,2.1949,2.2044,2.2254,2.2463,2.2684,2.2843,2.2865,2.2888,2.2888,2.2888,2.2888,2.2888,2.2888,2.2888,2.2888,2.2888,2.2888,2.2954,2.3055,2.3368,2.3731,2.4258,2.4801,2.5516,2.6044,2.6716,2.725,2.7769,2.8174,2.8575,2.9332,2.9595,2.9897,3.0321,3.0426,3.0489,3.0489,3.0489,3.0506,3.0588,3.0986,3.1681,3.2564,3.3133,3.3905,3.4584,3.4947,3.5024,3.5125,3.5459,3.5727,3.5766,3.5793,3.5985,3.628,3.6561,3.6678,3.6905,3.7471,3.8033,3.9058,3.9673,4.0657,4.2089,4.2423,4.2824,4.2881,4.2919,4.2919,4.2919,4.2919,4.2919,4.2919,4.2919,4.2919,4.2919,4.2901,4.2919,4.2919,4.2994,4.305,4.3123,4.3196,4.3287,4.3575,4.3969,4.4434,4.4897,4.5677,4.6679,4.7457,4.8278,4.8445,4.8726,4.9344,4.9786,2.1444,2.1769,2.1759,2.1959,2.2287,2.224,2.2161,2.2044,2.1712,2.152,2.1385,2.1385,2.1544,2.1746,2.1793,2.1912,2.2137,2.203,2.203,2.2137,2.2301,2.2454,2.2638,2.2797,2.2865,2.2888,2.2888,2.2888,2.2888,2.2888,2.2888,2.2888,2.2888,2.2888,2.296,2.3171,2.3377,2.3493,2.3749,2.4185,2.4859,2.556,2.6015,2.6632,2.7339,2.7784,2.8231,2.8528,2.9219,2.9772,2.9897,3.0177,3.0485,3.0489,3.0489,3.0489,3.0489,3.0489,3.0605,3.1184,3.1896,3.2663,3.3415,3.4187,3.4668,3.5024,3.5148,3.5293,3.5864,3.6291,3.6203,3.6161,3.6426,3.6667,3.6838,3.6988,3.7519,3.8104,3.9095,4.0249,4.1175,4.2067,4.2692,4.2843,4.2919,4.2919,4.2919,4.2919,4.2919,4.2919,4.2919,4.2919,4.2919,4.2919,4.2919,4.2938,4.2994,4.3012,4.3068,4.3123,4.3196,4.3396,4.3612,4.4113,4.4698,4.5303,4.6038,4.6899,4.7847,4.8572,4.9106,4.9302,4.9466,4.9768,5.0099,2.1301,2.1912,2.2147,2.237,2.2532,2.237,2.2394,2.2546,2.2091,2.1736,2.153,2.1482,2.1688,2.1949,2.1996,2.21,2.2278,2.2278,2.2263,2.2278,2.244,2.2578,2.2684,2.2797,2.2888,2.2888,2.2888,2.2888,2.2888,2.2888,2.2888,2.2888,2.2888,2.2946,2.3186,2.3519,2.395,2.4608,2.464,2.4925,2.5673,2.6182,2.6573,2.732,2.783,2.8231,2.8622,2.9173,2.9832,3.0006,3.0194,3.0447,3.0468,3.0489,3.0489,3.0489,3.0489,3.0654,3.0886,3.1466,3.215,3.2829,3.3497,3.4309,3.4841,3.5001,3.5095,3.57,3.6305,3.6574,3.6571,3.653,3.669,3.6849,3.6983,3.7398,3.8011,3.8866,4.0133,4.1165,4.1909,4.2711,4.2805,4.2919,4.2919,4.2919,4.2919,4.2919,4.2919,4.2919,4.2919,4.2919,4.2919,4.2919,4.2975,4.3012,4.3068,4.3123,4.316,4.3233,4.3305,4.3594,4.3935,4.4667,4.5446,4.6535,4.7402,4.8177,4.8833,4.9353,4.9828,5.0109,5.0271,5.0252,5.0252,2.1622,2.2417,2.2661,2.2706,2.2638,2.2706,2.2661,2.2592,2.2486,2.224,2.2044,2.2006,2.2123,2.2324,2.2347,2.2463,2.2615,2.2532,2.2601,2.2601,2.2669,2.2706,2.2797,2.2843,2.2888,2.2888,2.2888,2.291,2.2941,2.2933,2.291,2.291,2.297,2.3169,2.3626,2.3999,2.4614,2.5719,2.606,2.6022,2.6352,2.718,2.7813,2.8002,2.8231,2.874,2.9173,2.9595,3.0049,3.03,3.0405,3.0489,3.0489,3.0489,3.0489,3.0489,3.0506,3.0754,3.1283,3.1901,3.2636,3.3437,3.4117,3.4589,3.4904,3.4906,3.5258,3.5985,3.653,3.6751,3.6908,3.6888,3.6908,3.7027,3.723,3.7876,3.8539,3.9844,4.1152,4.186,4.2588,4.2808,4.2882,4.2919,4.2919,4.2919,4.2919,4.2919,4.2919,4.2919,4.2919,4.2919,4.2901,4.2938,4.3012,4.3105,4.3178,4.3233,4.3287,4.334,4.3448,4.3954,4.4512,4.5384,4.6268,4.7379,4.8418,4.9233,4.9846,5.0094,5.0144,5.0278,5.0302,5.0271,5.0271,2.1451,2.2177,2.2696,2.2843,2.2775,2.2857,2.2834,2.2752,2.2729,2.2646,2.25,2.2347,2.2333,2.2578,2.2615,2.2706,2.2843,2.2775,2.2775,2.2797,2.282,2.282,2.2865,2.2888,2.2888,2.2888,2.291,2.2933,2.3075,2.3127,2.3127,2.315,2.3275,2.3636,2.4195,2.4612,2.5518,2.6986,2.7441,2.7602,2.7424,2.8104,2.8511,2.8559,2.8896,2.9332,2.9595,2.9962,3.0258,3.0426,3.0468,3.0489,3.0489,3.0489,3.0489,3.0489,3.0572,3.082,3.1565,3.2321,3.3117,3.3933,3.4708,3.5128,3.5549,3.5577,3.5264,3.5963,3.6632,3.693,3.6948,3.693,3.7046,3.7143,3.7807,3.8541,3.9753,4.1188,4.1971,4.2408,4.2845,4.2845,4.2919,4.2919,4.2919,4.2919,4.2919,4.2919,4.2919,4.2938,4.2938,4.2957,4.2975,4.2994,4.3049,4.3178,4.3287,4.3341,4.3376,4.3703,4.3976,4.4533,4.516,4.6246,4.7293,4.8313,4.9284,4.9902,5.0114,5.0217,5.0248,5.029,5.0302,5.0302,5.0302,2.104,2.1713,2.2473,2.2852,2.2888,2.2888,2.2888,2.2888,2.2888,2.2888,2.282,2.2463,2.2463,2.2555,2.2661,2.2775,2.2843,2.2843,2.2888,2.2888,2.2888,2.2865,2.2865,2.2888,2.2888,2.2888,2.291,2.3105,2.3334,2.3355,2.3377,2.353,2.3861,2.4232,2.4822,2.5546,2.652,2.7727,2.8456,2.9069,2.9157,2.9113,2.9097,2.9303,2.955,2.9793,3.0006,3.0215,3.0468,3.0489,3.0489,3.0489,3.0489,3.0489,3.0489,3.0489,3.0489,3.0986,3.1735,3.2469,3.3395,3.4287,3.5048,3.5599,3.6002,3.5958,3.5661,3.5946,3.6652,3.697,3.6989,3.7103,3.72,3.7721,3.8527,3.9375,4.0862,4.2208,4.2572,4.2919,4.2919,4.2919,4.2919,4.2919,4.2919,4.2919,4.2919,4.2919,4.2919,4.2975,4.2994,4.305,4.3105,4.3123,4.316,4.3233,4.3359,4.3411,4.3501,4.3995,4.4504,4.5098,4.6027,4.741,4.8414,4.9142,4.9625,5.0133,5.0271,5.0302,5.0302,5.0302,5.0302,5.0302,5.0302,2.0897,2.1939,2.2113,2.2446,2.283,2.2873,2.2888,2.2888,2.2888,2.2888,2.2865,2.2843,2.2806,2.2843,2.2843,2.2933,2.3045,2.3,2.291,2.2888,2.291,2.291,2.2888,2.2888,2.2888,2.291,2.2955,2.3127,2.3568,2.3553,2.3625,2.3964,2.4016,2.4663,2.5712,2.6428,2.7176,2.8381,2.916,2.9667,2.9968,2.9875,2.9677,2.9728,2.975,3.0049,3.0279,3.0443,3.0489,3.0489,3.0489,3.0489,3.0489,3.0489,3.0489,3.0597,3.0597,3.1369,3.2147,3.2926,3.3898,3.502,3.5661,3.5842,3.6075,3.6097,3.6011,3.622,3.6751,3.6989,3.7085,3.7326,3.7528,3.8675,3.9627,4.0501,4.1665,4.2355,4.281,4.2919,4.2919,4.2919,4.2919,4.2919,4.2919,4.2919,4.2919,4.2938,4.2956,4.3012,4.3068,4.3142,4.3233,4.3305,4.3341,4.3341,4.3411,4.3464,4.3664,4.4232,4.4869,4.5662,4.6717,4.807,4.8975,4.9682,5.0113,5.0302,5.0302,5.0302,5.0302,5.0302,5.0302,5.0302,5.0302]}]]